[[{"header":{"parameterUnit":"m.s-1","parameterCategory":1,"la1":30.6,"la2":29.2853,"lo1":-89.7004,"lo2":-87.6739,"dy":0.0162,"dx":0.0183,"nx":112,"ny":82,"refTime":"2024-07-17T00:00:00:Z","depth":0,"parameterNumber":2,"parameterNumberName":"U-component_of_WINDS"},"data":[0.0,0.0,0.0,0.0,0.0,0.0,0.0,0.0,0.0,0.0,0.0,0.0,0.0,0.0,0.0,0.0,0.0,0.0,0.0,0.0,0.0,0.0,0.0,0.0,0.0,0.0,0.0,0.0,0.0,0.0,0.0,0.0,0.0,0.0,0.0,0.0,0.0,0.0,0.0,0.0,0.0,0.0,0.0,0.0,0.0,0.0,0.0,0.0,0.0,0.0,0.0,0.0,0.0,0.0,0.0,0.0,0.0,0.0,0.0,0.0,0.0,0.0,0.0,0.0,0.0,0.0,0.0,0.0,0.0,0.0,0.0,0.0,0.0,0.0,0.0,0.0,0.0,0.0,0.0,0.0,0.0,0.0,0.0,0.0,0.0,0.0,0.0,0.0,0.0,0.0,0.0,-2.0447,-2.3997,-2.6202,-2.6202,-2.5887,-2.4315,-2.1066,0.0,0.0,0.0,0.0,0.0,0.0,0.0,0.0,0.0,0.0,0.0,0.0,0.0,0.0,0.0,0.0,0.0,0.0,0.0,0.0,0.0,0.0,0.0,0.0,0.0,0.0,0.0,0.0,0.0,0.0,0.0,0.0,0.0,0.0,0.0,0.0,0.0,0.0,0.0,0.0,0.0,0.0,0.0,0.0,0.0,0.0,0.0,0.0,0.0,0.0,0.0,0.0,0.0,0.0,0.0,0.0,0.0,0.0,0.0,0.0,0.0,0.0,0.0,0.0,0.0,0.0,0.0,0.0,0.0,0.0,0.0,0.0,0.0,0.0,0.0,0.0,0.0,0.0,0.0,0.0,0.0,0.0,0.0,0.0,0.0,0.0,0.0,0.0,0.0,0.0,0.0,0.0,0.0,0.0,0.0,0.0,0.0,0.0,0.0,0.0,0.0,0.0,0.0,0.0,-1.9043,-2.3429,-2.528,-2.6202,-2.6202,-2.4481,-2.2891,-2.1713,0.0,0.0,0.0,0.0,0.0,0.0,0.0,0.0,0.0,0.0,0.0,0.0,0.0,0.0,0.0,0.0,0.0,0.0,0.0,0.0,0.0,0.0,0.0,0.0,0.0,0.0,0.0,0.0,0.0,0.0,0.0,0.0,0.0,0.0,0.0,0.0,0.0,0.0,0.0,0.0,0.0,0.0,0.0,0.0,0.0,0.0,0.0,0.0,0.0,0.0,0.0,0.0,0.0,0.0,0.0,0.0,0.0,0.0,0.0,0.0,0.0,0.0,0.0,0.0,0.0,0.0,0.0,0.0,0.0,0.0,0.0,0.0,0.0,0.0,0.0,0.0,0.0,0.0,0.0,0.0,0.0,0.0,0.0,0.0,0.0,0.0,0.0,0.0,0.0,0.0,0.0,0.0,0.0,0.0,0.0,0.0,0.0,0.0,0.0,0.0,0.0,0.0,0.0,-1.839,-2.0416,-2.4646,-2.5757,-2.6202,-2.6202,-2.4547,-2.2841,-2.1298,-1.8811,0.0,0.0,0.0,0.0,0.0,0.0,0.0,0.0,0.0,0.0,0.0,0.0,0.0,0.0,0.0,0.0,0.0,0.0,0.0,0.0,0.0,0.0,0.0,0.0,0.0,0.0,0.0,0.0,0.0,0.0,0.0,0.0,0.0,0.0,0.0,0.0,0.0,0.0,0.0,0.0,0.0,0.0,0.0,0.0,0.0,0.0,0.0,0.0,0.0,0.0,0.0,0.0,0.0,0.0,0.0,0.0,0.0,0.0,0.0,0.0,0.0,0.0,0.0,0.0,0.0,0.0,0.0,0.0,0.0,0.0,0.0,0.0,0.0,0.0,0.0,0.0,0.0,0.0,0.0,0.0,0.0,0.0,0.0,0.0,0.0,0.0,0.0,0.0,0.0,0.0,0.0,0.0,0.0,0.0,0.0,0.0,0.0,0.0,0.0,0.0,0.0,0.0,-2.0289,-2.189,-2.5078,-2.5892,-2.6202,-2.6202,-2.4381,-2.2493,-2.0801,-1.7224,0.0,0.0,0.0,0.0,0.0,0.0,0.0,0.0,0.0,0.0,0.0,0.0,0.0,0.0,0.0,0.0,0.0,0.0,0.0,0.0,0.0,0.0,0.0,0.0,0.0,0.0,0.0,0.0,0.0,0.0,0.0,0.0,0.0,0.0,0.0,0.0,0.0,0.0,0.0,0.0,0.0,0.0,0.0,0.0,0.0,0.0,0.0,0.0,0.0,0.0,0.0,0.0,0.0,0.0,0.0,0.0,0.0,0.0,0.0,0.0,0.0,0.0,0.0,0.0,0.0,0.0,0.0,0.0,0.0,0.0,0.0,0.0,0.0,0.0,0.0,0.0,0.0,0.0,0.0,0.0,0.0,0.0,0.0,0.0,0.0,0.0,0.0,0.0,0.0,0.0,0.0,0.0,0.0,0.0,0.0,0.0,0.0,0.0,0.0,0.0,0.0,0.0,-2.0782,-2.332,-2.494,-2.5772,-2.6202,-2.6202,-2.2957,-2.0868,-2.0718,-1.6028,0.0,0.0,0.0,0.0,0.0,0.0,0.0,0.0,0.0,0.0,0.0,0.0,0.0,0.0,0.0,0.0,0.0,0.0,0.0,0.0,0.0,0.0,0.0,0.0,0.0,0.0,0.0,0.0,0.0,0.0,0.0,0.0,0.0,0.0,0.0,0.0,0.0,0.0,0.0,0.0,0.0,0.0,0.0,0.0,0.0,0.0,0.0,0.0,0.0,0.0,0.0,0.0,0.0,0.0,0.0,0.0,0.0,0.0,0.0,0.0,0.0,0.0,0.0,0.0,0.0,0.0,0.0,0.0,0.0,0.0,0.0,0.0,0.0,0.0,0.0,0.0,0.0,0.0,0.0,0.0,0.0,0.0,0.0,0.0,0.0,0.0,0.0,0.0,0.0,0.0,0.0,0.0,0.0,0.0,0.0,0.0,0.0,0.0,0.0,0.0,0.0,0.0,-1.9338,-2.1825,0.0,-2.4957,-2.5342,-2.4878,-2.3123,-2.1284,-1.9445,0.0,0.0,0.0,0.0,0.0,0.0,0.0,0.0,0.0,0.0,0.0,0.0,0.0,0.0,0.0,0.0,0.0,0.0,0.0,0.0,0.0,0.0,0.0,0.0,0.0,0.0,0.0,0.0,0.0,0.0,0.0,0.0,0.0,0.0,0.0,0.0,0.0,0.0,0.0,0.0,0.0,0.0,0.0,0.0,0.0,0.0,0.0,0.0,0.0,0.0,0.0,0.0,0.0,0.0,0.0,0.0,0.0,0.0,0.0,0.0,0.0,0.0,0.0,0.0,0.0,0.0,0.0,0.0,0.0,0.0,0.0,0.0,0.0,0.0,0.0,0.0,0.0,0.0,0.0,0.0,0.0,0.0,0.0,0.0,0.0,0.0,0.0,0.0,0.0,0.0,0.0,0.0,0.0,0.0,0.0,0.0,0.0,0.0,0.0,0.0,0.0,0.0,-1.5911,-1.8663,-2.1167,0.0,-2.4115,-2.4547,-2.405,-2.2891,-2.1135,-1.8671,0.0,0.0,0.0,0.0,0.0,0.0,0.0,0.0,0.0,0.0,0.0,0.0,0.0,0.0,0.0,0.0,0.0,0.0,0.0,0.0,0.0,0.0,0.0,0.0,0.0,0.0,0.0,0.0,0.0,0.0,0.0,0.0,0.0,0.0,0.0,0.0,0.0,0.0,0.0,0.0,0.0,0.0,0.0,0.0,0.0,0.0,0.0,0.0,0.0,0.0,0.0,0.0,0.0,0.0,0.0,0.0,0.0,0.0,0.0,0.0,0.0,0.0,0.0,0.0,0.0,0.0,0.0,0.0,0.0,0.0,0.0,0.0,0.0,0.0,0.0,0.0,0.0,0.0,0.0,0.0,0.0,0.0,0.0,0.0,0.0,0.0,0.0,0.0,0.0,0.0,0.0,0.0,0.0,0.0,0.0,0.0,0.0,0.0,0.0,0.0,0.0,0.0,-1.5333,-1.9107,-2.1945,-2.2329,-2.3358,-2.3984,-2.3984,-2.1978,-2.0091,0.0,0.0,0.0,0.0,0.0,0.0,0.0,0.0,0.0,0.0,0.0,0.0,0.0,0.0,0.0,0.0,0.0,0.0,0.0,0.0,0.0,0.0,0.0,0.0,0.0,0.0,0.0,0.0,0.0,0.0,0.0,0.0,0.0,0.0,0.0,0.0,0.0,0.0,0.0,0.0,0.0,0.0,0.0,0.0,0.0,0.0,0.0,0.0,0.0,0.0,0.0,0.0,0.0,0.0,0.0,0.0,0.0,0.0,0.0,0.0,0.0,0.0,0.0,0.0,0.0,0.0,0.0,0.0,0.0,0.0,0.0,0.0,0.0,0.0,0.0,0.0,0.0,0.0,0.0,0.0,0.0,0.0,0.0,0.0,0.0,0.0,0.0,0.0,0.0,0.0,0.0,0.0,0.0,0.0,0.0,0.0,0.0,0.0,0.0,0.0,0.0,0.0,0.0,0.0,-1.8562,-2.1144,-2.126,-2.2426,-2.3007,-2.2477,-2.2327,-2.0984,-1.7984,0.0,0.0,0.0,0.0,0.0,0.0,0.0,0.0,0.0,0.0,0.0,0.0,0.0,0.0,0.0,0.0,0.0,0.0,0.0,0.0,0.0,0.0,0.0,0.0,0.0,0.0,0.0,0.0,0.0,0.0,0.0,0.0,0.0,0.0,0.0,0.0,0.0,0.0,0.0,0.0,0.0,0.0,0.0,0.0,0.0,0.0,0.0,0.0,0.0,0.0,0.0,0.0,0.0,0.0,0.0,0.0,0.0,0.0,0.0,0.0,0.0,0.0,0.0,0.0,0.0,0.0,0.0,0.0,0.0,0.0,0.0,0.0,0.0,0.0,0.0,0.0,0.0,0.0,0.0,0.0,0.0,0.0,0.0,0.0,0.0,0.0,0.0,0.0,0.0,0.0,0.0,0.0,0.0,0.0,0.0,0.0,0.0,0.0,0.0,0.0,0.0,0.0,-1.4886,-1.8177,-2.0562,-2.0562,-2.1585,-2.2078,-2.1635,-2.2119,-2.1151,-1.8087,0.0,0.0,0.0,0.0,0.0,0.0,0.0,0.0,0.0,0.0,0.0,0.0,0.0,0.0,0.0,0.0,0.0,0.0,0.0,0.0,0.0,0.0,0.0,0.0,0.0,0.0,0.0,0.0,0.0,0.0,0.0,0.0,0.0,0.0,0.0,0.0,0.0,0.0,0.0,0.0,0.0,0.0,0.0,0.0,0.0,0.0,0.0,0.0,0.0,0.0,0.0,0.0,0.0,0.0,0.0,0.0,0.0,0.0,0.0,0.0,0.0,0.0,0.0,0.0,0.0,0.0,0.0,0.0,0.0,0.0,0.0,0.0,0.0,0.0,0.0,0.0,0.0,0.0,0.0,0.0,0.0,0.0,0.0,0.0,0.0,0.0,0.0,0.0,0.0,0.0,0.0,0.0,0.0,0.0,0.0,0.0,0.0,0.0,0.0,0.0,0.0,0.0,-1.505,-1.802,-2.0191,-2.0191,-2.0828,-2.1278,-2.1293,-2.1587,-2.0858,-1.8737,0.0,0.0,0.0,0.0,0.0,0.0,0.0,0.0,0.0,0.0,0.0,0.0,0.0,0.0,0.0,0.0,0.0,0.0,0.0,0.0,0.0,0.0,0.0,0.0,0.0,0.0,0.0,0.0,0.0,0.0,0.0,0.0,0.0,0.0,0.0,0.0,0.0,0.0,0.0,0.0,0.0,0.0,0.0,0.0,0.0,0.0,0.0,0.0,0.0,0.0,0.0,0.0,0.0,0.0,0.0,0.0,0.0,0.0,0.0,0.0,-1.6653,0.0,0.0,0.0,0.0,0.0,0.0,0.0,0.0,0.0,0.0,0.0,0.0,0.0,0.0,0.0,0.0,0.0,0.0,0.0,0.0,0.0,0.0,0.0,0.0,0.0,0.0,0.0,0.0,0.0,0.0,0.0,0.0,0.0,0.0,0.0,0.0,0.0,0.0,0.0,0.0,0.0,-1.6249,-1.8582,-2.0191,-2.0191,-2.0614,-2.1006,-2.1277,-2.1372,-2.0824,-1.9455,0.0,0.0,0.0,0.0,0.0,0.0,0.0,0.0,0.0,0.0,0.0,0.0,0.0,0.0,0.0,0.0,0.0,0.0,0.0,0.0,0.0,0.0,0.0,0.0,0.0,0.0,0.0,0.0,0.0,0.0,0.0,0.0,0.0,0.0,0.0,0.0,0.0,0.0,0.0,0.0,0.0,0.0,0.0,0.0,0.0,0.0,0.0,0.0,0.0,0.0,0.0,0.0,0.0,0.0,0.0,0.0,0.0,0.0,0.0,0.0,0.0,-1.7883,0.0,0.0,0.0,0.0,0.0,0.0,0.0,0.0,0.0,0.0,0.0,0.0,0.0,0.0,0.0,0.0,0.0,0.0,0.0,0.0,0.0,0.0,0.0,0.0,0.0,0.0,0.0,0.0,0.0,0.0,0.0,0.0,0.0,0.0,0.0,0.0,0.0,0.0,0.0,0.0,-1.6622,-1.8599,-2.0015,-2.0174,-2.0562,-2.0876,-2.1039,-2.1356,-2.1066,-1.9956,-1.9339,0.0,0.0,0.0,0.0,0.0,0.0,0.0,0.0,0.0,0.0,0.0,0.0,0.0,0.0,0.0,0.0,0.0,0.0,0.0,0.0,0.0,0.0,0.0,0.0,0.0,0.0,0.0,0.0,0.0,0.0,0.0,0.0,0.0,0.0,0.0,0.0,0.0,0.0,0.0,0.0,0.0,0.0,0.0,0.0,0.0,0.0,0.0,0.0,0.0,0.0,0.0,0.0,0.0,0.0,0.0,-2.2564,-2.2564,-2.2893,-2.3398,-2.2188,-2.1432,-2.098,0.0,0.0,0.0,0.0,0.0,0.0,0.0,0.0,0.0,0.0,0.0,0.0,0.0,0.0,0.0,0.0,0.0,0.0,0.0,0.0,0.0,0.0,0.0,0.0,0.0,-2.0712,-2.0197,0.0,0.0,0.0,0.0,0.0,0.0,0.0,0.0,0.0,0.0,0.0,0.0,-1.695,-1.8612,-1.98,-2.007,-2.0462,-2.0712,-2.0794,-2.1355,-2.1369,-2.0526,-2.0054,-1.92,0.0,0.0,0.0,0.0,0.0,0.0,0.0,0.0,0.0,0.0,0.0,0.0,0.0,0.0,0.0,0.0,0.0,0.0,0.0,0.0,0.0,0.0,0.0,0.0,0.0,0.0,0.0,0.0,0.0,0.0,0.0,0.0,-1.3647,-1.5386,0.0,0.0,0.0,0.0,0.0,0.0,0.0,0.0,0.0,0.0,0.0,0.0,0.0,0.0,-2.1678,-2.2849,-2.3499,-2.3604,-2.4873,-2.5545,-2.5612,-2.5612,-2.5679,-2.5748,-2.5559,0.0,-2.2489,-2.1013,0.0,0.0,0.0,0.0,0.0,0.0,0.0,0.0,0.0,0.0,0.0,0.0,0.0,0.0,0.0,0.0,0.0,0.0,0.0,0.0,0.0,0.0,-2.2225,-2.1978,-2.1972,-2.1797,0.0,-1.8674,-1.6593,-1.6473,0.0,0.0,0.0,0.0,0.0,0.0,0.0,0.0,-1.8267,-1.9166,-1.9726,-1.9764,-2.0067,-2.0429,-2.0778,-2.1151,-2.1431,-2.1574,-2.0938,-2.0174,-1.9366,-1.7955,0.0,0.0,0.0,0.0,0.0,0.0,0.0,0.0,0.0,0.0,0.0,0.0,0.0,0.0,0.0,0.0,0.0,0.0,0.0,0.0,0.0,0.0,0.0,0.0,0.0,0.0,0.0,0.0,0.0,-1.3722,-1.5946,-1.6176,-1.6615,-1.6544,0.0,0.0,0.0,0.0,0.0,0.0,0.0,0.0,0.0,-2.163,-2.2302,-2.3213,-2.4398,-2.5373,-2.6061,-2.6492,-2.7139,-2.7429,-2.7429,-2.7429,-2.7429,-2.7429,-2.7429,-2.6883,-2.5801,-2.3499,-2.2112,-2.1353,0.0,0.0,0.0,0.0,0.0,-2.1102,-2.1915,0.0,0.0,0.0,0.0,0.0,0.0,0.0,0.0,0.0,0.0,0.0,0.0,0.0,0.0,-2.3041,-2.3359,-2.3522,-2.276,-2.1618,-2.0287,0.0,-1.7325,-1.6398,-1.6323,0.0,0.0,0.0,0.0,0.0,-1.8583,-1.9286,-1.9764,-1.9962,-2.0309,-2.0613,-2.0794,-2.1277,-2.1572,-2.1526,-2.1394,-2.1,-2.0257,-1.923,-1.779,0.0,0.0,0.0,0.0,0.0,0.0,0.0,0.0,0.0,0.0,0.0,0.0,0.0,0.0,0.0,0.0,0.0,0.0,0.0,0.0,0.0,0.0,0.0,0.0,0.0,0.0,0.0,0.0,-1.5513,-1.702,-1.6809,-1.7889,-1.8128,0.0,0.0,0.0,0.0,0.0,0.0,-2.0527,-2.1271,-2.2239,-2.3539,-2.4348,-2.5376,-2.6642,-2.7276,-2.7858,-2.8392,-2.8392,-2.8392,-2.8392,-2.8392,-2.8406,-2.8401,-2.8401,-2.8401,-2.8216,-2.5817,-2.4531,-2.3951,-2.321,-2.2932,0.0,-2.3538,-2.3735,-2.3901,-2.5011,-2.5259,-2.4961,-2.405,0.0,-2.2808,-2.0789,0.0,0.0,0.0,0.0,-2.2579,-2.2925,0.0,-2.4061,-2.3947,-2.4441,-2.4682,-2.3869,-2.3795,-2.3224,0.0,-1.971,-1.8777,-1.8012,0.0,0.0,0.0,0.0,-1.8302,-1.9248,-1.964,-2.0038,-2.0543,-2.079,-2.0925,-2.0925,-2.1463,-2.1676,-2.1449,-2.1646,-2.1547,-2.1,-2.0274,-1.9201,0.0,0.0,0.0,0.0,0.0,0.0,0.0,0.0,0.0,0.0,0.0,0.0,0.0,0.0,0.0,0.0,0.0,0.0,0.0,0.0,0.0,0.0,0.0,0.0,0.0,0.0,0.0,0.0,0.0,0.0,-1.8214,-1.8902,0.0,0.0,0.0,0.0,-2.072,-2.1141,-2.1735,-2.2597,-2.37,-2.463,-2.5338,-2.633,-2.7197,-2.7896,-2.821,-2.8357,-2.8392,-2.8392,-2.8392,-2.8392,-2.8392,-2.8398,-2.8392,-2.8392,-2.8392,-2.8343,-2.7492,-2.7109,-2.7014,-2.6262,-2.598,-2.5987,-2.603,-2.602,-2.6036,-2.6119,-2.569,-2.5192,-2.5821,-2.5094,-2.405,-2.4613,-2.3802,0.0,0.0,-2.3805,-2.4277,-2.3925,-2.4334,-2.4835,-2.4843,-2.4863,-2.4902,-2.4835,-2.4334,-2.3676,0.0,-2.2681,-2.2287,-2.1239,0.0,-1.9953,-1.9596,-1.9031,-1.9263,-2.0944,-2.0593,-2.0576,-2.1612,-2.1455,-2.1262,-2.1262,-2.1602,-2.1781,-2.1783,-2.1781,-2.1779,-2.1763,-2.105,-2.0274,-1.9488,-1.7691,0.0,0.0,0.0,0.0,0.0,0.0,0.0,0.0,0.0,0.0,0.0,0.0,0.0,0.0,0.0,0.0,0.0,0.0,0.0,0.0,0.0,0.0,0.0,0.0,0.0,0.0,0.0,0.0,-2.046,-2.1502,0.0,0.0,-2.1456,-2.1799,-2.2003,-2.29,-2.3689,-2.4313,-2.5303,-2.6121,-2.6708,-2.7306,-2.7898,-2.8456,-2.884,-2.9224,-2.956,-2.9703,-2.9748,-2.9748,-2.9748,-2.974,-2.9749,-2.9749,-2.9749,-2.9733,-2.9481,-2.8837,-2.7979,-2.7729,-2.7627,-2.763,-2.7625,-2.7611,-2.7611,-2.7611,-2.7429,-2.7199,-2.6984,-2.5905,-2.4762,-2.5027,-2.4746,-2.4365,-2.4495,-2.4826,-2.5112,-2.4963,-2.5118,-2.5218,-2.4962,-2.5326,-2.5645,-2.5349,-2.5341,-2.5297,-2.5072,-2.3654,-2.2391,-2.201,-2.1534,-2.1152,-2.1015,-2.1015,-2.1256,-2.1861,-2.1931,-2.2083,-2.2477,-2.2212,-2.2021,-2.2021,-2.188,-2.1812,-2.1812,-2.1812,-2.1812,-2.1812,-2.1547,-2.1009,-2.0202,-1.8993,-1.7241,0.0,0.0,0.0,0.0,0.0,0.0,0.0,0.0,0.0,0.0,0.0,0.0,0.0,0.0,0.0,0.0,0.0,0.0,0.0,0.0,0.0,0.0,0.0,0.0,0.0,0.0,-2.2036,-2.2094,-2.3281,-2.3864,-2.3365,-2.3785,-2.4113,-2.418,-2.4991,-2.5542,-2.5673,-2.6426,-2.7109,-2.762,-2.7957,-2.8406,-2.8952,-2.9352,-2.9702,-3.0065,-3.0279,-3.0401,-3.0401,-3.0485,-3.0506,-3.0506,-3.0506,-3.0506,-3.0506,-3.0506,-2.9963,-2.9102,-2.9102,-2.9102,-2.9102,-2.9102,-2.8936,-2.8724,-2.8475,-2.8392,-2.8326,-2.7829,-2.6851,-2.5889,-2.6137,-2.5872,-2.5556,-2.6071,-2.599,-2.5789,-2.6034,-2.5919,-2.5666,-2.5403,-2.5789,-2.6097,-2.5811,-2.599,-2.6202,-2.6202,-2.479,-2.3502,-2.3135,-2.2842,-2.2551,-2.2168,-2.2334,-2.2655,-2.3035,-2.3086,-2.3236,-2.36,-2.3223,-2.2834,-2.2589,-2.2319,-2.2046,-2.1829,-2.1812,-2.1812,-2.1812,-2.1564,-2.1172,-2.0578,-1.9472,-1.8235,-1.6902,0.0,0.0,0.0,0.0,0.0,0.0,0.0,0.0,0.0,0.0,0.0,0.0,0.0,0.0,0.0,0.0,0.0,0.0,0.0,0.0,0.0,0.0,0.0,-2.0982,-2.1604,-2.24,-2.31,-2.4077,-2.4967,-2.567,-2.6294,-2.6824,-2.7276,-2.7385,-2.7196,-2.6674,-2.7137,-2.7652,-2.8132,-2.8315,-2.8766,-2.9493,-2.9716,-2.9842,-2.9842,-3.0098,-3.0238,-3.0276,-3.0455,-3.0555,-3.0572,-3.0572,-3.0555,-3.0522,-3.0522,-3.0522,-3.0506,-3.0506,-3.0506,-3.0506,-3.0506,-3.0042,-2.933,-2.8691,-2.8442,-2.8426,-2.8426,-2.7928,-2.7464,-2.8177,-2.7396,-2.6584,-2.7995,-2.7346,-2.6402,-2.7116,-2.675,-2.6202,-2.6202,-2.6202,-2.6202,-2.6202,-2.6202,-2.6202,-2.6202,-2.6202,-2.5881,-2.4805,-2.4619,-2.4218,-2.3122,-2.2974,0.0,-2.4504,-2.402,-2.3978,-2.5026,-2.4481,-2.3735,-2.299,-2.2907,-2.2576,-2.1862,-2.1812,-2.1812,-2.1829,-2.1135,-2.0754,-2.074,-1.9192,-1.8488,-1.8725,0.0,0.0,0.0,0.0,0.0,0.0,0.0,0.0,0.0,0.0,0.0,0.0,0.0,0.0,0.0,0.0,0.0,0.0,0.0,0.0,0.0,0.0,-2.3395,-2.2575,-2.412,-2.5265,-2.5082,-2.599,-2.6615,-2.6569,-2.72,-2.7541,-2.7389,-2.7695,-2.7846,-2.7699,-2.783,-2.8193,-2.8798,-2.9086,-2.9211,-2.9213,-3.0135,-3.049,-3.0314,-3.0738,-3.1215,-3.1712,-3.1424,-3.1581,-3.21,-3.21,-3.1802,-3.13,-3.13,-3.0986,-3.0506,-3.0506,-3.0506,-3.0506,-3.0506,-3.0373,-3.0174,-2.9996,-2.9582,-2.9135,-2.9135,-2.8655,-2.8127,-2.8343,-2.8127,-2.7879,-2.8293,-2.7713,-2.705,-2.7249,-2.675,-2.6202,-2.6202,-2.6202,-2.6202,-2.6202,-2.6202,-2.6202,-2.6202,-2.6202,-2.5995,-2.5368,-2.5002,-2.471,-2.4388,0.0,0.0,-2.5213,-2.5371,-2.5568,-2.5871,-2.5243,-2.4497,-2.3768,-2.3205,-2.2576,0.0,-2.1812,-2.2044,-2.2591,-2.2255,-2.1969,-2.1714,-2.0654,-1.9783,0.0,0.0,0.0,0.0,0.0,0.0,0.0,0.0,0.0,0.0,0.0,0.0,0.0,0.0,0.0,0.0,0.0,0.0,0.0,0.0,0.0,0.0,-2.3876,-2.5208,-2.505,-2.6209,-2.695,-2.6617,-2.7263,-2.7794,-2.8082,-2.8214,-2.8322,-2.8405,-2.8478,-2.8417,-2.8243,-2.8408,-2.8853,-2.9548,-2.9704,-2.9854,-2.9967,-3.0782,-3.1061,-3.0808,-3.141,-3.1873,-3.2157,-3.2111,-3.2299,0.0,-3.2702,-3.2448,-3.2067,-3.2067,-3.1615,0.0,0.0,0.0,0.0,0.0,-3.0506,-3.0506,-3.0506,-3.0208,-2.986,-2.986,-2.94,-2.887,-2.9185,-2.8873,-2.8525,-2.9102,-2.8558,-2.7746,-2.7746,-2.7216,-2.6584,-2.6268,-2.6202,-2.6202,-2.6202,-2.6202,-2.6202,-2.6202,0.0,0.0,-2.583,-2.5607,-2.5438,-2.5438,-2.5645,-2.5793,0.0,-2.6026,-2.6202,-2.6202,-2.5821,-2.5259,-2.453,-2.4067,0.0,0.0,0.0,-2.2775,-2.2891,0.0,0.0,0.0,0.0,0.0,0.0,0.0,0.0,0.0,-1.9313,-1.8976,0.0,0.0,0.0,0.0,0.0,0.0,0.0,0.0,0.0,0.0,0.0,0.0,0.0,0.0,0.0,0.0,-2.5548,-2.6964,-2.7613,-2.7701,-2.7701,-2.7672,-2.802,-2.8644,-2.9645,-2.9317,-2.927,-2.9812,-2.9587,-2.925,-2.883,0.0,0.0,0.0,0.0,-3.0821,-3.1343,-3.1723,-3.1755,-3.1494,-3.2222,-3.2474,-3.2286,-3.2659,-3.2884,-3.2967,-3.2967,-3.2917,-3.2834,-3.2834,-3.2348,-3.1532,-3.0787,-3.0506,-3.0506,-3.0506,-3.0506,0.0,0.0,0.0,0.0,-3.0506,-3.0059,-2.9645,-3.029,-2.9632,-2.8906,-3.0141,-2.9533,-2.8508,-2.8426,-2.7845,-2.7116,-2.6385,-2.6202,-2.6202,-2.6202,-2.6202,-2.6202,-2.6202,-2.6202,-2.6202,-2.6202,-2.6202,-2.6202,-2.6202,-2.6202,0.0,-2.6202,-2.6202,-2.6202,-2.6202,0.0,0.0,-2.5176,-2.511,-2.4514,-2.3106,-2.3719,-2.3818,-2.3141,-2.319,-2.3143,-2.29,-2.2784,-2.3178,-2.4138,-2.374,-2.3379,-2.3056,-2.0515,-1.9987,0.0,0.0,0.0,0.0,0.0,0.0,0.0,0.0,0.0,0.0,0.0,0.0,0.0,0.0,0.0,-2.4642,-2.6315,-2.7543,-2.7683,-2.7701,-2.7642,-2.7496,-2.8519,-2.9242,-2.9244,-3.0489,-3.0958,-3.0194,-3.0893,-3.1385,-3.1378,-3.1573,0.0,-3.2833,-3.2757,-3.2615,-3.2412,-3.3318,-3.3604,-3.3218,0.0,0.0,-3.3998,-3.3716,-3.3905,-3.4468,-3.4468,-3.4137,-3.3597,-3.3597,-3.2796,-3.1532,-3.0787,-3.0506,-3.0506,-3.0506,-3.0506,-3.0506,-3.0506,-3.0506,-3.0506,-3.0506,-3.0406,-3.0307,-3.0456,-3.0307,0.0,-3.0423,-2.9877,-2.9085,-2.8542,-2.7845,-2.7116,-2.6385,-2.6202,-2.6202,-2.6202,-2.6202,-2.6202,-2.6202,-2.6202,-2.6202,-2.6202,-2.6202,-2.6202,-2.6202,-2.6202,-2.6202,-2.6202,-2.6202,-2.6202,-2.6202,-2.6202,-2.5887,-2.5176,-2.511,-2.4729,-2.3835,-2.4481,-2.4744,-2.4442,-2.5,-2.4962,-2.4165,-2.4549,-2.4417,-2.3815,-2.4122,-2.4117,-2.3791,-2.2912,-2.2411,0.0,0.0,0.0,0.0,0.0,0.0,0.0,0.0,0.0,0.0,0.0,-2.1101,-2.2067,0.0,-2.5456,-2.6105,-2.7377,-2.8298,-2.8298,-2.8649,-2.8708,-2.8216,-2.9042,-2.9983,-3.0754,-3.1064,-3.1342,-3.1686,-3.19,-3.2187,-3.2592,-3.3267,-3.3868,-3.4325,-3.4408,-3.4336,-3.4054,-3.5032,-3.5069,-3.4196,-3.4746,-3.4816,-3.4497,-3.44,-3.4551,-3.4899,-3.4899,-3.4684,-3.4319,-3.3938,-3.3143,-3.2083,-3.1333,-3.082,-3.0506,-3.0506,-3.0506,-3.0506,-3.0506,-3.0506,-3.0506,-3.0506,-3.0506,-3.0506,-3.0506,-3.0506,-3.0506,-3.0506,-3.0224,-2.9777,-2.9085,-2.8376,-2.7663,-2.6934,-2.6468,-2.6202,-2.6202,-2.6202,-2.6202,-2.6202,-2.6202,-2.6202,-2.6202,-2.6202,-2.6202,-2.6202,-2.6202,-2.6202,-2.6202,-2.6202,-2.6202,-2.6202,-2.6202,-2.6053,-2.5672,-2.5308,-2.511,-2.511,-2.511,-2.5224,-2.5483,-2.5755,-2.568,-2.5214,-2.5274,-2.5026,-2.4506,-2.4673,-2.4564,-2.425,-2.4393,-2.4206,0.0,0.0,0.0,0.0,0.0,0.0,0.0,0.0,-1.9732,-2.0475,-2.2038,-2.3517,-2.4429,-2.5786,-2.6938,-2.7523,-2.8338,-2.8947,-2.9123,-2.9702,-2.9913,-2.9404,-2.997,-3.0983,-3.2425,-3.1717,-3.1753,-3.3221,-3.2695,-3.2774,-3.3775,-3.4802,-3.557,-3.5938,-3.6069,-3.6026,-3.5848,-3.6567,-3.6301,-3.5075,-3.5774,-3.5572,-3.4594,-3.4804,-3.4899,-3.4899,-3.4899,-3.4899,-3.4833,-3.4087,-3.3442,-3.2812,-3.1929,-3.1234,-3.0688,-3.0555,-3.0588,-3.0688,-3.0555,-3.0506,-3.0506,-3.0506,-3.0506,-3.0506,-3.0506,-3.0506,-3.0506,-3.0506,-3.0506,-3.0323,-2.9579,-2.9003,-2.8409,-2.768,-2.6949,-2.6419,-2.6419,-2.6301,-2.6235,-2.6402,-2.6303,-2.6253,-2.6402,-2.6285,-2.6202,-2.6202,-2.6202,-2.6202,-2.6202,-2.6202,-2.6202,-2.6202,-2.6202,-2.6202,-2.6202,-2.5673,-2.5556,-2.6152,-2.5639,-2.5556,-2.6133,-2.5989,-2.5881,-2.5844,-2.5486,-2.5294,-2.5294,-2.5227,-2.5051,-2.4818,-2.5492,-2.5549,-1.7503,-1.803,-1.8684,-1.9241,-1.9241,-1.975,0.0,0.0,-2.2036,-2.3347,-2.4457,-2.524,-2.5343,-2.6437,-2.754,-2.8255,-2.8669,-2.9158,-2.9878,-3.0053,-3.0317,-3.0878,-3.195,-3.2584,-3.2432,-3.3076,-3.3575,-3.3719,-3.3394,-3.4105,-3.6287,-3.6627,-3.7328,-3.8529,-3.8212,-3.7817,-3.7459,-3.7681,-3.7309,-3.6391,-3.6495,-3.5959,-3.4851,-3.4899,-3.4899,-3.4899,-3.4899,-3.4899,-3.4833,-3.4087,-3.374,-3.3524,-3.2128,-3.1548,-3.1399,-3.0737,-3.0903,-3.1383,-3.0721,-3.0506,-3.0506,-3.0506,-3.0506,-3.0506,-3.0506,-3.0506,-3.0506,-3.0506,-3.0506,-3.0323,-2.9579,-2.933,-2.9118,-2.8442,-2.7713,-2.7182,-2.7182,-2.6651,-2.6402,-2.705,-2.6651,-2.6419,-2.7066,-2.6634,-2.6202,-2.6202,-2.6202,-2.6202,-2.6202,-2.6202,-2.6202,-2.6202,-2.6202,-2.6202,-2.6202,-2.6119,-2.6103,-2.6185,-2.6119,-2.6031,-2.5952,-2.5899,-2.5807,-2.5642,-2.5413,-2.5294,-2.5294,-2.5699,-2.5877,-2.5852,-2.6577,-2.6375,-1.9846,-2.004,0.0,0.0,-2.1234,-2.1554,-2.3028,-2.3296,-2.3498,-2.4481,-2.558,-2.6366,-2.6366,-2.7037,-2.7829,0.0,-2.9218,-2.9878,-3.0633,-3.1142,-3.1388,-3.1212,-3.2861,-3.371,-3.3053,-3.2736,-3.3043,-3.4179,-3.4086,-3.4798,-3.6655,-3.7595,-3.8212,-3.8404,-3.8675,-3.8416,-3.7584,-3.8353,-3.8144,-3.7015,-3.736,-3.7058,-3.6174,-3.5744,-3.5313,-3.4899,-3.4899,-3.4899,-3.4866,-3.4568,-3.4187,-3.3723,-3.3127,-3.263,-3.21,-3.0919,-3.0688,-3.0919,-3.0605,-3.0506,-3.0506,-3.0506,-3.0506,-3.0506,-3.0506,-3.0506,-3.0506,-3.0506,-3.0506,-3.0423,-3.0125,-2.9711,-2.9314,-2.9052,-2.8459,-2.7945,-2.7945,-2.7713,-2.7561,-2.7879,-2.7696,-2.758,-2.7895,-2.768,-2.7479,-2.7479,-2.675,-2.6202,-2.6202,-2.6202,-2.6202,-2.6202,-2.6202,-2.6202,-2.6202,-2.6202,-2.6202,-2.6202,-2.6202,-2.615,-2.6078,-2.5952,-2.5862,-2.577,-2.6005,-2.604,-2.5883,-2.6509,-2.6756,-2.6672,-2.7367,-2.7444,-2.1146,0.0,0.0,-2.2205,-2.2509,-2.2801,-2.3468,-2.3734,-2.4114,-2.5194,-2.6034,-2.6669,-2.6955,-2.7338,0.0,-2.9055,-2.972,-3.044,-3.1388,-3.1844,-3.1932,-3.1563,-3.302,-3.3792,-3.3123,-3.2652,-3.3119,-3.4921,-3.4648,-3.5155,-3.6859,-3.7908,-3.8408,-3.8294,-3.8688,-3.8657,-3.8177,-3.8821,-3.8714,-3.785,-3.8074,-3.7866,-3.7245,-3.639,-3.5595,-3.4899,-3.4899,-3.4899,-3.4899,-3.4899,-3.4584,-3.4071,-3.3872,-3.3458,-3.2812,-3.1355,-3.0803,-3.077,-3.0572,-3.0506,-3.0506,-3.0506,-3.0506,-3.0506,-3.0506,-3.0506,-3.0506,-3.0506,-3.0506,-3.0506,-3.0506,-3.0092,-2.9694,-2.9694,-2.9185,-2.8691,-2.8691,-2.8525,-2.8459,-2.8641,-2.8525,-2.8459,-2.8641,-2.8525,-2.8392,-2.8392,-2.7479,-2.6733,-2.6535,-2.6336,-2.6202,-2.6202,-2.6202,-2.6202,-2.6202,-2.6202,-2.6285,-2.6501,-2.6501,-2.6564,-2.6708,-2.6578,-2.6468,-2.643,-2.6727,-2.6804,-2.6602,-2.7285,-2.7508,-2.7383,-2.8063,-2.8379,0.0,0.0,-2.2205,-2.199,-2.2312,-2.2956,-2.395,-2.3624,-2.371,-2.574,-2.5831,-2.583,-2.682,-2.7214,-2.7985,-2.976,-3.0088,-3.0633,-3.2142,-3.1703,-3.151,-3.2265,-3.2423,-3.2424,0.0,-3.3502,-3.4844,-3.6146,-3.4985,-3.52,-3.7447,-3.7425,-3.7883,-3.9033,-3.8463,-3.8676,-3.9807,-3.9158,-3.8956,-3.9232,-3.8547,-3.8019,-3.7653,-3.652,-3.5595,-3.4899,-3.4899,-3.4899,-3.4899,-3.4899,-3.4883,-3.48,-3.4071,-3.3773,-3.3574,-3.2111,-3.1565,-3.1466,-3.0754,-3.0506,-3.0506,-3.0506,-3.0506,-3.0506,-3.0506,-3.0506,-3.0506,-3.0506,-3.0506,-3.0506,-3.0506,-3.0472,-3.0472,-3.0472,-2.9893,-2.9363,-2.9363,-2.8853,-2.8591,-2.9251,-2.8837,-2.8608,-2.9268,-2.882,-2.8392,-2.8392,-2.8359,-2.8078,-2.7348,-2.6634,-2.6202,-2.6202,-2.6202,-2.6202,-2.6202,-2.6202,-2.6518,-2.7216,-2.7265,-2.7505,-2.8017,-2.803,-2.7934,-2.7753,-2.7492,-2.7368,-2.7368,-2.7846,-2.8085,-2.8079,-2.8751,-2.9082,0.0,0.0,-2.1814,-2.2042,-2.217,-2.2439,-2.3225,-2.3181,-2.3302,-2.4514,-2.4745,-2.4901,-2.5388,-2.6128,-2.7237,-2.9022,-2.9755,-3.065,-3.2177,-3.2599,-3.2634,-3.2423,-3.3301,0.0,0.0,0.0,0.0,-3.5003,-3.4998,-3.559,-3.6936,-3.7016,-3.7473,-3.841,-3.8518,-3.89,-3.9629,-3.98,-3.9817,-3.9755,-3.9471,-3.8613,-3.7286,-3.6887,-3.6059,-3.4899,-3.4899,-3.4899,-3.4899,-3.4899,-3.4899,-3.4866,-3.4618,-3.422,-3.3673,-3.268,-3.2034,-3.1499,-3.0754,-3.0506,-3.0506,-3.0506,-3.0506,-3.0506,-3.0506,-3.0506,-3.0506,-3.0506,-3.0506,-3.0506,-3.0506,-3.0506,-3.0506,-3.0506,-3.0307,-3.0125,-3.0125,-2.9943,-2.9864,-3.0075,-2.9943,-2.9864,-3.0092,-2.9947,-2.9632,-2.9135,-2.8276,-2.758,-2.7315,-2.6651,-2.6202,-2.6202,-2.6202,-2.6402,-2.6901,-2.6934,-2.7249,-2.7978,-2.8028,-2.8105,-2.8295,-2.8312,-2.8256,-2.8198,-2.8562,-2.867,-2.8526,-2.9172,-2.9317,-2.9045,-2.9262,-2.9282,-2.2277,-2.231,-2.2087,-2.255,-2.2791,-2.3007,-2.3312,-2.3151,-2.3137,-2.3851,-2.393,-2.4033,-2.459,-2.5261,-2.642,-2.8551,-2.9334,-3.0404,-3.2511,-3.2967,-3.3125,-3.3213,-3.4091,0.0,0.0,0.0,0.0,-3.4666,-3.5159,-3.5945,-3.6925,-3.7081,-3.7653,-3.8723,-3.8904,-3.9306,-4.0027,-4.0285,-4.0182,-3.9755,-3.9697,-3.8714,-3.6887,-3.6754,-3.6059,-3.4899,-3.4899,-3.4899,-3.4899,-3.4899,-3.4899,-3.4899,-3.4899,-3.4601,-3.4054,-3.3083,-3.2398,-3.1846,-3.0837,-3.0506,-3.0506,-3.0506,-3.0506,-3.0506,-3.0506,-3.0506,-3.0506,-3.0506,-3.0506,-3.0506,-3.0506,-3.0506,-3.0506,-3.0506,-3.0506,-3.0506,-3.0506,-3.0506,-3.0506,-3.0506,-3.0506,-3.0506,-3.0506,-3.0506,-3.034,-2.986,-2.8804,-2.7961,-2.7713,-2.7282,-2.6982,-2.6982,-2.6982,-2.7181,-2.7647,-2.768,-2.7995,-2.8704,-2.8754,-2.887,-2.9135,-2.9135,-2.9135,-2.9135,-2.9501,-2.963,-2.9484,-2.9858,-2.987,-2.9493,-2.9493,-2.9501,-2.1854,-2.2327,-2.2937,-2.338,-2.403,-2.4471,-2.4111,-2.3498,-2.3167,-2.3768,-2.3321,-2.3179,0.0,0.0,-2.5601,-2.8345,-2.8877,-3.0036,-3.3073,-3.2932,-3.309,0.0,0.0,0.0,0.0,0.0,0.0,-3.5225,0.0,-3.6342,-3.7521,-3.7663,-3.8382,-3.9886,-3.9525,-3.9886,-4.1024,-4.0659,-4.0099,-3.9385,-3.9354,-3.8363,-3.6552,-3.6187,-3.5619,-3.4899,-3.4899,-3.4899,-3.4899,-3.4899,-3.4899,-3.4899,-3.4899,-3.4899,-3.4717,-3.3299,-3.2735,-3.2481,-3.1035,-3.0522,-3.0506,-3.0506,-3.0506,-3.0506,-3.0506,-3.0506,-3.0506,-3.0506,-3.0506,-3.0506,-3.0506,-3.0506,-3.0506,-3.0506,-3.0506,-3.0506,-3.0506,-3.0506,-3.0506,-3.0506,-3.0506,-3.0506,-3.0506,-3.0506,-3.0506,-3.0506,-2.9893,-2.9218,-2.8542,-2.8426,-2.8392,-2.8392,-2.8392,-2.8409,-2.8442,-2.8459,-2.8738,-2.9397,-2.9446,-2.9761,-3.0472,-3.0506,-3.0506,-3.0506,-3.0316,-3.021,-3.021,-2.9962,-2.9722,-2.9538,-2.9547,-2.9811,-2.2242,-2.2778,-2.318,-2.3203,-2.3718,-2.4058,-2.343,-2.3101,-2.2822,-2.2442,-2.221,-2.2111,-2.215,0.0,0.0,-2.6927,-2.8649,0.0,-3.316,-3.3863,0.0,-3.6234,0.0,-3.5969,-3.7128,-3.7055,0.0,0.0,-3.7227,-3.7825,-3.8786,-3.886,-3.9318,-4.0316,-3.9966,-4.029,-4.1431,-4.1363,-4.1036,-4.0567,-3.9997,-3.8922,-3.7367,-3.6676,-3.5826,-3.4899,-3.4899,-3.4899,-3.4899,-3.4899,-3.4899,-3.4899,-3.4899,-3.4899,-3.4783,-3.3856,-3.3183,-3.2564,-3.1631,-3.0952,-3.0506,-3.0506,-3.0506,-3.0506,-3.0506,-3.0506,-3.0506,-3.0506,-3.0506,-3.0506,-3.0506,-3.0506,-3.0506,-3.0506,-3.0506,-3.0506,-3.0506,-3.0506,-3.0506,-3.0506,-3.0506,-3.0506,-3.0506,-3.0506,-3.0506,-3.0506,-3.034,-2.9959,-2.9251,-2.8704,-2.8392,-2.8392,-2.8392,-2.8608,-2.9102,-2.9152,-2.945,-3.0174,-3.0208,-3.0307,-3.0489,-3.0506,-3.0506,-3.0506,-3.0464,-3.0422,-3.0422,-3.0363,-3.0215,-3.0033,-3.037,-3.0505,-2.2953,-2.3505,-2.3951,-2.424,-2.452,-2.451,-2.3773,-2.2998,-2.221,-2.1481,-2.1052,0.0,-2.0824,0.0,0.0,0.0,0.0,0.0,-3.3143,-3.4196,-3.539,0.0,-3.7093,0.0,-3.8494,-3.8251,-3.826,0.0,-3.8685,-3.8863,-3.953,-3.9729,-4.0182,-4.0955,-4.0757,-4.0949,-4.1604,-4.1098,-4.0655,-4.0239,-3.9324,-3.8296,-3.7155,-3.6354,-3.5696,-3.5118,0.0,-3.4899,-3.4899,-3.4899,-3.4899,-3.4899,-3.4899,-3.4899,-3.48,-3.4054,-3.3348,-3.258,-3.1846,-3.1118,-3.0506,-3.0506,-3.0506,-3.0506,-3.0506,-3.0506,-3.0506,-3.0506,-3.0506,-3.0506,-3.0506,-3.0506,-3.0506,-3.0506,-3.0506,-3.0506,-3.0506,-3.0506,-3.0506,-3.0506,-3.0506,-3.0506,-3.0506,-3.0506,-3.0506,-3.0506,-3.0506,-3.034,-2.9926,-2.9549,-2.9317,-2.9317,-2.9317,-2.9466,-2.9843,-2.9877,-3.0059,-3.0472,-3.0506,-3.0506,-3.0506,-3.0506,-3.0506,-3.0506,-3.0506,-3.0506,-3.0506,-3.0506,-3.0401,-3.0205,-3.081,-3.1112,-2.3578,-2.4179,-2.4812,-2.5555,-2.5621,-2.531,-2.4568,-2.3041,-2.1597,-2.0851,0.0,-1.9684,-1.9999,-2.1392,-2.3095,-2.4962,0.0,-2.9825,-3.2915,-3.4038,-3.5425,-3.783,-3.8111,-3.8515,-3.9494,-3.9533,-3.9796,-4.059,-3.9901,-3.9651,-4.0098,-4.0451,-4.092,-4.1503,-4.1582,-4.1507,-4.1296,-4.0381,-3.969,-3.9203,-3.8129,-3.7269,-3.662,-3.5883,-3.5492,-3.5379,0.0,0.0,-3.4899,-3.4899,-3.4899,-3.4899,-3.4899,-3.4899,-3.4816,-3.417,-3.3475,-3.2752,-3.2017,-3.1267,-3.0621,-3.0522,-3.0506,-3.0506,-3.0506,-3.0506,-3.0506,-3.0506,-3.0506,-3.0506,-3.0506,-3.0506,-3.0506,-3.0506,-3.0506,-3.0506,-3.0506,-3.0506,-3.0506,-3.0506,-3.0506,-3.0506,-3.0506,-3.0506,-3.0506,-3.0506,-3.0506,-3.0506,-3.0506,-3.0506,-3.0506,-3.0506,-3.0506,-3.0506,-3.0506,-3.0506,-3.0506,-3.0506,-3.0506,-3.0506,-3.0506,-3.0506,-3.0506,-3.0506,-3.0506,-3.0506,-3.0506,-3.0506,-3.0422,-3.0264,-3.1063,-3.1648,-2.2972,-2.3857,-2.4795,-2.4887,-2.5215,-2.531,-2.4568,-2.3041,0.0,0.0,0.0,-1.9534,-1.9323,-2.1049,0.0,-2.4274,0.0,0.0,0.0,0.0,-3.4792,0.0,0.0,0.0,0.0,0.0,0.0,0.0,0.0,0.0,-4.127,-4.1389,-4.1331,-4.1117,-4.1431,-4.0986,-3.9714,-3.9842,-3.9544,-3.8886,-3.8022,-3.7529,-3.7373,-3.6636,-3.598,-3.5402,0.0,0.0,-3.4899,-3.4899,-3.4899,-3.4899,-3.4899,-3.4899,-3.4883,-3.475,-3.4237,-3.3491,-3.2785,-3.2034,-3.1317,-3.0704,-3.0506,-3.0506,-3.0506,-3.0506,-3.0506,-3.0506,-3.0506,-3.0506,-3.0506,-3.0506,-3.0506,-3.0506,-3.0506,-3.0506,-3.0506,-3.0506,-3.0506,-3.0506,-3.0506,-3.0506,-3.0506,-3.0506,-3.0506,-3.0506,-3.0506,-3.0506,-3.0506,-3.0506,-3.0506,-3.0506,-3.0506,-3.0506,-3.0506,-3.0506,-3.0506,-3.0506,-3.0506,-3.0506,-3.0506,-3.0506,-3.0506,-3.0506,-3.0506,-3.0506,-3.0506,-3.0506,-3.0468,-3.0476,-3.1605,-3.2181,-2.3613,-2.4401,-2.5079,-2.4936,-2.5022,-2.4822,-2.367,0.0,0.0,0.0,0.0,-1.8473,-1.8403,0.0,0.0,0.0,0.0,0.0,0.0,0.0,0.0,0.0,0.0,0.0,0.0,0.0,0.0,0.0,0.0,0.0,0.0,-4.0639,-4.0307,-4.0132,-4.0092,-3.9834,-3.9314,-3.8698,-3.8318,-3.8153,-3.7185,-3.6822,-3.7026,-3.6456,-3.6114,-3.5958,0.0,0.0,-3.5142,-3.4954,-3.4899,-3.4899,-3.4899,-3.4899,-3.4899,-3.4899,-3.4419,-3.3673,-3.2967,-3.2216,-3.1482,-3.0737,-3.0506,-3.0506,-3.0506,-3.0506,-3.0506,-3.0506,-3.0506,-3.0506,-3.0506,-3.0506,-3.0506,-3.0506,-3.0506,-3.0506,-3.0506,-3.0506,-3.0506,-3.0506,-3.0506,-3.0506,-3.0506,-3.0506,-3.0506,-3.0506,-3.0506,-3.0506,-3.0506,-3.0506,-3.0506,-3.0506,-3.0506,-3.0506,-3.0506,-3.0506,-3.0506,-3.0506,-3.0506,-3.0506,-3.0506,-3.0506,-3.0506,-3.0506,-3.0506,-3.0506,-3.0506,-3.0506,-3.0506,-3.0539,-3.1869,-3.25,-2.4129,-2.4751,-2.5102,-2.491,-2.4726,-2.4224,-2.2777,-2.1002,0.0,0.0,-1.8081,-1.7545,-1.7681,0.0,0.0,0.0,0.0,0.0,0.0,0.0,0.0,0.0,0.0,0.0,0.0,0.0,0.0,0.0,0.0,0.0,0.0,-3.9638,-3.9284,-3.9284,-3.8994,-3.8864,-3.8937,-3.7719,-3.7209,-3.7355,-3.6371,-3.6118,-3.6502,-3.6178,-3.6139,-3.6343,0.0,0.0,0.0,-3.5118,-3.4954,-3.4899,-3.4899,-3.4899,-3.4899,-3.4899,-3.4535,-3.3905,-3.3017,-3.2315,-3.1681,-3.0787,-3.0506,-3.0506,-3.0506,-3.0506,-3.0506,-3.0506,-3.0506,-3.0506,-3.0506,-3.0506,-3.0506,-3.0506,-3.0506,-3.0506,-3.0506,-3.0506,-3.0506,-3.0506,-3.0506,-3.0506,-3.0506,-3.0506,-3.0506,-3.0506,-3.0506,-3.0506,-3.0506,-3.0506,-3.0506,-3.0506,-3.0506,-3.0506,-3.0506,-3.0506,-3.0506,-3.0506,-3.0506,-3.0506,-3.0506,-3.0506,-3.0506,-3.0506,-3.0506,-3.0506,-3.0506,-3.0506,-3.0506,-3.0539,-3.2,-3.2702,-2.3507,-2.3985,-2.434,-2.4093,-2.3994,-2.366,-2.2513,0.0,0.0,-1.8718,-1.7984,-1.7545,-1.7681,-1.8529,0.0,0.0,0.0,0.0,0.0,0.0,0.0,0.0,0.0,0.0,0.0,0.0,0.0,0.0,0.0,0.0,0.0,-3.9336,-3.9284,-3.9284,-3.9263,-3.8786,-3.7783,-3.7611,-3.7226,-3.6606,-3.6131,-3.6118,-3.6502,-3.6444,-3.628,-3.5972,0.0,0.0,0.0,-3.5379,-3.5171,-3.4899,-3.4899,-3.4899,-3.4899,-3.4899,-3.4849,-3.4601,-3.3199,-3.2669,-3.2365,-3.0952,-3.0506,-3.0506,-3.0506,-3.0506,-3.0506,-3.0506,-3.0506,-3.0506,-3.0506,-3.0506,-3.0506,-3.0506,-3.0506,-3.0506,-3.0506,-3.0506,-3.0506,-3.0506,-3.0506,-3.0506,-3.0506,-3.0506,-3.0506,-3.0506,-3.0506,-3.0506,-3.0506,-3.0506,-3.0506,-3.0506,-3.0506,-3.0506,-3.0506,-3.0506,-3.0506,-3.0506,-3.0506,-3.0506,-3.0506,-3.0506,-3.0506,-3.0506,-3.0506,-3.0506,-3.0506,-3.0506,-3.0506,-3.0539,-3.2,-3.2702,-2.3129,-2.3818,-2.4237,-2.3432,-2.348,-2.3241,-2.1407,0.0,-1.9427,-1.8262,-1.774,-1.751,-1.7564,-1.7951,-1.8824,0.0,-2.1501,-2.33,0.0,0.0,0.0,0.0,0.0,0.0,0.0,0.0,0.0,0.0,0.0,0.0,0.0,0.0,-3.7918,-3.7918,-3.7918,-3.7699,-3.7228,-3.7043,-3.678,-3.6502,-3.6097,-3.6118,-3.6502,-3.6259,-3.6178,0.0,0.0,0.0,0.0,-3.5476,-3.531,-3.5138,-3.4496,-3.4237,-3.4237,-3.4237,-3.3955,-3.3497,-3.2917,-3.2398,-3.1863,-3.0837,-3.0506,-3.0572,-3.1035,-3.0853,-3.0588,-3.1035,-3.0837,-3.0506,-3.0506,-3.0506,-3.0506,-3.0506,-3.0506,-3.0506,-3.0506,-3.0506,-3.0506,-3.0506,-3.0506,-3.0506,-3.0506,-3.0506,-3.0506,-3.0506,-3.0506,-3.0506,-3.0506,-3.0506,-3.0506,-3.0506,-3.0506,-3.0506,-3.0506,-3.0506,-3.0506,-3.0506,-3.0506,-3.0506,-3.0506,-3.0506,-3.0506,-3.0506,-3.0506,-3.0506,-3.0506,-3.0506,-3.0737,-3.1184,-3.2216,-3.295,-2.294,-2.3647,-2.3917,-2.2955,-2.3078,-2.2882,0.0,0.0,-1.9403,-1.799,-1.7582,-1.7503,-1.7503,-1.7606,-1.8268,0.0,-2.0602,-2.2188,-2.6058,0.0,0.0,0.0,0.0,0.0,0.0,0.0,0.0,0.0,0.0,0.0,0.0,0.0,-3.7007,-3.7007,-3.7007,-3.7007,-3.7007,-3.6768,-3.6647,-3.6629,-3.6262,-3.622,-3.6502,-3.6199,-3.6178,0.0,0.0,0.0,0.0,-3.5484,-3.52,-3.4856,-3.4195,-3.3748,-3.3514,-3.3769,-3.3371,-3.2669,-3.2492,-3.2072,-3.1482,-3.0737,-3.0506,-3.0638,-3.1383,-3.1085,-3.0605,-3.1135,-3.0903,-3.0506,-3.0506,-3.0506,-3.0506,-3.0506,-3.0506,-3.0506,-3.0506,-3.0506,-3.0506,-3.0506,-3.0506,-3.0506,-3.0506,-3.0506,-3.0506,-3.0506,-3.0506,-3.0506,-3.0506,-3.0506,-3.0506,-3.0506,-3.0506,-3.0506,-3.0506,-3.0506,-3.0506,-3.0506,-3.0506,-3.0506,-3.0506,-3.0506,-3.0506,-3.0506,-3.0506,-3.0506,-3.0506,-3.0506,-3.0886,-3.1615,-3.2348,-3.3193,-2.3005,-2.3318,-2.318,-2.2632,-2.2803,-2.2539,0.0,-2.0119,-1.9798,-1.8064,-1.7582,-1.7503,-1.7503,-1.7606,-1.8268,-2.0023,-2.1081,-2.2845,-2.6146,0.0,0.0,0.0,0.0,0.0,0.0,0.0,0.0,0.0,0.0,0.0,0.0,0.0,-3.7007,-3.7007,-3.7007,-3.7007,-3.7007,-3.7007,-3.6989,-3.6987,-3.665,-3.6502,-3.6502,-3.6502,0.0,0.0,0.0,0.0,0.0,-3.5328,-3.4708,-3.3852,-3.4169,-3.3634,-3.2818,-3.3671,-3.3449,-3.2602,-3.2014,-3.1722,-3.1482,-3.0737,-3.0506,-3.0638,-3.1383,-3.1085,-3.0506,-3.0506,-3.0506,-3.0506,-3.0506,-3.0506,-3.0506,-3.0506,-3.0506,-3.0506,-3.0506,-3.0506,-3.0506,-3.0506,-3.0506,-3.0506,-3.0506,-3.0506,-3.0506,-3.0506,-3.0506,-3.0506,-3.0506,-3.0506,-3.0506,-3.0506,-3.0506,-3.0506,-3.0506,-3.0506,-3.0506,-3.0506,-3.0506,-3.0506,-3.0506,-3.0506,-3.0506,-3.0506,-3.0506,-3.0506,-3.0506,-3.0506,-3.0886,-3.1615,-3.2348,-3.3497,-2.1056,-2.1814,-2.223,-2.1522,-2.1706,-2.164,-1.9946,-1.9898,-1.9745,-1.8047,-1.767,-1.7606,-1.751,-1.7517,-1.8329,-2.0665,-2.1296,0.0,0.0,0.0,0.0,0.0,0.0,0.0,0.0,0.0,0.0,0.0,0.0,0.0,0.0,0.0,0.0,-3.7007,-3.7007,-3.7007,-3.7007,-3.7007,-3.7007,-3.7007,-3.6888,-3.6849,-3.6831,0.0,0.0,0.0,0.0,0.0,0.0,-3.5206,-3.4972,-3.4739,-3.3183,-3.2679,-3.2829,-3.2672,-3.2067,-3.1382,-3.1686,-3.1373,-3.0803,-3.0572,-3.0506,-3.0539,-3.0787,-3.0688,-3.0506,-3.0506,-3.0506,-3.0506,-3.0506,-3.0506,-3.0506,-3.0506,-3.0506,-3.0506,-3.0506,-3.0506,-3.0506,-3.0506,-3.0506,-3.0506,-3.0506,-3.0506,-3.0506,-3.0506,-3.0506,-3.0506,-3.0506,-3.0506,-3.0506,-3.0506,-3.0506,-3.0506,-3.0506,-3.0506,-3.0506,-3.0506,-3.0506,-3.0506,-3.0506,-3.0506,-3.0506,-3.0506,-3.0506,-3.0506,-3.0506,-3.0506,-3.1156,-3.2381,-3.3624,-3.4452,0.0,-2.0801,-2.1473,-2.084,-2.0999,-2.0958,-1.9652,-1.9648,-1.9498,-1.8104,-1.7743,-1.7664,-1.7582,-1.7576,-1.8313,-2.0584,-2.1004,0.0,0.0,0.0,0.0,0.0,0.0,0.0,0.0,0.0,0.0,0.0,0.0,0.0,0.0,0.0,0.0,-3.7007,-3.7007,-3.7007,-3.7007,-3.7007,-3.7007,-3.7007,-3.7007,-3.7007,-3.6989,0.0,0.0,0.0,0.0,0.0,0.0,-3.4995,-3.4652,-3.4492,-3.2962,-3.2285,-3.2143,-3.2064,-3.1508,-3.084,-3.1287,-3.1075,-3.0568,-3.0526,-3.0506,-3.0506,-3.0506,-3.0506,-3.0506,-3.0506,-3.0506,-3.0506,-3.0506,-3.0506,-3.0506,-3.0506,-3.0506,-3.0506,-3.0506,-3.0506,-3.0506,-3.0506,-3.0506,-3.0506,-3.0506,-3.0506,-3.0506,-3.0506,-3.0506,-3.0506,-3.0506,-3.0506,-3.0506,-3.0506,-3.0506,-3.0506,-3.0506,-3.0506,-3.0506,-3.0506,-3.0506,-3.0506,-3.0506,-3.0506,-3.0506,-3.0506,-3.0506,-3.0506,-3.0506,-3.1073,-3.1802,-3.2752,-3.4203,-3.4899,0.0,-1.9907,-2.064,-2.028,-2.0417,-2.0383,-1.938,-1.9288,0.0,-1.8191,-1.7856,-1.7726,-1.7777,-1.7771,-1.8346,-2.0106,0.0,0.0,0.0,0.0,0.0,0.0,0.0,0.0,0.0,0.0,0.0,0.0,0.0,0.0,0.0,0.0,0.0,0.0,-3.6919,-3.6937,-3.7007,-3.7007,-3.7007,-3.7007,-3.7007,-3.7007,-3.7007,0.0,0.0,0.0,0.0,0.0,0.0,-3.4685,-3.3957,-3.3465,-3.3339,-3.2336,-3.1063,-3.1782,-3.156,-3.0912,-3.0912,-3.0831,-3.0671,-3.0531,-3.0506,-3.0506,-3.0506,-3.0506,-3.0506,-3.0506,-3.0506,-3.0506,-3.0506,-3.0506,-3.0506,-3.0506,-3.0506,-3.0506,-3.0506,-3.0506,-3.0506,-3.0506,-3.0506,-3.0506,-3.0506,-3.0506,-3.0506,-3.0506,-3.0506,-3.0506,-3.0506,-3.0506,-3.0506,-3.0506,-3.0506,-3.0506,-3.0506,-3.0506,-3.0506,-3.0506,-3.0506,-3.0506,-3.0506,-3.0506,-3.0506,-3.0506,-3.0506,-3.0522,-3.0572,-3.2,-3.2735,-3.2818,-3.4237,-3.4899,-1.5428,0.0,-1.7889,-1.7349,-1.8122,-1.8808,0.0,-1.873,-1.9314,-1.8241,-1.7961,-1.8076,-1.8532,-1.8454,-1.9181,0.0,0.0,0.0,0.0,0.0,0.0,0.0,0.0,0.0,0.0,0.0,0.0,0.0,0.0,0.0,0.0,0.0,0.0,0.0,-3.6092,-3.6373,-3.6989,-3.7007,-3.7007,-3.7007,-3.7007,-3.7007,0.0,0.0,0.0,0.0,0.0,0.0,0.0,-3.4946,-3.4571,-3.4358,-3.3337,-3.2468,-3.1782,-3.1496,-3.1243,-3.0992,-3.0992,-3.0871,-3.0671,-3.0531,-3.0506,-3.0506,-3.0506,-3.0506,-3.0506,-3.0506,-3.0506,-3.0506,-3.0506,-3.0506,-3.0506,-3.0506,-3.0506,-3.0506,-3.0506,-3.0506,-3.0506,-3.0506,-3.0506,-3.0506,-3.0506,-3.0506,-3.0506,-3.0506,-3.0506,-3.0506,-3.0506,-3.0506,-3.0506,-3.0506,-3.0506,-3.0506,-3.0506,-3.0506,-3.0506,-3.0506,-3.0506,-3.0506,-3.0506,-3.0506,-3.0506,-3.0506,-3.0506,-3.0787,-3.135,-3.2249,-3.3,-3.3557,-3.4468,-3.4899,-1.3954,-1.5776,-1.7574,-1.7241,-1.8113,-1.8941,-1.8493,-1.8801,-1.892,-1.8155,0.0,0.0,0.0,0.0,0.0,0.0,0.0,0.0,0.0,0.0,0.0,0.0,0.0,0.0,0.0,0.0,0.0,0.0,0.0,0.0,0.0,0.0,0.0,0.0,0.0,-3.5671,-3.6443,-3.6831,-3.7007,-3.7007,-3.6638,-3.6443,0.0,0.0,0.0,0.0,0.0,0.0,-3.5345,-3.4534,-3.4247,-3.4204,-3.3334,-3.255,-3.1876,-3.1545,-3.1291,-3.1092,-3.1015,-3.0875,-3.0692,-3.0609,-3.0568,-3.0506,-3.0506,-3.0506,-3.0506,-3.0506,-3.0506,-3.0506,-3.0506,-3.0506,-3.0506,-3.0506,-3.0506,-3.0506,-3.0506,-3.0506,-3.0506,-3.0506,-3.0506,-3.0506,-3.0506,-3.0506,-3.0506,-3.0506,-3.0506,-3.0506,-3.0506,-3.0506,-3.0506,-3.0506,-3.0506,-3.0506,-3.0506,-3.0506,-3.0506,-3.0506,-3.0506,-3.0506,-3.0506,-3.0506,-3.0506,-3.0506,-3.0506,-3.0704,-3.1101,-3.1851,-3.2564,-3.3292,-3.4038,-3.4568,-1.3684,-1.5993,-1.8187,-1.788,-1.8755,-1.9661,-1.9507,0.0,0.0,0.0,0.0,0.0,0.0,-2.0038,0.0,0.0,0.0,0.0,0.0,0.0,0.0,0.0,0.0,0.0,0.0,0.0,0.0,0.0,0.0,0.0,0.0,0.0,0.0,0.0,0.0,0.0,-3.5424,-3.625,-3.6656,-3.6638,-3.5952,-3.5636,-3.5656,-3.5135,0.0,0.0,0.0,0.0,-3.499,-3.4038,-3.3704,-3.3721,-3.3424,-3.2664,-3.1695,-3.1695,-3.1487,-3.1171,-3.1052,-3.0895,-3.0733,-3.0712,-3.063,-3.0526,-3.0506,-3.0506,-3.0506,-3.0506,-3.0506,-3.0506,-3.0506,-3.0506,-3.0506,-3.0506,-3.0506,-3.0506,-3.0506,-3.0506,-3.0506,-3.0506,-3.0506,-3.0506,-3.0506,-3.0506,-3.0506,-3.0506,-3.0506,-3.0506,-3.0506,-3.0506,-3.0506,-3.0506,-3.0506,-3.0506,-3.0506,-3.0506,-3.0506,-3.0506,-3.0506,-3.0506,-3.0506,-3.0506,-3.0506,-3.0506,-3.0506,-3.0555,-3.0671,-3.13,-3.205,-3.2884,-3.3514,-3.4187,-1.489,-1.6675,-1.7717,-1.5958,-1.7615,-1.9479,-1.8631,-1.9345,0.0,0.0,0.0,0.0,0.0,0.0,0.0,0.0,0.0,0.0,0.0,0.0,0.0,0.0,0.0,0.0,0.0,0.0,0.0,0.0,0.0,0.0,0.0,0.0,0.0,0.0,0.0,0.0,0.0,-3.4653,-3.5057,-3.5057,-3.4916,-3.4938,-3.5048,-3.4942,-3.4623,0.0,0.0,0.0,-3.4449,-3.442,-3.4237,-3.3957,-3.3889,-3.2985,-3.1695,-3.1695,-3.1487,-3.1171,-3.1052,-3.0975,-3.0935,-3.0753,-3.0692,-3.0651,-3.0531,-3.0506,-3.0506,-3.0506,-3.0506,-3.0506,-3.0506,-3.0506,-3.0506,-3.0506,-3.0506,-3.0506,-3.0506,-3.0506,-3.0506,-3.0506,-3.0506,-3.0506,-3.0506,-3.0506,-3.0506,-3.0506,-3.0506,-3.0506,-3.0506,-3.0506,-3.0506,-3.0506,-3.0506,-3.0506,-3.0506,-3.0506,-3.0506,-3.0506,-3.0506,-3.0506,-3.0506,-3.0506,-3.0506,-3.0506,-3.0506,-3.0803,-3.1432,-3.1548,-3.2293,-3.3624,-3.374,-3.4187,-1.4217,-1.593,-1.7252,-1.6448,-1.8608,-2.0826,-2.037,-2.0469,0.0,0.0,0.0,0.0,0.0,0.0,0.0,0.0,0.0,0.0,0.0,0.0,0.0,0.0,0.0,0.0,0.0,0.0,0.0,0.0,0.0,0.0,0.0,0.0,0.0,0.0,0.0,0.0,0.0,-3.3266,-3.388,-3.4688,-3.4267,-3.4092,-3.4146,-3.3914,-3.3658,0.0,0.0,-3.3797,-3.3813,-3.3906,-3.3846,-3.3671,-3.3671,-3.3102,-3.2282,-3.2092,-3.1914,-3.1749,-3.1487,-3.1353,-3.1276,-3.0958,-3.0794,-3.0692,-3.063,-3.0568,-3.0506,-3.0506,-3.0506,-3.0506,-3.0506,-3.0506,-3.0506,-3.0506,-3.0506,-3.0506,-3.0506,-3.0506,-3.0506,-3.0506,-3.0506,-3.0506,-3.0506,-3.0506,-3.0506,-3.0506,-3.0506,-3.0506,-3.0506,-3.0506,-3.0506,-3.0506,-3.0506,-3.0506,-3.0506,-3.0506,-3.0506,-3.0506,-3.0506,-3.0506,-3.0506,-3.0506,-3.0506,-3.0506,-3.0506,-3.0671,-3.1002,-3.1002,-3.1747,-3.3216,-3.3216,-3.3806,-1.3888,-1.5445,-1.706,-1.7706,0.0,-2.1803,-2.2124,-2.1662,0.0,0.0,0.0,0.0,0.0,0.0,0.0,0.0,0.0,0.0,0.0,0.0,0.0,0.0,0.0,0.0,0.0,0.0,0.0,0.0,0.0,0.0,0.0,0.0,0.0,0.0,0.0,0.0,0.0,-3.2406,-3.2985,-3.4144,-3.3547,-3.3248,-3.3284,-3.2972,-3.2884,-3.2963,-3.3229,-3.3349,-3.3393,-3.3393,-3.3393,-3.3378,-3.3286,-3.2957,-3.2518,-3.2248,-3.2162,-3.2127,-3.1805,-3.1675,-3.1564,-3.1137,-3.0895,-3.0773,-3.0753,-3.0651,-3.0547,-3.0547,-3.051,-3.0506,-3.0506,-3.0506,-3.0506,-3.0506,-3.0506,-3.0506,-3.0506,-3.0506,-3.0506,-3.0506,-3.0506,-3.0506,-3.0506,-3.0506,-3.0506,-3.0506,-3.0506,-3.0506,-3.0506,-3.0506,-3.0506,-3.0506,-3.0506,-3.0506,-3.0506,-3.0506,-3.0506,-3.0506,-3.0506,-3.0506,-3.0506,-3.0506,-3.0506,-3.0506,-3.0506,-3.0506,-3.0506,-3.0506,-3.1272,-3.2702,-3.2702,-3.3497,-1.5205,-1.626,-1.7315,-1.908,-2.0216,-2.1207,-2.2451,-2.2508,0.0,-2.3868,0.0,0.0,0.0,0.0,0.0,0.0,0.0,0.0,0.0,0.0,0.0,0.0,0.0,0.0,0.0,0.0,0.0,0.0,0.0,0.0,0.0,0.0,0.0,0.0,0.0,0.0,0.0,-3.2406,-3.2458,-3.2564,-3.2511,-3.2527,-3.266,-3.2623,-3.2802,-3.3086,-3.3101,-3.3226,-3.3393,-3.3393,-3.3393,-3.3364,-3.2988,-3.2418,-3.1787,-3.175,-3.1732,-3.1732,-3.1714,-3.1712,-3.162,-3.1157,-3.0995,-3.0955,-3.0895,-3.0794,-3.0692,-3.0692,-3.0589,-3.0506,-3.0506,-3.0506,-3.0506,-3.0506,-3.0506,-3.0506,-3.0506,-3.0506,-3.0506,-3.0506,-3.0506,-3.0506,-3.0506,-3.0506,-3.0506,-3.0506,-3.0506,-3.0506,-3.0506,-3.0506,-3.0506,-3.0506,-3.0506,-3.0506,-3.0506,-3.0506,-3.0506,-3.0506,-3.0506,-3.0506,-3.0506,-3.0506,-3.0506,-3.0506,-3.0506,-3.0506,-3.0506,-3.0506,-3.1272,-3.2702,-3.2702,-3.3497,-1.4178,-1.5589,-1.7151,-1.8506,-1.9633,0.0,0.0,-2.3057,-2.3553,-2.436,-2.4412,0.0,0.0,0.0,0.0,0.0,0.0,0.0,0.0,0.0,0.0,0.0,0.0,0.0,0.0,0.0,0.0,0.0,0.0,0.0,0.0,0.0,0.0,0.0,0.0,0.0,0.0,0.0,-3.2406,-3.2406,-3.2406,-3.2422,-3.2473,-3.2556,-3.2672,-3.2802,-3.3008,-3.3132,-3.3226,-3.3349,-3.3393,-3.3364,-3.2972,-3.2502,-3.2056,-3.2056,-3.2214,-3.2351,-3.2144,-3.2056,-3.1986,-3.1565,-3.1237,-3.0995,-3.0955,-3.0912,-3.0814,-3.0814,-3.0733,-3.0609,-3.0526,-3.0506,-3.0506,-3.0506,-3.0506,-3.0506,-3.0506,-3.0506,-3.0506,-3.0506,-3.0506,-3.0506,-3.0506,-3.0506,-3.0506,-3.0506,-3.0506,-3.0506,-3.0506,-3.0506,-3.0506,-3.0506,-3.0506,-3.0506,-3.0506,-3.0506,-3.0506,-3.0506,-3.0506,-3.0506,-3.0506,-3.0506,-3.0506,-3.0506,-3.0506,-3.0506,-3.0506,-3.0506,-3.1019,-3.2034,-3.2034,-3.2812,-1.4108,-1.5566,-1.7288,-1.8289,0.0,0.0,-2.2439,-2.3285,-2.3976,-2.5024,-2.4687,0.0,0.0,0.0,0.0,0.0,0.0,0.0,0.0,0.0,0.0,0.0,0.0,0.0,0.0,0.0,0.0,0.0,0.0,0.0,0.0,0.0,0.0,0.0,0.0,0.0,0.0,0.0,-3.244,-3.2406,-3.244,-3.2456,-3.2456,-3.2574,-3.2672,-3.2768,-3.3008,-3.315,-3.3211,-3.3349,-3.3334,-3.3178,-3.2797,-3.2418,-3.2109,-3.2109,-3.2248,-3.2418,-3.2179,-3.2109,-3.2056,-3.1675,-3.1315,-3.1055,-3.1055,-3.0995,-3.0932,-3.0932,-3.0851,-3.0733,-3.0609,-3.0531,-3.0506,-3.0506,-3.0506,-3.0506,-3.0506,-3.0506,-3.0506,-3.0506,-3.0506,-3.0506,-3.0506,-3.0506,-3.0506,-3.0506,-3.0506,-3.0506,-3.0506,-3.0506,-3.0506,-3.0506,-3.0506,-3.0506,-3.0506,-3.0506,-3.0506,-3.0506,-3.0506,-3.0506,-3.0506,-3.0506,-3.0506,-3.0506,-3.0506,-3.0506,-3.0506,-3.0506,-3.0886,-3.1598,-3.1598,-3.226,-1.5486,-1.6529,-1.7831,0.0,0.0,0.0,-2.2725,-2.3214,-2.385,-2.6135,0.0,0.0,0.0,0.0,0.0,0.0,0.0,0.0,0.0,0.0,0.0,0.0,0.0,0.0,0.0,0.0,0.0,0.0,0.0,0.0,0.0,0.0,0.0,0.0,0.0,0.0,0.0,0.0,-3.2522,-3.2371,-3.2505,-3.257,-3.2588,-3.2588,-3.2768,-3.3101,-3.3101,-3.3211,-3.3411,-3.3393,-3.3144,-3.2745,-3.2418,-3.2039,-3.1695,-3.1695,-3.1712,-3.1695,-3.1695,-3.1695,-3.1657,-3.131,-3.121,-3.119,-3.119,-3.1112,-3.0995,-3.0995,-3.0955,-3.0871,-3.0733,-3.0609,-3.0506,-3.0506,-3.0506,-3.0506,-3.0506,-3.0506,-3.0506,-3.0506,-3.0506,-3.0506,-3.0506,-3.0506,-3.0506,-3.0506,-3.0506,-3.0506,-3.0506,-3.0506,-3.0506,-3.0506,-3.0506,-3.0506,-3.0506,-3.0506,-3.0506,-3.0506,-3.0506,-3.0506,-3.0506,-3.0506,-3.0506,-3.0506,-3.0506,-3.0506,-3.0506,-3.0506,-3.0886,-3.1598,-3.1598,-3.1962,-1.4874,-1.6506,0.0,-1.8841,0.0,0.0,0.0,-2.3968,0.0,0.0,0.0,0.0,0.0,0.0,0.0,0.0,0.0,0.0,0.0,0.0,0.0,0.0,0.0,0.0,0.0,0.0,0.0,0.0,0.0,0.0,0.0,0.0,0.0,0.0,0.0,0.0,0.0,0.0,-3.0871,-3.0917,-3.0947,-3.1245,-3.1758,-3.1758,-3.1888,-3.2125,-3.2214,-3.261,-3.3211,-3.3334,-3.2514,-3.1253,-3.1996,-3.1708,-3.0899,-3.1223,-3.1487,-3.1695,-3.1695,-3.1695,-3.1677,-3.1582,-3.1389,-3.119,-3.119,-3.1171,-3.1151,-3.1151,-3.1072,-3.0955,-3.0915,-3.0834,-3.0733,-3.0531,-3.0506,-3.0506,-3.0506,-3.0506,-3.0506,-3.0506,-3.0506,-3.0506,-3.0506,-3.0506,-3.0506,-3.0506,-3.0506,-3.0506,-3.0506,-3.0506,-3.0506,-3.0506,-3.0506,-3.0506,-3.0506,-3.0506,-3.0506,-3.0506,-3.0506,-3.0506,-3.0506,-3.0506,-3.0506,-3.0506,-3.0506,-3.0506,-3.0506,-3.0506,-3.0605,-3.0837,-3.0837,-3.1217,-1.5996,-1.7521,0.0,-1.9893,-2.07,-2.1776,-2.3393,0.0,0.0,0.0,0.0,0.0,0.0,0.0,0.0,0.0,0.0,0.0,0.0,0.0,0.0,0.0,0.0,0.0,0.0,0.0,0.0,0.0,0.0,0.0,0.0,0.0,0.0,0.0,0.0,0.0,0.0,0.0,0.0,-3.0215,-3.032,-3.0434,-3.0576,-3.094,-3.124,-3.144,-3.1524,-3.182,-3.227,-3.239,-3.1758,-3.0768,-3.1359,-3.1249,-3.075,-3.0871,-3.1155,-3.1506,-3.1506,-3.1506,-3.1506,-3.1506,-3.1351,-3.119,-3.119,-3.119,-3.119,-3.119,-3.1151,-3.1072,-3.1015,-3.0955,-3.0892,-3.0692,-3.0651,-3.0651,-3.0589,-3.0589,-3.0551,-3.051,-3.0506,-3.0506,-3.0506,-3.0506,-3.0506,-3.0506,-3.0506,-3.0506,-3.0506,-3.0506,-3.0506,-3.0506,-3.0506,-3.0506,-3.0506,-3.0506,-3.0506,-3.0506,-3.0506,-3.0506,-3.0506,-3.0506,-3.0506,-3.0506,-3.0506,-3.0506,-3.0506,-3.0506,-3.0506,-3.0506,-3.0506,-3.0737,-1.7959,0.0,0.0,-2.135,-2.1298,0.0,0.0,0.0,0.0,0.0,0.0,0.0,0.0,0.0,0.0,0.0,0.0,0.0,0.0,0.0,0.0,0.0,0.0,0.0,0.0,0.0,0.0,0.0,0.0,0.0,0.0,0.0,0.0,0.0,0.0,0.0,0.0,0.0,0.0,0.0,0.0,-2.9922,-2.9244,-3.0173,-3.0706,-3.0889,-3.098,-3.0962,-3.0908,-3.098,-3.0912,-3.0758,-3.0563,-3.0659,-3.0849,-3.0525,-3.0697,-3.1106,-3.1106,-3.114,-3.119,-3.119,-3.119,-3.119,-3.119,-3.119,-3.119,-3.119,-3.119,-3.1171,-3.1052,-3.1015,-3.0978,-3.0868,-3.0861,-3.0871,-3.0733,-3.0712,-3.0671,-3.0531,-3.0526,-3.051,-3.0506,-3.0506,-3.0506,-3.0506,-3.0506,-3.0506,-3.0506,-3.0506,-3.0506,-3.0506,-3.0506,-3.0506,-3.0506,-3.0506,-3.0506,-3.0506,-3.0506,-3.0506,-3.0506,-3.0506,-3.0506,-3.0506,-3.0506,-3.0506,-3.0506,-3.0506,-3.0506,-3.0506,-3.0506,-3.0506,0.0,-1.8203,0.0,0.0,0.0,0.0,0.0,0.0,0.0,0.0,0.0,0.0,0.0,0.0,0.0,0.0,0.0,0.0,0.0,0.0,0.0,0.0,0.0,0.0,0.0,0.0,0.0,0.0,0.0,0.0,0.0,0.0,0.0,0.0,0.0,0.0,-2.821,-2.8237,-2.8314,0.0,-2.8621,-2.8671,-2.8609,-2.9457,-2.9913,-3.0092,-3.0726,-3.0636,-3.011,-3.0745,-3.026,-2.9207,-3.0152,-3.0019,-2.9325,-2.954,-2.9945,-3.0345,-3.0345,-3.0717,-3.119,-3.119,-3.119,-3.119,-3.119,-3.119,-3.119,-3.119,-3.119,-3.119,-3.1171,-3.1151,-3.1016,-3.0422,-3.0592,-3.0892,-3.0871,-3.0871,-3.0831,-3.0671,-3.0651,-3.063,-3.0526,-3.0506,-3.0506,-3.0506,-3.0506,-3.0506,-3.0506,-3.0506,-3.0506,-3.0506,-3.0506,-3.0506,-3.0506,-3.0506,-3.0506,-3.0506,-3.0506,-3.0506,-3.0506,-3.0506,-3.0506,-3.0506,-3.0506,-3.0506,-3.0506,-3.0506,-3.0506,-3.0506,-3.0506,-3.0506,0.0,0.0,0.0,0.0,0.0,0.0,0.0,0.0,0.0,0.0,0.0,0.0,0.0,0.0,0.0,0.0,0.0,0.0,0.0,0.0,0.0,0.0,0.0,0.0,0.0,0.0,0.0,0.0,0.0,0.0,0.0,0.0,0.0,0.0,0.0,0.0,-2.7701,-2.7701,-2.7745,-2.7864,-2.8091,-2.8295,-2.8502,-2.8917,-2.9168,-2.9246,-2.9663,-2.9608,-2.9251,-2.9512,-2.9121,-2.8416,-2.8952,-2.9014,-2.8831,-2.9043,-2.973,-3.0555,-3.0374,-3.0796,-3.1408,-3.1249,-3.119,-3.119,-3.119,-3.119,-3.119,-3.119,-3.119,-3.1123,-3.0768,-3.0937,-3.1004,-3.0294,-3.0588,-3.0931,-3.0502,-3.07,-3.0932,-3.0831,-3.081,-3.0753,-3.063,-3.0547,-3.0526,-3.0589,-3.0547,-3.0506,-3.0506,-3.0506,-3.0506,-3.0506,-3.0506,-3.0506,-3.0506,-3.0506,-3.0506,-3.0506,-3.0506,-3.0506,-3.0506,-3.0506,-3.0506,-3.0506,-3.0506,-3.0506,-3.0506,-3.0506,-3.0506,-3.0506,-3.0506,-3.0506,0.0,0.0,-1.9184,0.0,0.0,0.0,0.0,0.0,0.0,0.0,0.0,0.0,0.0,0.0,0.0,0.0,0.0,0.0,0.0,0.0,0.0,0.0,0.0,0.0,0.0,0.0,0.0,0.0,0.0,0.0,0.0,0.0,0.0,0.0,0.0,-2.7789,-2.7789,-2.7789,-2.7789,-2.7789,-2.8091,-2.8349,-2.86,-2.86,-2.86,-2.86,-2.86,-2.86,-2.8574,-2.8313,-2.8143,-2.8075,-2.7855,-2.8085,-2.8524,-2.8524,-2.9416,-3.0556,-3.0179,-3.0657,-3.1432,-3.1123,-3.1089,-3.119,-3.119,-3.119,-3.1173,-3.1055,-3.1106,-3.1021,-3.0294,-3.0649,-3.1004,-3.0294,-3.0666,-3.0968,-3.0131,-3.0513,-3.0962,-3.0764,-3.0828,-3.0871,-3.0753,-3.0651,-3.0609,-3.0692,-3.0609,-3.0526,-3.0506,-3.0506,-3.0506,-3.0506,-3.0506,-3.0506,-3.0506,-3.0506,-3.0506,-3.0506,-3.0506,-3.0506,-3.0506,-3.0506,-3.0506,-3.0506,-3.0506,-3.0506,-3.0506,-3.0506,-3.0506,-3.0506,-3.0506,-3.0506,0.0,0.0,0.0,0.0,0.0,0.0,0.0,0.0,0.0,0.0,0.0,0.0,0.0,0.0,0.0,0.0,0.0,0.0,0.0,0.0,0.0,0.0,0.0,0.0,0.0,0.0,0.0,0.0,0.0,0.0,0.0,0.0,0.0,0.0,-2.8132,0.0,-2.8132,-2.8132,-2.8132,-2.8132,-2.83,-2.8445,-2.86,-2.86,-2.86,-2.86,-2.86,-2.86,-2.8587,-2.8562,-2.8352,-2.8102,-2.8061,-2.7792,-2.7398,-2.7398,-2.7951,-2.8627,-2.827,-2.9261,-3.0605,-3.034,-3.0683,-3.119,-3.119,-3.119,-3.1072,-3.0429,-3.0717,-3.1021,-3.0294,-3.0649,-3.1004,-3.0294,-3.0666,-3.0987,-3.0241,-3.0647,-3.0965,-3.0174,-3.0499,-3.0892,-3.0871,-3.0871,-3.0794,-3.0712,-3.0692,-3.063,-3.051,-3.0506,-3.0506,-3.0506,-3.0506,-3.0506,-3.0506,-3.0506,-3.0506,-3.0506,-3.0506,-3.0506,-3.0506,-3.0506,-3.0506,-3.0506,-3.0506,-3.0506,-3.0506,-3.0506,-3.0506,-3.0506,-3.0506,-3.0506,-1.6005,0.0,0.0,0.0,0.0,0.0,0.0,0.0,0.0,0.0,0.0,0.0,0.0,0.0,0.0,0.0,0.0,0.0,0.0,0.0,0.0,0.0,0.0,0.0,0.0,0.0,0.0,0.0,0.0,0.0,0.0,-2.709,-2.7322,-2.6876,-2.7741,0.0,-2.7518,-2.7973,-2.8246,-2.8313,-2.8367,-2.8471,-2.86,-2.86,-2.86,-2.86,-2.86,-2.86,-2.8587,-2.8409,-2.8228,-2.8088,-2.7922,-2.7811,-2.7678,-2.7535,-2.8067,-2.8792,-2.8267,-2.9162,-3.0521,-3.0187,-3.0328,-3.0581,-3.0581,-3.0581,-3.0531,-3.0192,-3.0632,-3.1021,-3.0294,-3.0345,-3.0395,-2.9651,-2.9738,-2.989,-2.955,-3.0057,-3.0461,-3.0085,-3.0527,-3.0992,-3.1052,-3.0972,-3.0892,-3.0875,-3.0834,-3.0794,-3.0733,-3.0651,-3.0609,-3.0609,-3.0531,-3.0506,-3.0506,-3.0506,-3.0506,-3.0506,-3.0506,-3.0506,-3.0506,-3.0506,-3.0506,-3.0506,-3.0506,-3.0506,-3.0506,-3.0506,-3.0506,-3.0506,-3.0506,-3.0506,0.0,0.0,0.0,0.0,0.0,0.0,0.0,0.0,0.0,0.0,0.0,0.0,0.0,0.0,0.0,0.0,0.0,0.0,0.0,0.0,0.0,0.0,0.0,0.0,0.0,0.0,0.0,0.0,0.0,0.0,0.0,-2.6358,-2.6519,-2.5929,-2.7082,-2.7404,-2.6806,-2.7583,-2.8156,-2.8445,-2.8247,-2.8191,-2.8292,-2.8292,-2.8292,-2.831,-2.8509,-2.86,-2.8587,-2.8326,-2.817,-2.8088,-2.7883,-2.7883,-2.795,-2.7683,-2.8123,-2.8808,-2.8136,-2.8818,-2.9954,-2.9628,-2.9768,-3.0108,-3.0108,-3.0108,-3.0055,-2.9871,-3.0209,-3.0463,-2.9719,-2.9685,-2.9736,-2.9382,-2.9145,-2.8993,-2.8993,-2.9431,-2.9888,-3.0055,-3.0454,-3.0873,-3.1137,-3.1072,-3.0992,-3.0995,-3.0972,-3.0932,-3.0892,-3.0773,-3.0692,-3.0692,-3.0589,-3.0506,-3.0506,-3.0506,-3.0506,-3.0506,-3.0506,-3.0506,-3.0506,-3.0506,-3.0506,-3.0506,-3.0506,-3.0506,-3.0506,-3.0506,-3.0506,-3.0506,-3.0506,-3.0506,0.0,0.0,0.0,0.0,0.0,0.0,0.0,0.0,0.0,0.0,0.0,0.0,0.0,0.0,0.0,0.0,0.0,0.0,0.0,0.0,0.0,0.0,0.0,0.0,0.0,0.0,0.0,0.0,0.0,0.0,-2.5041,-2.5801,-2.6217,-2.6181,-2.6253,-2.6289,-2.6253,-2.7049,-2.7827,-2.8587,-2.7809,-2.7459,-2.7459,-2.7459,-2.7459,-2.7495,-2.8274,-2.86,-2.86,-2.8587,-2.8396,-2.8102,-2.8088,-2.794,-2.7669,-2.7353,-2.7463,-2.7694,-2.7024,-2.7503,-2.8354,-2.8031,-2.8906,-3.0108,-3.0108,-3.0108,-2.9956,-2.9264,-2.9077,-2.8942,-2.8128,-2.8484,-2.923,-2.9888,-2.9499,-2.8993,-2.8993,-2.9027,-2.9264,-2.9973,-3.0123,-3.0359,-3.1072,-3.119,-3.1151,-3.1015,-3.0995,-3.0955,-3.0912,-3.0773,-3.0692,-3.0692,-3.0589,-3.0506,-3.0506,-3.0506,-3.0506,-3.0506,-3.0506,-3.0506,-3.0506,-3.0506,-3.0506,-3.0506,-3.0506,-3.0506,-3.0506,-3.0506,-3.0506,-3.0506,-3.0506,-3.0506,0.0,0.0,0.0,0.0,0.0,0.0,0.0,0.0,0.0,0.0,0.0,0.0,0.0,0.0,0.0,0.0,0.0,0.0,0.0,0.0,0.0,0.0,0.0,0.0,0.0,0.0,0.0,0.0,0.0,0.0,-2.423,-2.499,-2.519,-2.4683,-2.566,-2.6204,-2.6204,-2.6482,-2.6771,-2.7061,-2.6771,-2.6627,-2.6627,-2.6627,-2.6627,-2.6645,-2.6934,-2.764,-2.86,-2.86,-2.8518,-2.8422,-2.8422,-2.8357,-2.8237,-2.7911,-2.7851,-2.7883,-2.7243,-2.7582,-2.8234,-2.7912,-2.8179,-2.8618,-2.8618,-2.8618,-2.8568,-2.8297,-2.8602,-2.8942,-2.8654,-2.8399,-2.8297,-2.8568,-2.8415,-2.823,-2.823,-2.8636,-2.9077,-2.933,-2.9786,-3.0173,-3.0446,-3.0886,-3.119,-3.1131,-3.1131,-3.1131,-3.1092,-3.0992,-3.0895,-3.0895,-3.0733,-3.063,-3.063,-3.0547,-3.0506,-3.0506,-3.0506,-3.0506,-3.0506,-3.0506,-3.0506,-3.0506,-3.0506,-3.0506,-3.0506,-3.0506,-3.0506,-3.0506,-3.0506,-3.0506,-1.4293,0.0,0.0,0.0,0.0,0.0,0.0,0.0,0.0,0.0,0.0,0.0,0.0,0.0,0.0,0.0,0.0,0.0,0.0,0.0,0.0,0.0,0.0,0.0,0.0,0.0,0.0,0.0,0.0,0.0,-2.37,-2.427,-2.4339,-2.3824,-2.4846,-2.5516,-2.5787,-2.5805,-2.5932,-2.6204,-2.5932,-2.5805,-2.5805,-2.5805,-2.5805,-2.5805,-2.6077,-2.6952,-2.8201,-2.8201,-2.8364,-2.86,-2.86,-2.86,-2.8562,-2.8228,-2.8102,-2.8034,-2.755,-2.7698,-2.8034,-2.7724,-2.7828,-2.81,-2.786,-2.7877,-2.7947,-2.7842,-2.801,-2.8231,-2.8231,-2.8027,-2.7739,-2.7486,-2.7824,-2.8146,-2.7858,-2.823,-2.8602,-2.8602,-2.9211,-2.982,-3.0074,-3.0717,-3.119,-3.119,-3.119,-3.119,-3.119,-3.1092,-3.0995,-3.0995,-3.0855,-3.077,-3.077,-3.0651,-3.0568,-3.0568,-3.051,-3.0506,-3.0506,-3.0506,-3.0506,-3.0506,-3.0506,-3.0506,-3.0506,-3.0506,-3.0506,-3.0506,-3.0506,-3.0506,0.0,0.0,0.0,0.0,0.0,0.0,0.0,0.0,0.0,0.0,0.0,0.0,0.0,0.0,0.0,0.0,0.0,0.0,0.0,0.0,0.0,0.0,0.0,0.0,0.0,0.0,0.0,0.0,0.0,0.0,-2.3526,-2.3689,-2.3806,-2.3806,-2.3806,-2.4176,-2.4954,-2.4954,-2.5353,-2.612,-2.5335,-2.4954,-2.4954,-2.4954,-2.4954,-2.5009,-2.5787,-2.659,-2.7333,-2.7369,-2.7876,-2.86,-2.86,-2.86,-2.8562,-2.8228,-2.8098,-2.8075,-2.7815,-2.7698,-2.7672,-2.7307,-2.7902,-2.8635,-2.7981,-2.7981,-2.8183,-2.7861,-2.7249,-2.6691,-2.6691,-2.7232,-2.7587,-2.6894,-2.7859,-2.8722,-2.7959,-2.779,-2.779,-2.7824,-2.8484,-2.9264,-2.9989,-3.0717,-3.119,-3.119,-3.119,-3.119,-3.119,-3.1092,-3.0995,-3.0995,-3.0935,-3.0912,-3.0912,-3.0773,-3.0692,-3.0692,-3.0589,-3.0489,-3.0506,-3.0506,-3.0506,-3.0506,-3.0506,-3.0506,-3.0506,-3.0506,-3.0506,-3.0506,-3.0506,-3.0506,-1.3387,0.0,0.0,0.0,0.0,0.0,0.0,0.0,0.0,0.0,0.0,0.0,0.0,0.0,0.0,0.0,0.0,0.0,0.0,0.0,0.0,0.0,0.0,0.0,0.0,0.0,0.0,0.0,0.0,-2.3774,-2.371,-2.3764,-2.3806,-2.3806,-2.3806,-2.3914,-2.4121,-2.4121,-2.423,-2.4465,-2.423,-2.4121,-2.4121,-2.4121,-2.4121,-2.4139,-2.4375,-2.4918,-2.5751,-2.6916,-2.7876,-2.86,-2.86,-2.86,-2.8587,-2.8492,-2.8448,-2.8409,-2.8106,-2.7978,-2.7894,-2.7367,-2.7398,-2.7554,-2.7131,-2.7063,-2.7131,-2.703,-2.686,-2.6691,-2.6691,-2.6843,-2.7097,-2.7418,-2.7418,-2.7418,-2.7722,-2.7367,-2.7334,-2.845,-2.9279,-2.9871,-3.0055,-3.0717,-3.119,-3.119,-3.119,-3.119,-3.119,-3.1171,-3.1151,-3.1151,-3.1052,-3.0955,-3.0955,-3.0892,-3.081,-3.0712,-3.0671,-3.0609,-3.0489,-3.0506,-3.0506,-3.0506,-3.0506,-3.0506,-3.0506,-3.0506,-3.0506,-3.0506,-3.0506,-3.0506,-1.3919,-1.4376,0.0,0.0,0.0,0.0,0.0,0.0,0.0,0.0,0.0,0.0,0.0,0.0,0.0,0.0,0.0,0.0,0.0,0.0,0.0,0.0,0.0,0.0,0.0,0.0,0.0,0.0,-2.3728,-2.3806,-2.3806,-2.3806,-2.3806,-2.3806,-2.3806,-2.3806,-2.3806,-2.3806,-2.3806,-2.3806,-2.3806,-2.3806,-2.3806,-2.3806,-2.3806,-2.3806,-2.3806,-2.4248,-2.5099,-2.6367,-2.7369,-2.8093,-2.8093,-2.831,-2.8587,-2.8435,-2.8396,-2.8357,-2.8037,-2.794,-2.7855,-2.7352,-2.7291,-2.7322,-2.6841,-2.6808,-2.6874,-2.6741,-2.6691,-2.6691,-2.6691,-2.6691,-2.681,-2.7249,-2.7012,-2.681,-2.7249,-2.7249,-2.7418,-2.8315,-2.9127,-2.9736,-3.0057,-3.0717,-3.119,-3.119,-3.119,-3.119,-3.119,-3.119,-3.119,-3.119,-3.1131,-3.1075,-3.1075,-3.1012,-3.0912,-3.0834,-3.0753,-3.0671,-3.0589,-3.0526,-3.0506,-3.0506,-3.0506,-3.0506,-3.0506,-3.0506,-3.0506,-3.0506,-3.0506,-3.0506,-1.4794,-1.531,0.0,0.0,0.0,0.0,0.0,-1.7467,0.0,0.0,0.0,0.0,0.0,0.0,0.0,0.0,0.0,0.0,0.0,0.0,0.0,0.0,0.0,0.0,0.0,0.0,0.0,-2.3538,-2.3689,-2.3806,-2.3806,-2.3806,-2.3806,-2.3806,-2.3806,-2.3806,-2.3806,-2.3806,-2.3806,-2.3806,-2.3806,-2.3806,-2.3806,-2.3806,-2.3806,-2.3806,-2.3806,-2.4212,-2.4918,-2.5642,-2.65,-2.7405,-2.7495,-2.7966,-2.8562,-2.8228,-2.8102,-2.8061,-2.78,-2.7701,-2.7639,-2.7307,-2.74,-2.7519,-2.6873,-2.6907,-2.7085,-2.6775,-2.6691,-2.6691,-2.6691,-2.6725,-2.6758,-2.6758,-2.6758,-2.6758,-2.6758,-2.7233,-2.7722,-2.7908,-2.8586,-2.9365,-3.0108,-3.0768,-3.119,-3.119,-3.119,-3.119,-3.119,-3.119,-3.119,-3.119,-3.119,-3.119,-3.119,-3.1075,-3.1015,-3.0995,-3.0834,-3.0733,-3.0712,-3.0609,-3.0547,-3.0526,-3.0506,-3.0506,-3.0506,-3.0506,-3.0506,-3.0506,-3.0506,-3.0506,-1.6698,-1.6932,-1.7304,-1.6993,0.0,0.0,0.0,-1.5595,0.0,0.0,0.0,0.0,0.0,0.0,0.0,0.0,0.0,0.0,0.0,0.0,0.0,0.0,0.0,0.0,0.0,0.0,0.0,-2.3656,-2.375,-2.3806,-2.3806,-2.3806,-2.3806,-2.3806,-2.3806,-2.3806,-2.3806,-2.3806,-2.3806,-2.3806,-2.3806,-2.3806,-2.3806,-2.3806,-2.3806,-2.3806,-2.3806,-2.3896,-2.4049,-2.4194,-2.5516,-2.7459,-2.8111,-2.8455,-2.8562,-2.8228,-2.8102,-2.8061,-2.78,-2.7701,-2.7639,-2.7307,-2.7244,-2.7228,-2.6825,-2.6741,-2.6775,-2.6708,-2.6691,-2.6691,-2.6691,-2.6907,-2.7101,-2.7101,-2.7101,-2.7101,-2.7101,-2.701,-2.7283,-2.8518,-2.9364,-3.0125,-3.0852,-3.1106,-3.119,-3.119,-3.119,-3.119,-3.119,-3.119,-3.119,-3.119,-3.119,-3.119,-3.119,-3.1171,-3.1112,-3.0995,-3.0955,-3.0932,-3.0871,-3.0831,-3.0773,-3.0651,-3.0568,-3.0506,-3.0506,-3.0506,-3.0506,-3.0506,-3.0506,-3.0506,0.0,0.0,-1.8387,-1.7912,0.0,0.0,0.0,0.0,0.0,0.0,0.0,0.0,0.0,0.0,0.0,0.0,0.0,0.0,0.0,0.0,0.0,0.0,0.0,0.0,0.0,0.0,-2.2938,-2.3547,-2.3728,-2.3806,-2.3806,-2.3806,-2.3806,-2.3806,-2.3806,-2.3806,-2.3806,-2.3806,-2.3806,-2.3806,-2.3806,-2.3806,-2.3806,-2.3806,-2.3806,-2.3806,-2.3806,-2.3806,-2.3831,-2.423,-2.5117,-2.6276,-2.7079,-2.764,-2.8014,-2.8085,-2.802,-2.7855,-2.755,-2.7336,-2.718,-2.7005,-2.6956,-2.6923,-2.6741,-2.6691,-2.6691,-2.6691,-2.6691,-2.6691,-2.6691,-2.6825,-2.6956,-2.6956,-2.6956,-2.6956,-2.6956,-2.6825,-2.7029,-2.818,-2.9025,-2.9888,-3.1004,-3.119,-3.119,-3.119,-3.119,-3.119,-3.119,-3.119,-3.119,-3.119,-3.119,-3.119,-3.119,-3.119,-3.1171,-3.1095,-3.1035,-3.0975,-3.0952,-3.0932,-3.0871,-3.081,-3.0733,-3.0692,-3.0692,-3.0692,-3.063,-3.0506,-3.0506,-3.0506,0.0,0.0,0.0,0.0,0.0,-1.8454,0.0,0.0,0.0,-1.8076,0.0,0.0,0.0,0.0,0.0,0.0,0.0,0.0,0.0,0.0,0.0,0.0,0.0,0.0,0.0,0.0,0.0,-2.3403,-2.3408,-2.3487,-2.3777,-2.3806,-2.3806,-2.3806,-2.3806,-2.3806,-2.3806,-2.3806,-2.3806,-2.3806,-2.3806,-2.3806,-2.3806,-2.3806,-2.3806,-2.3806,-2.3806,-2.3806,-2.385,-2.4502,-2.4773,-2.4864,-2.5823,-2.659,-2.7218,-2.7534,-2.7613,-2.7502,-2.7113,-2.6901,-2.6791,-2.6725,-2.6691,-2.6691,-2.6691,-2.6691,-2.6691,-2.6691,-2.6691,-2.6691,-2.6691,-2.6741,-2.6791,-2.6791,-2.6791,-2.6791,-2.6791,-2.6741,-2.6911,-2.7655,-2.8332,-2.9247,-3.0717,-3.1106,-3.119,-3.119,-3.119,-3.119,-3.119,-3.119,-3.119,-3.119,-3.119,-3.119,-3.119,-3.119,-3.119,-3.119,-3.1112,-3.1035,-3.1035,-3.0955,-3.0932,-3.0932,-3.0912,-3.0892,-3.0892,-3.0892,-3.079,-3.0589,-3.0589,-3.0589,0.0,0.0,0.0,0.0,-2.0348,0.0,0.0,0.0,-1.7343,-1.6204,0.0,0.0,0.0,0.0,0.0,0.0,0.0,0.0,0.0,0.0,0.0,0.0,0.0,0.0,0.0,0.0,0.0,0.0,-2.2425,-2.2365,-2.3733,-2.3806,-2.3806,-2.3806,-2.3806,-2.3806,-2.3806,-2.3806,-2.3806,-2.3806,-2.3806,-2.3806,-2.3806,-2.3806,-2.3806,-2.3806,-2.3806,-2.3806,-2.3806,-2.3896,-2.3951,-2.4085,-2.5606,-2.6258,-2.6314,-2.6126,-2.6493,-2.7001,-2.636,-2.6582,-2.7085,-2.6791,-2.6691,-2.6691,-2.6691,-2.6691,-2.6691,-2.6691,-2.6691,-2.6691,-2.6691,-2.6923,-2.7149,-2.7149,-2.7149,-2.7149,-2.7149,-2.6907,-2.6911,-2.7655,-2.7874,-2.8415,-2.9954,-3.0768,-3.119,-3.119,-3.119,-3.119,-3.119,-3.119,-3.119,-3.119,-3.119,-3.119,-3.119,-3.119,-3.119,-3.119,-3.119,-3.1171,-3.1171,-3.1072,-3.0995,-3.0995,-3.0932,-3.0892,-3.0892,-3.0892,-3.0892,-3.0851,-3.0851,-3.0851,0.0,0.0,0.0,0.0,0.0,0.0,0.0,0.0,-1.7891,0.0,0.0,0.0,0.0,0.0,0.0,0.0,0.0,0.0,0.0,0.0,0.0,0.0,0.0,0.0,0.0,0.0,0.0,0.0,0.0,-2.185,-2.3097,-2.356,-2.3806,-2.3806,-2.3806,-2.3806,-2.3806,-2.3806,-2.3806,-2.3806,-2.3806,-2.3806,-2.3806,-2.3806,-2.3806,-2.3806,-2.3806,-2.3806,-2.3806,-2.3806,-2.3806,-2.3878,-2.4538,-2.5099,-2.5559,-2.5913,-2.6145,-2.6312,-2.63,-2.6387,-2.6533,-2.6672,-2.6691,-2.6691,-2.6691,-2.6691,-2.6691,-2.6691,-2.6691,-2.6691,-2.6691,-2.6808,-2.6907,-2.6907,-2.6907,-2.6907,-2.6907,-2.6808,-2.6793,-2.7114,-2.7503,-2.8145,-2.9262,-3.0074,-3.0717,-3.114,-3.119,-3.119,-3.119,-3.119,-3.119,-3.119,-3.119,-3.119,-3.119,-3.119,-3.119,-3.119,-3.119,-3.119,-3.119,-3.1151,-3.1112,-3.1112,-3.1092,-3.1072,-3.1072,-3.1072,-3.1072,-3.1072,-3.0952,-3.0892,-2.0902,0.0,0.0,0.0,0.0,0.0,0.0,0.0,0.0,0.0,0.0,0.0,0.0,0.0,0.0,0.0,0.0,0.0,0.0,0.0,0.0,0.0,0.0,0.0,0.0,0.0,0.0,0.0,0.0,0.0,-2.2509,-2.3107,-2.3508,-2.3795,-2.3806,-2.3806,-2.3806,-2.3806,-2.3806,-2.3806,-2.3806,-2.3806,-2.3806,-2.3806,-2.3806,-2.3806,-2.3806,-2.3806,-2.3806,-2.3806,-2.3806,-2.3806,-2.3806,-2.4157,-2.4737,-2.5335,-2.557,-2.5623,-2.5893,-2.599,-2.6073,-2.6554,-2.6691,-2.6691,-2.6691,-2.6691,-2.6691,-2.6691,-2.6691,-2.6691,-2.6691,-2.6691,-2.6691,-2.6691,-2.6691,-2.6691,-2.6691,-2.6691,-2.6691,-2.6691,-2.73,-2.806,-2.8857,-2.96,-3.0362,-3.1089,-3.119,-3.119,-3.119,-3.119,-3.119,-3.119,-3.119,-3.119,-3.119,-3.119,-3.119,-3.119,-3.119,-3.119,-3.119,-3.119,-3.119,-3.119,-3.119,-3.119,-3.119,-3.119,-3.119,-3.119,-3.1052,-3.0992,0.0,0.0,0.0,0.0,0.0,0.0,0.0,0.0,-1.8685,0.0,0.0,0.0,0.0,0.0,0.0,-1.5826,0.0,0.0,0.0,0.0,0.0,0.0,0.0,0.0,0.0,0.0,0.0,0.0,0.0,0.0,-2.2132,-2.2339,-2.2794,-2.3777,-2.3806,-2.3806,-2.3806,-2.3806,-2.3806,-2.3806,-2.3806,-2.3806,-2.3806,-2.3806,-2.3806,-2.3806,-2.3806,-2.3806,-2.3806,-2.3806,-2.3806,-2.3806,-2.3806,-2.3824,-2.3831,-2.3878,-2.4357,-2.4989,-2.4748,-2.5256,-2.6073,-2.6554,-2.6691,-2.6691,-2.6691,-2.6691,-2.6691,-2.6691,-2.6691,-2.6691,-2.6691,-2.6691,-2.6691,-2.6691,-2.6691,-2.6691,-2.6691,-2.6691,-2.6691,-2.6691,-2.73,-2.806,-2.8857,-2.96,-3.0362,-3.1089,-3.119,-3.119,-3.119,-3.119,-3.119,-3.119,-3.119,-3.119,-3.119,-3.119,-3.119,-3.119,-3.119,-3.119,-3.119,-3.119,-3.119,-3.119,-3.119,-3.119,-3.119,-3.119,-3.119,-3.119,-3.119,-3.119,0.0,0.0,-2.3433,-2.2334,0.0,0.0,0.0,0.0,0.0,0.0,0.0,0.0,0.0,0.0,0.0,-1.64,0.0,0.0,0.0,0.0,0.0,0.0,0.0,0.0,0.0,0.0,0.0,0.0,0.0,0.0,0.0,-2.1939,-2.2701,-2.3562,-2.3721,-2.3806,-2.3806,-2.3806,-2.3806,-2.3806,-2.3806,-2.3806,-2.3806,-2.3806,-2.3806,-2.3806,-2.3806,-2.3806,-2.3806,-2.3806,-2.3806,-2.3806,-2.3806,-2.3806,-2.3806,-2.3806,-2.3958,-2.423,-2.43,-2.4955,-2.5771,-2.5929,-2.6302,-2.6691,-2.6691,-2.6691,-2.6691,-2.6691,-2.6691,-2.6691,-2.6691,-2.6691,-2.6691,-2.6691,-2.6691,-2.6691,-2.6691,-2.6691,-2.6691,-2.6691,-2.73,-2.806,-2.8857,-2.96,-3.0362,-3.1089,-3.119,-3.119,-3.119,-3.119,-3.119,-3.119,-3.119,-3.119,-3.119,-3.119,-3.119,-3.119,-3.119,-3.119,-3.119,-3.119,-3.119,-3.119,-3.119,-3.119,-3.119,-3.119,-3.119,-3.119,-3.119,-3.119,-2.3089,-2.3433,0.0,0.0,-2.2233,0.0,0.0,0.0,0.0,0.0,0.0,0.0,0.0,0.0,0.0,-1.6788,-1.6298,0.0,0.0,0.0,0.0,0.0,0.0,0.0,0.0,0.0,-1.6309,-1.7226,0.0,0.0,0.0,0.0,-2.2306,-2.3468,-2.3707,-2.3806,-2.3806,-2.3806,-2.3806,-2.3806,-2.3806,-2.3806,-2.3806,-2.3806,-2.3806,-2.3806,-2.3806,-2.3806,-2.3806,-2.3806,-2.3806,-2.3806,-2.3806,-2.3806,-2.3806,-2.3806,-2.3753,-2.3786,-2.4375,-2.4922,-2.5429,-2.5844,-2.6302,-2.6691,-2.6691,-2.6691,-2.6691,-2.6691,-2.6691,-2.6691,-2.6691,-2.6691,-2.6691,-2.6691,-2.6691,-2.6691,-2.6691,-2.6691,-2.6691,-2.6691,-2.752,-2.8399,-2.8908,-2.982,-3.0649,-3.1123,-3.119,-3.119,-3.119,-3.119,-3.119,-3.119,-3.119,-3.119,-3.119,-3.119,-3.119,-3.119,-3.119,-3.119,-3.119,-3.119,-3.119,-3.119,-3.119,-3.119,-3.119,-3.119,-3.119,-3.119,-3.119,-3.119]},{"header":{"parameterUnit":"m.s-1","parameterCategory":1,"la1":30.6,"la2":29.2853,"lo1":-89.7004,"lo2":-87.6739,"dy":0.0162,"dx":0.0183,"nx":112,"ny":82,"refTime":"2024-07-17T00:00:00:Z","depth":0,"parameterNumber":3,"parameterNumberName":"V-component_of_WINDS"},"data":[0.0,0.0,0.0,0.0,0.0,0.0,0.0,0.0,0.0,0.0,0.0,0.0,0.0,0.0,0.0,0.0,0.0,0.0,0.0,0.0,0.0,0.0,0.0,0.0,0.0,0.0,0.0,0.0,0.0,0.0,0.0,0.0,0.0,0.0,0.0,0.0,0.0,0.0,0.0,0.0,0.0,0.0,0.0,0.0,0.0,0.0,0.0,0.0,0.0,0.0,0.0,0.0,0.0,0.0,0.0,0.0,0.0,0.0,0.0,0.0,0.0,0.0,0.0,0.0,0.0,0.0,0.0,0.0,0.0,0.0,0.0,0.0,0.0,0.0,0.0,0.0,0.0,0.0,0.0,0.0,0.0,0.0,0.0,0.0,0.0,0.0,0.0,0.0,0.0,0.0,0.0,-1.4317,-1.5584,-1.6413,-1.6413,-1.6216,-1.5194,-1.3132,0.0,0.0,0.0,0.0,0.0,0.0,0.0,0.0,0.0,0.0,0.0,0.0,0.0,0.0,0.0,0.0,0.0,0.0,0.0,0.0,0.0,0.0,0.0,0.0,0.0,0.0,0.0,0.0,0.0,0.0,0.0,0.0,0.0,0.0,0.0,0.0,0.0,0.0,0.0,0.0,0.0,0.0,0.0,0.0,0.0,0.0,0.0,0.0,0.0,0.0,0.0,0.0,0.0,0.0,0.0,0.0,0.0,0.0,0.0,0.0,0.0,0.0,0.0,0.0,0.0,0.0,0.0,0.0,0.0,0.0,0.0,0.0,0.0,0.0,0.0,0.0,0.0,0.0,0.0,0.0,0.0,0.0,0.0,0.0,0.0,0.0,0.0,0.0,0.0,0.0,0.0,0.0,0.0,0.0,0.0,0.0,0.0,0.0,0.0,0.0,0.0,0.0,0.0,0.0,-1.3963,-1.584,-1.6261,-1.6413,-1.6413,-1.5297,-1.4304,-1.3535,0.0,0.0,0.0,0.0,0.0,0.0,0.0,0.0,0.0,0.0,0.0,0.0,0.0,0.0,0.0,0.0,0.0,0.0,0.0,0.0,0.0,0.0,0.0,0.0,0.0,0.0,0.0,0.0,0.0,0.0,0.0,0.0,0.0,0.0,0.0,0.0,0.0,0.0,0.0,0.0,0.0,0.0,0.0,0.0,0.0,0.0,0.0,0.0,0.0,0.0,0.0,0.0,0.0,0.0,0.0,0.0,0.0,0.0,0.0,0.0,0.0,0.0,0.0,0.0,0.0,0.0,0.0,0.0,0.0,0.0,0.0,0.0,0.0,0.0,0.0,0.0,0.0,0.0,0.0,0.0,0.0,0.0,0.0,0.0,0.0,0.0,0.0,0.0,0.0,0.0,0.0,0.0,0.0,0.0,0.0,0.0,0.0,0.0,0.0,0.0,0.0,0.0,0.0,-1.3858,-1.4462,-1.6585,-1.6567,-1.6413,-1.6413,-1.5339,-1.4273,-1.3276,-1.2274,0.0,0.0,0.0,0.0,0.0,0.0,0.0,0.0,0.0,0.0,0.0,0.0,0.0,0.0,0.0,0.0,0.0,0.0,0.0,0.0,0.0,0.0,0.0,0.0,0.0,0.0,0.0,0.0,0.0,0.0,0.0,0.0,0.0,0.0,0.0,0.0,0.0,0.0,0.0,0.0,0.0,0.0,0.0,0.0,0.0,0.0,0.0,0.0,0.0,0.0,0.0,0.0,0.0,0.0,0.0,0.0,0.0,0.0,0.0,0.0,0.0,0.0,0.0,0.0,0.0,0.0,0.0,0.0,0.0,0.0,0.0,0.0,0.0,0.0,0.0,0.0,0.0,0.0,0.0,0.0,0.0,0.0,0.0,0.0,0.0,0.0,0.0,0.0,0.0,0.0,0.0,0.0,0.0,0.0,0.0,0.0,0.0,0.0,0.0,0.0,0.0,0.0,-1.4707,-1.515,-1.6678,-1.6574,-1.6413,-1.6413,-1.5235,-1.4055,-1.2967,-1.1239,0.0,0.0,0.0,0.0,0.0,0.0,0.0,0.0,0.0,0.0,0.0,0.0,0.0,0.0,0.0,0.0,0.0,0.0,0.0,0.0,0.0,0.0,0.0,0.0,0.0,0.0,0.0,0.0,0.0,0.0,0.0,0.0,0.0,0.0,0.0,0.0,0.0,0.0,0.0,0.0,0.0,0.0,0.0,0.0,0.0,0.0,0.0,0.0,0.0,0.0,0.0,0.0,0.0,0.0,0.0,0.0,0.0,0.0,0.0,0.0,0.0,0.0,0.0,0.0,0.0,0.0,0.0,0.0,0.0,0.0,0.0,0.0,0.0,0.0,0.0,0.0,0.0,0.0,0.0,0.0,0.0,0.0,0.0,0.0,0.0,0.0,0.0,0.0,0.0,0.0,0.0,0.0,0.0,0.0,0.0,0.0,0.0,0.0,0.0,0.0,0.0,0.0,-1.479,-1.6103,-1.585,-1.6143,-1.6413,-1.6413,-1.4345,-1.3008,-1.2915,-1.0064,0.0,0.0,0.0,0.0,0.0,0.0,0.0,0.0,0.0,0.0,0.0,0.0,0.0,0.0,0.0,0.0,0.0,0.0,0.0,0.0,0.0,0.0,0.0,0.0,0.0,0.0,0.0,0.0,0.0,0.0,0.0,0.0,0.0,0.0,0.0,0.0,0.0,0.0,0.0,0.0,0.0,0.0,0.0,0.0,0.0,0.0,0.0,0.0,0.0,0.0,0.0,0.0,0.0,0.0,0.0,0.0,0.0,0.0,0.0,0.0,0.0,0.0,0.0,0.0,0.0,0.0,0.0,0.0,0.0,0.0,0.0,0.0,0.0,0.0,0.0,0.0,0.0,0.0,0.0,0.0,0.0,0.0,0.0,0.0,0.0,0.0,0.0,0.0,0.0,0.0,0.0,0.0,0.0,0.0,0.0,0.0,0.0,0.0,0.0,0.0,0.0,0.0,-1.3922,-1.5141,0.0,-1.5861,-1.5835,-1.5546,-1.4449,-1.33,-1.2151,0.0,0.0,0.0,0.0,0.0,0.0,0.0,0.0,0.0,0.0,0.0,0.0,0.0,0.0,0.0,0.0,0.0,0.0,0.0,0.0,0.0,0.0,0.0,0.0,0.0,0.0,0.0,0.0,0.0,0.0,0.0,0.0,0.0,0.0,0.0,0.0,0.0,0.0,0.0,0.0,0.0,0.0,0.0,0.0,0.0,0.0,0.0,0.0,0.0,0.0,0.0,0.0,0.0,0.0,0.0,0.0,0.0,0.0,0.0,0.0,0.0,0.0,0.0,0.0,0.0,0.0,0.0,0.0,0.0,0.0,0.0,0.0,0.0,0.0,0.0,0.0,0.0,0.0,0.0,0.0,0.0,0.0,0.0,0.0,0.0,0.0,0.0,0.0,0.0,0.0,0.0,0.0,0.0,0.0,0.0,0.0,0.0,0.0,0.0,0.0,0.0,0.0,-1.2182,-1.3622,-1.4855,0.0,-1.5474,-1.5339,-1.5028,-1.4304,-1.3207,-1.1695,0.0,0.0,0.0,0.0,0.0,0.0,0.0,0.0,0.0,0.0,0.0,0.0,0.0,0.0,0.0,0.0,0.0,0.0,0.0,0.0,0.0,0.0,0.0,0.0,0.0,0.0,0.0,0.0,0.0,0.0,0.0,0.0,0.0,0.0,0.0,0.0,0.0,0.0,0.0,0.0,0.0,0.0,0.0,0.0,0.0,0.0,0.0,0.0,0.0,0.0,0.0,0.0,0.0,0.0,0.0,0.0,0.0,0.0,0.0,0.0,0.0,0.0,0.0,0.0,0.0,0.0,0.0,0.0,0.0,0.0,0.0,0.0,0.0,0.0,0.0,0.0,0.0,0.0,0.0,0.0,0.0,0.0,0.0,0.0,0.0,0.0,0.0,0.0,0.0,0.0,0.0,0.0,0.0,0.0,0.0,0.0,0.0,0.0,0.0,0.0,0.0,0.0,-1.1845,-1.4106,-1.5581,-1.5061,-1.4989,-1.4987,-1.4987,-1.37,-1.2555,0.0,0.0,0.0,0.0,0.0,0.0,0.0,0.0,0.0,0.0,0.0,0.0,0.0,0.0,0.0,0.0,0.0,0.0,0.0,0.0,0.0,0.0,0.0,0.0,0.0,0.0,0.0,0.0,0.0,0.0,0.0,0.0,0.0,0.0,0.0,0.0,0.0,0.0,0.0,0.0,0.0,0.0,0.0,0.0,0.0,0.0,0.0,0.0,0.0,0.0,0.0,0.0,0.0,0.0,0.0,0.0,0.0,0.0,0.0,0.0,0.0,0.0,0.0,0.0,0.0,0.0,0.0,0.0,0.0,0.0,0.0,0.0,0.0,0.0,0.0,0.0,0.0,0.0,0.0,0.0,0.0,0.0,0.0,0.0,0.0,0.0,0.0,0.0,0.0,0.0,0.0,0.0,0.0,0.0,0.0,0.0,0.0,0.0,0.0,0.0,0.0,0.0,0.0,0.0,-1.4019,-1.5257,-1.5095,-1.4738,-1.4376,-1.4045,-1.3952,-1.308,-1.121,0.0,0.0,0.0,0.0,0.0,0.0,0.0,0.0,0.0,0.0,0.0,0.0,0.0,0.0,0.0,0.0,0.0,0.0,0.0,0.0,0.0,0.0,0.0,0.0,0.0,0.0,0.0,0.0,0.0,0.0,0.0,0.0,0.0,0.0,0.0,0.0,0.0,0.0,0.0,0.0,0.0,0.0,0.0,0.0,0.0,0.0,0.0,0.0,0.0,0.0,0.0,0.0,0.0,0.0,0.0,0.0,0.0,0.0,0.0,0.0,0.0,0.0,0.0,0.0,0.0,0.0,0.0,0.0,0.0,0.0,0.0,0.0,0.0,0.0,0.0,0.0,0.0,0.0,0.0,0.0,0.0,0.0,0.0,0.0,0.0,0.0,0.0,0.0,0.0,0.0,0.0,0.0,0.0,0.0,0.0,0.0,0.0,0.0,0.0,0.0,0.0,0.0,-1.2463,-1.4137,-1.539,-1.539,-1.4766,-1.4235,-1.3949,-1.399,-1.3217,-1.1302,0.0,0.0,0.0,0.0,0.0,0.0,0.0,0.0,0.0,0.0,0.0,0.0,0.0,0.0,0.0,0.0,0.0,0.0,0.0,0.0,0.0,0.0,0.0,0.0,0.0,0.0,0.0,0.0,0.0,0.0,0.0,0.0,0.0,0.0,0.0,0.0,0.0,0.0,0.0,0.0,0.0,0.0,0.0,0.0,0.0,0.0,0.0,0.0,0.0,0.0,0.0,0.0,0.0,0.0,0.0,0.0,0.0,0.0,0.0,0.0,0.0,0.0,0.0,0.0,0.0,0.0,0.0,0.0,0.0,0.0,0.0,0.0,0.0,0.0,0.0,0.0,0.0,0.0,0.0,0.0,0.0,0.0,0.0,0.0,0.0,0.0,0.0,0.0,0.0,0.0,0.0,0.0,0.0,0.0,0.0,0.0,0.0,0.0,0.0,0.0,0.0,0.0,-1.2601,-1.4462,-1.581,-1.581,-1.4994,-1.4454,-1.4396,-1.3952,-1.3097,-1.1737,0.0,0.0,0.0,0.0,0.0,0.0,0.0,0.0,0.0,0.0,0.0,0.0,0.0,0.0,0.0,0.0,0.0,0.0,0.0,0.0,0.0,0.0,0.0,0.0,0.0,0.0,0.0,0.0,0.0,0.0,0.0,0.0,0.0,0.0,0.0,0.0,0.0,0.0,0.0,0.0,0.0,0.0,0.0,0.0,0.0,0.0,0.0,0.0,0.0,0.0,0.0,0.0,0.0,0.0,0.0,0.0,0.0,0.0,0.0,0.0,-1.013,0.0,0.0,0.0,0.0,0.0,0.0,0.0,0.0,0.0,0.0,0.0,0.0,0.0,0.0,0.0,0.0,0.0,0.0,0.0,0.0,0.0,0.0,0.0,0.0,0.0,0.0,0.0,0.0,0.0,0.0,0.0,0.0,0.0,0.0,0.0,0.0,0.0,0.0,0.0,0.0,0.0,-1.3695,-1.4947,-1.581,-1.581,-1.5288,-1.4811,-1.4419,-1.4314,-1.362,-1.2246,0.0,0.0,0.0,0.0,0.0,0.0,0.0,0.0,0.0,0.0,0.0,0.0,0.0,0.0,0.0,0.0,0.0,0.0,0.0,0.0,0.0,0.0,0.0,0.0,0.0,0.0,0.0,0.0,0.0,0.0,0.0,0.0,0.0,0.0,0.0,0.0,0.0,0.0,0.0,0.0,0.0,0.0,0.0,0.0,0.0,0.0,0.0,0.0,0.0,0.0,0.0,0.0,0.0,0.0,0.0,0.0,0.0,0.0,0.0,0.0,0.0,-1.1039,0.0,0.0,0.0,0.0,0.0,0.0,0.0,0.0,0.0,0.0,0.0,0.0,0.0,0.0,0.0,0.0,0.0,0.0,0.0,0.0,0.0,0.0,0.0,0.0,0.0,0.0,0.0,0.0,0.0,0.0,0.0,0.0,0.0,0.0,0.0,0.0,0.0,0.0,0.0,0.0,-1.4009,-1.5298,-1.6064,-1.5832,-1.539,-1.4994,-1.4766,-1.4303,-1.3713,-1.3021,-1.232,0.0,0.0,0.0,0.0,0.0,0.0,0.0,0.0,0.0,0.0,0.0,0.0,0.0,0.0,0.0,0.0,0.0,0.0,0.0,0.0,0.0,0.0,0.0,0.0,0.0,0.0,0.0,0.0,0.0,0.0,0.0,0.0,0.0,0.0,0.0,0.0,0.0,0.0,0.0,0.0,0.0,0.0,0.0,0.0,0.0,0.0,0.0,0.0,0.0,0.0,0.0,0.0,0.0,0.0,0.0,-1.6394,-1.6394,-1.6405,-1.6232,-1.3168,-1.2719,-1.3952,0.0,0.0,0.0,0.0,0.0,0.0,0.0,0.0,0.0,0.0,0.0,0.0,0.0,0.0,0.0,0.0,0.0,0.0,0.0,0.0,0.0,0.0,0.0,0.0,0.0,-1.6848,-1.6798,0.0,0.0,0.0,0.0,0.0,0.0,0.0,0.0,0.0,0.0,0.0,0.0,-1.4286,-1.5618,-1.6358,-1.5964,-1.549,-1.5187,-1.5108,-1.4269,-1.3712,-1.3682,-1.2869,-1.2027,0.0,0.0,0.0,0.0,0.0,0.0,0.0,0.0,0.0,0.0,0.0,0.0,0.0,0.0,0.0,0.0,0.0,0.0,0.0,0.0,0.0,0.0,0.0,0.0,0.0,0.0,0.0,0.0,0.0,0.0,0.0,0.0,-0.6638,-0.7483,0.0,0.0,0.0,0.0,0.0,0.0,0.0,0.0,0.0,0.0,0.0,0.0,0.0,0.0,-1.3219,-1.3392,-1.4471,-1.6413,-1.6385,-1.6392,-1.6395,-1.6395,-1.6399,-1.6364,-1.5894,0.0,-1.5894,-1.4007,0.0,0.0,0.0,0.0,0.0,0.0,0.0,0.0,0.0,0.0,0.0,0.0,0.0,0.0,0.0,0.0,0.0,0.0,0.0,0.0,0.0,0.0,-1.6558,-1.7171,-1.7399,-1.7494,0.0,-1.5635,-1.3923,-1.3883,0.0,0.0,0.0,0.0,0.0,0.0,0.0,0.0,-1.5361,-1.6082,-1.6479,-1.6402,-1.5998,-1.5534,-1.5131,-1.4605,-1.4084,-1.3645,-1.3116,-1.2606,-1.2131,-1.1219,0.0,0.0,0.0,0.0,0.0,0.0,0.0,0.0,0.0,0.0,0.0,0.0,0.0,0.0,0.0,0.0,0.0,0.0,0.0,0.0,0.0,0.0,0.0,0.0,0.0,0.0,0.0,0.0,0.0,-0.6527,-0.767,-0.7868,-0.8171,-0.8271,0.0,0.0,0.0,0.0,0.0,0.0,0.0,0.0,0.0,-1.2997,-1.3433,-1.419,-1.5282,-1.597,-1.6563,-1.7122,-1.7124,-1.714,-1.714,-1.714,-1.714,-1.714,-1.714,-1.7126,-1.7037,-1.5701,-1.4291,-1.2926,0.0,0.0,0.0,0.0,0.0,-1.3186,-1.3727,0.0,0.0,0.0,0.0,0.0,0.0,0.0,0.0,0.0,0.0,0.0,0.0,0.0,0.0,-1.8534,-1.8291,-1.7887,-1.8104,-1.6966,-1.5814,0.0,-1.4569,-1.379,-1.3727,0.0,0.0,0.0,0.0,0.0,-1.5593,-1.6183,-1.6402,-1.6129,-1.569,-1.5322,-1.5108,-1.4385,-1.3975,-1.4046,-1.3564,-1.3091,-1.2658,-1.2016,-1.1225,0.0,0.0,0.0,0.0,0.0,0.0,0.0,0.0,0.0,0.0,0.0,0.0,0.0,0.0,0.0,0.0,0.0,0.0,0.0,0.0,0.0,0.0,0.0,0.0,0.0,0.0,0.0,0.0,-0.7399,-0.8141,-0.8175,-0.8943,-0.9336,0.0,0.0,0.0,0.0,0.0,0.0,-1.2518,-1.3356,-1.4202,-1.5032,-1.5214,-1.578,-1.685,-1.7419,-1.7705,-1.7699,-1.7699,-1.7699,-1.7699,-1.7699,-1.775,-1.7833,-1.7833,-1.7833,-1.776,-1.7047,-1.616,-1.5295,-1.5253,-1.4928,0.0,-1.4779,-1.4831,-1.4935,-1.5628,-1.5784,-1.5597,-1.5028,0.0,-1.4252,-1.3022,0.0,0.0,0.0,0.0,-1.6105,-1.6694,0.0,-1.7886,-1.9091,-1.8712,-1.8097,-1.8109,-1.7687,-1.7145,0.0,-1.5819,-1.5172,-1.4782,0.0,0.0,0.0,0.0,-1.5289,-1.5831,-1.6154,-1.619,-1.5835,-1.5279,-1.4926,-1.4926,-1.4106,-1.3776,-1.4163,-1.3823,-1.3431,-1.3091,-1.2668,-1.2173,0.0,0.0,0.0,0.0,0.0,0.0,0.0,0.0,0.0,0.0,0.0,0.0,0.0,0.0,0.0,0.0,0.0,0.0,0.0,0.0,0.0,0.0,0.0,0.0,0.0,0.0,0.0,0.0,0.0,0.0,-0.8859,-0.9709,0.0,0.0,0.0,0.0,-1.2235,-1.3307,-1.4047,-1.4257,-1.5575,-1.6574,-1.7131,-1.7263,-1.7578,-1.8116,-1.7842,-1.7719,-1.7699,-1.7699,-1.7699,-1.7699,-1.7699,-1.7874,-1.8175,-1.8175,-1.8175,-1.8143,-1.7768,-1.7605,-1.7501,-1.7259,-1.7155,-1.7038,-1.6503,-1.6299,-1.6309,-1.6361,-1.6053,-1.578,-1.6174,-1.568,-1.5028,-1.538,-1.4909,0.0,0.0,-1.5981,-1.6607,-1.7144,-1.7679,-1.8085,-1.8174,-1.8147,-1.8093,-1.8085,-1.7679,-1.7123,0.0,-1.6365,-1.6342,-1.6371,0.0,-1.5765,-1.6298,-1.5969,-1.5844,-1.64,-1.6089,-1.5824,-1.581,-1.4988,-1.4443,-1.4443,-1.3928,-1.361,-1.3644,-1.361,-1.3576,-1.3566,-1.3121,-1.2668,-1.2266,-1.1737,0.0,0.0,0.0,0.0,0.0,0.0,0.0,0.0,0.0,0.0,0.0,0.0,0.0,0.0,0.0,0.0,0.0,0.0,0.0,0.0,0.0,0.0,0.0,0.0,0.0,0.0,0.0,0.0,-1.0481,-1.1313,0.0,0.0,-1.302,-1.3655,-1.3917,-1.5049,-1.5978,-1.6554,-1.7148,-1.7785,-1.8485,-1.8159,-1.8291,-1.8969,-1.8417,-1.8394,-1.8922,-1.8696,-1.8589,-1.8589,-1.8589,-1.8674,-1.877,-1.877,-1.877,-1.876,-1.8646,-1.8239,-1.7696,-1.758,-1.7558,-1.7517,-1.7304,-1.7253,-1.7253,-1.7253,-1.714,-1.6955,-1.682,-1.6187,-1.5473,-1.5639,-1.5463,-1.5262,-1.5605,-1.6315,-1.6978,-1.7196,-1.7384,-1.7617,-1.8011,-1.7529,-1.7095,-1.7462,-1.7092,-1.6665,-1.6438,-1.6717,-1.6988,-1.7003,-1.7167,-1.7359,-1.7555,-1.7094,-1.6794,-1.7003,-1.6526,-1.6192,-1.6181,-1.5337,-1.4784,-1.4784,-1.4074,-1.3597,-1.3597,-1.3597,-1.3597,-1.3597,-1.3431,-1.3224,-1.2963,-1.2601,-1.1602,0.0,0.0,0.0,0.0,0.0,0.0,0.0,0.0,0.0,0.0,0.0,0.0,0.0,0.0,0.0,0.0,0.0,0.0,0.0,0.0,0.0,0.0,0.0,0.0,0.0,0.0,-1.0867,-1.1318,-1.2379,-1.3228,-1.3592,-1.4826,-1.5584,-1.5553,-1.6738,-1.7595,-1.7852,-1.8205,-1.8762,-1.9565,-1.908,-1.9115,-1.9805,-1.9244,-1.9243,-1.9758,-1.9429,-1.9274,-1.9274,-1.9142,-1.9108,-1.9108,-1.9108,-1.9108,-1.9108,-1.9108,-1.8723,-1.8185,-1.8185,-1.8185,-1.8185,-1.8185,-1.8081,-1.7905,-1.775,-1.7699,-1.7657,-1.7347,-1.6738,-1.6177,-1.6332,-1.6167,-1.6008,-1.6291,-1.6637,-1.6948,-1.7109,-1.7034,-1.7028,-1.7418,-1.6948,-1.6506,-1.6842,-1.6637,-1.6413,-1.6413,-1.6721,-1.6997,-1.7002,-1.733,-1.7579,-1.7593,-1.7254,-1.6994,-1.7006,-1.6505,-1.6157,-1.6144,-1.5481,-1.4935,-1.4775,-1.4185,-1.3776,-1.3607,-1.3597,-1.3597,-1.3597,-1.3442,-1.3294,-1.3173,-1.2797,-1.2329,-1.1752,0.0,0.0,0.0,0.0,0.0,0.0,0.0,0.0,0.0,0.0,0.0,0.0,0.0,0.0,0.0,0.0,0.0,0.0,0.0,0.0,0.0,0.0,0.0,-1.0177,-1.0508,-1.0925,-1.136,-1.2836,-1.4018,-1.456,-1.667,-1.7755,-1.7127,-1.8428,-1.8911,-1.8119,-1.8825,-1.9588,-2.0393,-2.0104,-2.0142,-2.0603,-2.028,-2.0129,-2.0129,-1.978,-1.9637,-1.9614,-1.9262,-1.9139,-1.915,-1.915,-1.9139,-1.9119,-1.9119,-1.9119,-1.9108,-1.9108,-1.9108,-1.9108,-1.9108,-1.8818,-1.8372,-1.7884,-1.773,-1.7719,-1.7719,-1.7409,-1.712,-1.7564,-1.7119,-1.6612,-1.7451,-1.7088,-1.6498,-1.6903,-1.6715,-1.6413,-1.6413,-1.6413,-1.6413,-1.6413,-1.6413,-1.6413,-1.6413,-1.6413,-1.6409,-1.6418,-1.645,-1.6451,-1.6454,-1.6425,0.0,-1.6412,-1.6012,-1.5721,-1.5714,-1.5297,-1.4831,-1.4366,-1.4314,-1.4107,-1.3628,-1.3597,-1.3597,-1.3607,-1.3207,-1.2969,-1.2991,-1.2404,-1.2617,-1.3636,0.0,0.0,0.0,0.0,0.0,0.0,0.0,0.0,0.0,0.0,0.0,0.0,0.0,0.0,0.0,0.0,0.0,0.0,0.0,0.0,0.0,0.0,-1.1379,-1.1011,-1.1764,-1.2665,-1.3442,-1.3856,-1.4791,-1.6562,-1.7537,-1.8229,-1.8561,-1.9527,-1.9954,-1.9757,-1.9943,-2.0343,-2.0971,-2.0604,-2.0597,-2.1031,-2.0808,-2.0809,-2.103,-2.0441,-2.032,-2.0594,-1.9923,-1.9782,-2.0058,-2.0058,-1.9872,-1.9606,-1.9606,-1.9409,-1.9108,-1.9108,-1.9108,-1.9108,-1.9108,-1.9025,-1.8901,-1.8744,-1.8485,-1.8206,-1.8206,-1.7905,-1.7533,-1.7668,-1.7533,-1.7378,-1.7637,-1.7275,-1.6862,-1.6986,-1.6715,-1.6413,-1.6413,-1.6413,-1.6413,-1.6413,-1.6413,-1.6413,-1.6413,-1.6413,-1.6521,-1.6911,-1.7345,-1.7625,-1.7638,0.0,0.0,-1.6967,-1.6516,-1.621,-1.6205,-1.5773,-1.5308,-1.4852,-1.45,-1.4107,0.0,-1.3597,-1.3741,-1.4082,-1.4212,-1.4438,-1.4785,-1.4429,-1.4373,0.0,0.0,0.0,0.0,0.0,0.0,0.0,0.0,0.0,0.0,0.0,0.0,0.0,0.0,0.0,0.0,0.0,0.0,0.0,0.0,0.0,0.0,-1.1774,-1.2295,-1.2218,-1.2783,-1.34,-1.3967,-1.4458,-1.5525,-1.742,-1.8235,-1.8924,-1.9568,-2.0313,-2.0599,-2.0239,-2.0545,-2.0963,-2.1468,-2.1285,-2.1344,-2.1822,-2.1554,-2.1598,-2.1924,-2.1087,-2.0847,-2.1234,-2.0408,-2.0182,0.0,-2.0385,-2.0276,-2.0038,-2.0038,-1.9803,0.0,0.0,0.0,0.0,0.0,-1.9108,-1.9108,-1.9108,-1.8922,-1.8704,-1.8704,-1.8371,-1.804,-1.8237,-1.7998,-1.7781,-1.8185,-1.7802,-1.7296,-1.7296,-1.6965,-1.6612,-1.6454,-1.6413,-1.6413,-1.6413,-1.6413,-1.6413,-1.6413,0.0,0.0,-1.6814,-1.7151,-1.7401,-1.7401,-1.7095,-1.687,0.0,-1.6581,-1.6413,-1.6413,-1.6174,-1.5784,-1.5328,-1.5038,0.0,0.0,0.0,-1.4231,-1.4304,0.0,0.0,0.0,0.0,0.0,0.0,0.0,0.0,0.0,-1.6422,-1.6605,0.0,0.0,0.0,0.0,0.0,0.0,0.0,0.0,0.0,0.0,0.0,0.0,0.0,0.0,0.0,0.0,-1.2842,-1.3151,-1.3468,-1.3511,-1.3511,-1.3571,-1.4781,-1.6165,-1.7593,-1.8722,-1.965,-2.0346,-2.091,-2.0912,-2.0187,0.0,0.0,0.0,0.0,-2.2341,-2.2719,-2.2524,-2.2546,-2.2777,-2.1734,-2.1392,-2.1675,-2.0856,-2.0498,-2.055,-2.055,-2.0519,-2.0467,-2.0467,-2.0213,-1.9751,-1.9285,-1.9108,-1.9108,-1.9108,-1.9108,0.0,0.0,0.0,0.0,-1.9108,-1.8828,-1.8569,-1.8973,-1.8516,-1.8019,-1.888,-1.8454,-1.7771,-1.7719,-1.7358,-1.6903,-1.6487,-1.6413,-1.6413,-1.6413,-1.6413,-1.6413,-1.6413,-1.6413,-1.6413,-1.6413,-1.6413,-1.6413,-1.6413,-1.6413,0.0,-1.6413,-1.6413,-1.6413,-1.6413,0.0,0.0,-1.5732,-1.5691,-1.5318,-1.4438,-1.4821,-1.492,-1.453,-1.4561,-1.4673,-1.4907,-1.5224,-1.593,-1.698,-1.7728,-1.8265,-1.8546,-1.6873,-1.7108,0.0,0.0,0.0,0.0,0.0,0.0,0.0,0.0,0.0,0.0,0.0,0.0,0.0,0.0,0.0,-1.2896,-1.3228,-1.3434,-1.3502,-1.3511,-1.3631,-1.401,-1.4965,-1.6376,-1.8363,-1.8913,-1.9817,-2.1438,-2.1531,-2.1369,-2.1065,-2.2262,0.0,-2.1629,-2.299,-2.3426,-2.2801,-2.382,-2.4025,-2.3422,0.0,0.0,-2.2237,-2.1376,-2.1186,-2.1538,-2.1538,-2.1331,-2.0943,-2.0943,-2.0493,-1.9751,-1.9285,-1.9108,-1.9108,-1.9108,-1.9108,-1.9108,-1.9108,-1.9108,-1.9108,-1.9108,-1.9046,-1.8984,-1.9077,-1.8984,0.0,-1.9056,-1.8714,-1.8175,-1.7792,-1.7358,-1.6903,-1.6487,-1.6413,-1.6413,-1.6413,-1.6413,-1.6413,-1.6413,-1.6413,-1.6413,-1.6413,-1.6413,-1.6413,-1.6413,-1.6413,-1.6413,-1.6413,-1.6413,-1.6413,-1.6413,-1.6413,-1.6216,-1.5732,-1.5691,-1.5452,-1.4894,-1.5297,-1.5612,-1.5759,-1.6119,-1.6249,-1.6146,-1.6833,-1.7296,-1.7462,-1.826,-1.8843,-1.9222,-1.9183,-1.9141,0.0,0.0,0.0,0.0,0.0,0.0,0.0,0.0,0.0,0.0,0.0,-1.1727,-1.2676,0.0,-1.2936,-1.3553,-1.3725,-1.3802,-1.3802,-1.3973,-1.4118,-1.4145,-1.5605,-1.705,-1.8251,-1.9505,-2.0696,-2.1828,-2.1618,-2.1507,-2.1674,-2.2176,-2.247,-2.2558,-2.3209,-2.3764,-2.4234,-2.4303,-2.4215,-2.4,-2.3161,-2.2664,-2.2402,-2.1757,-2.159,-2.1807,-2.1807,-2.1673,-2.1445,-2.1207,-2.071,-2.0048,-1.9627,-1.9305,-1.9108,-1.9108,-1.9108,-1.9108,-1.9108,-1.9108,-1.9108,-1.9108,-1.9108,-1.9108,-1.9108,-1.9108,-1.9108,-1.9108,-1.8932,-1.8652,-1.8175,-1.7688,-1.7244,-1.6789,-1.6539,-1.6413,-1.6413,-1.6413,-1.6413,-1.6413,-1.6413,-1.6413,-1.6413,-1.6413,-1.6413,-1.6413,-1.6413,-1.6413,-1.6413,-1.6413,-1.6413,-1.6413,-1.6413,-1.6319,-1.6081,-1.5853,-1.5691,-1.5691,-1.5691,-1.5877,-1.6234,-1.6606,-1.6757,-1.6649,-1.733,-1.7686,-1.7642,-1.8174,-1.8679,-1.9117,-1.9533,-1.9733,0.0,0.0,0.0,0.0,0.0,0.0,0.0,0.0,-1.1565,-1.2303,-1.2532,-1.2968,-1.4211,-1.3783,-1.3468,-1.4213,-1.4206,-1.4119,-1.4204,-1.4487,-1.459,-1.4341,-1.623,-1.7663,-1.7927,-1.9675,-2.1066,-2.1677,-2.1232,-2.1182,-2.1829,-2.1852,-2.2281,-2.3339,-2.3424,-2.4128,-2.5452,-2.4723,-2.4313,-2.4276,-2.3232,-2.2607,-2.2252,-2.1959,-2.1807,-2.1807,-2.1807,-2.1807,-2.1766,-2.13,-2.0897,-2.0503,-2.0,-1.9564,-1.9222,-1.9139,-1.916,-1.9222,-1.9139,-1.9108,-1.9108,-1.9108,-1.9108,-1.9108,-1.9108,-1.9108,-1.9108,-1.9108,-1.9108,-1.8994,-1.8528,-1.8123,-1.7709,-1.7254,-1.6839,-1.6508,-1.6508,-1.6475,-1.6433,-1.6498,-1.6436,-1.6405,-1.6498,-1.6464,-1.6413,-1.6413,-1.6413,-1.6413,-1.6413,-1.6413,-1.6413,-1.6413,-1.6413,-1.6413,-1.6413,-1.6042,-1.6008,-1.6381,-1.606,-1.6046,-1.6449,-1.6676,-1.6807,-1.6864,-1.7434,-1.7711,-1.7711,-1.8077,-1.8452,-1.8829,-1.9297,-1.9738,-0.7747,-0.8098,-0.8688,-0.9515,-0.999,-1.0779,0.0,0.0,-1.3306,-1.4272,-1.4587,-1.472,-1.4891,-1.4467,-1.4222,-1.4669,-1.4372,-1.4221,-1.4572,-1.4658,-1.4786,-1.506,-1.6411,-1.7554,-1.8116,-1.8524,-1.9385,-2.0968,-2.0115,-1.9989,-2.1056,-2.228,-2.2819,-2.2639,-2.4461,-2.5209,-2.4618,-2.5656,-2.5403,-2.3859,-2.37,-2.3019,-2.1883,-2.1807,-2.1807,-2.1807,-2.1807,-2.1807,-2.1766,-2.13,-2.1083,-2.0948,-2.0124,-1.9761,-1.9668,-1.9253,-1.9357,-1.9658,-1.9243,-1.9108,-1.9108,-1.9108,-1.9108,-1.9108,-1.9108,-1.9108,-1.9108,-1.9108,-1.9108,-1.8994,-1.8528,-1.8372,-1.8195,-1.773,-1.7275,-1.6944,-1.6944,-1.6653,-1.6498,-1.6862,-1.6653,-1.6508,-1.6872,-1.6643,-1.6413,-1.6413,-1.6413,-1.6413,-1.6413,-1.6413,-1.6413,-1.6413,-1.6413,-1.6413,-1.6413,-1.6361,-1.635,-1.6402,-1.6361,-1.6464,-1.6733,-1.6779,-1.692,-1.7134,-1.7507,-1.7711,-1.7711,-1.8458,-1.8844,-1.8912,-1.9443,-1.965,-0.9201,-0.9478,0.0,0.0,-1.132,-1.1795,-1.3161,-1.3825,-1.4399,-1.5149,-1.5105,-1.4955,-1.4955,-1.43,-1.3913,0.0,-1.4409,-1.4572,-1.4941,-1.5189,-1.5309,-1.5223,-1.6295,-1.713,-1.7252,-1.8333,-1.9367,-2.0133,-1.9828,-2.004,-2.1003,-2.2145,-2.2904,-2.3304,-2.4461,-2.5367,-2.6073,-2.5566,-2.5068,-2.4616,-2.4089,-2.3438,-2.2604,-2.2335,-2.2066,-2.1807,-2.1807,-2.1807,-2.1787,-2.16,-2.1362,-2.1073,-2.07,-2.0389,-2.0058,-1.9367,-1.9222,-1.9367,-1.917,-1.9108,-1.9108,-1.9108,-1.9108,-1.9108,-1.9108,-1.9108,-1.9108,-1.9108,-1.9108,-1.9056,-1.887,-1.8611,-1.8362,-1.8154,-1.774,-1.742,-1.742,-1.7275,-1.7222,-1.7378,-1.7265,-1.7192,-1.7389,-1.7254,-1.7171,-1.7171,-1.6715,-1.6413,-1.6413,-1.6413,-1.6413,-1.6413,-1.6413,-1.6413,-1.6413,-1.6413,-1.6413,-1.6413,-1.6413,-1.6459,-1.6573,-1.6733,-1.6835,-1.6976,-1.754,-1.7939,-1.8165,-1.8735,-1.9129,-1.9378,-1.9884,-2.0077,-0.9693,0.0,0.0,-1.1528,-1.2,-1.2445,-1.3413,-1.412,-1.4813,-1.5704,-1.5373,-1.4935,-1.4903,-1.4231,0.0,-1.421,-1.4495,-1.4846,-1.5309,-1.5531,-1.5574,-1.5394,-1.6105,-1.6573,-1.647,-1.796,-1.9121,-1.9507,-1.9354,-1.9688,-2.0642,-2.1447,-2.2343,-2.3409,-2.3999,-2.4925,-2.6177,-2.5211,-2.4545,-2.423,-2.4023,-2.3546,-2.2879,-2.2628,-2.2242,-2.1807,-2.1807,-2.1807,-2.1807,-2.1807,-2.1611,-2.129,-2.1166,-2.0907,-2.0503,-1.9592,-1.9295,-1.9274,-1.915,-1.9108,-1.9108,-1.9108,-1.9108,-1.9108,-1.9108,-1.9108,-1.9108,-1.9108,-1.9108,-1.9108,-1.9108,-1.8849,-1.86,-1.86,-1.8237,-1.7884,-1.7884,-1.7781,-1.774,-1.7854,-1.7781,-1.774,-1.7854,-1.7781,-1.7699,-1.7699,-1.7171,-1.6705,-1.6581,-1.6456,-1.6413,-1.6413,-1.6413,-1.6413,-1.6413,-1.6413,-1.6464,-1.656,-1.656,-1.668,-1.6892,-1.7096,-1.723,-1.7287,-1.7901,-1.8379,-1.867,-1.9194,-1.9621,-1.9895,-2.0389,-2.0618,0.0,0.0,-1.0149,-1.0696,-1.1492,-1.2529,-1.4178,-1.423,-1.4388,-1.6045,-1.5636,-1.4988,-1.4905,-1.4508,-1.4298,-1.4636,-1.4675,-1.4941,-1.5677,-1.5463,-1.5369,-1.5737,-1.5814,-1.5902,0.0,-1.6978,-1.8042,-1.9219,-1.8406,-1.8373,-1.9598,-2.0057,-2.0891,-2.2196,-2.3283,-2.3759,-2.3624,-2.4647,-2.4048,-2.1802,-2.3219,-2.3298,-2.2124,-2.238,-2.2242,-2.1807,-2.1807,-2.1807,-2.1807,-2.1807,-2.1797,-2.1745,-2.129,-2.1104,-2.0979,-2.0114,-1.9772,-1.971,-1.9264,-1.9108,-1.9108,-1.9108,-1.9108,-1.9108,-1.9108,-1.9108,-1.9108,-1.9108,-1.9108,-1.9108,-1.9108,-1.9088,-1.9088,-1.9088,-1.8725,-1.8393,-1.8393,-1.803,-1.7823,-1.8278,-1.8019,-1.7833,-1.8288,-1.8009,-1.7699,-1.7699,-1.7678,-1.7502,-1.7048,-1.6643,-1.6413,-1.6413,-1.6413,-1.6413,-1.6413,-1.6413,-1.657,-1.6965,-1.6996,-1.7312,-1.8108,-1.8159,-1.8271,-1.8544,-1.8895,-1.9074,-1.9074,-1.9954,-2.0358,-2.04,-2.0937,-2.1178,0.0,0.0,-1.1265,-1.2124,-1.2575,-1.3086,-1.4059,-1.4205,-1.4419,-1.5281,-1.4979,-1.4449,-1.4145,-1.3929,-1.3915,-1.4233,-1.4512,-1.4949,-1.5694,-1.5899,-1.5961,-1.5814,-1.6242,0.0,0.0,0.0,0.0,-1.8076,-1.817,-1.8428,-1.8972,-1.9993,-2.0825,-2.1511,-2.2463,-2.32,-2.3694,-2.3444,-2.3104,-2.2664,-2.3308,-2.3374,-2.2849,-2.2938,-2.2532,-2.1807,-2.1807,-2.1807,-2.1807,-2.1807,-2.1807,-2.1787,-2.1631,-2.1383,-2.1041,-2.042,-2.0017,-1.973,-1.9264,-1.9108,-1.9108,-1.9108,-1.9108,-1.9108,-1.9108,-1.9108,-1.9108,-1.9108,-1.9108,-1.9108,-1.9108,-1.9108,-1.9108,-1.9108,-1.8984,-1.887,-1.887,-1.8756,-1.8661,-1.8839,-1.8756,-1.8661,-1.8849,-1.8713,-1.8516,-1.8206,-1.7626,-1.7192,-1.7027,-1.6653,-1.6413,-1.6413,-1.6413,-1.6498,-1.6769,-1.6789,-1.6986,-1.744,-1.7471,-1.7605,-1.7853,-1.7864,-1.7915,-1.8007,-1.8416,-1.8752,-1.897,-1.9585,-2.0102,-2.0527,-2.0728,-2.0935,-1.0865,-1.1367,-1.1837,-1.2856,-1.3258,-1.3586,-1.4216,-1.4291,-1.4388,-1.4904,-1.4628,-1.4192,-1.3771,-1.3645,-1.3753,-1.4041,-1.4307,-1.4829,-1.5857,-1.6124,-1.6201,-1.6199,-1.6627,0.0,0.0,0.0,0.0,-1.8046,-1.8157,-1.8464,-1.912,-1.9872,-2.0497,-2.1025,-2.1787,-2.2465,-2.2935,-2.2561,-2.2503,-2.2664,-2.2804,-2.2747,-2.2604,-2.2855,-2.2532,-2.1807,-2.1807,-2.1807,-2.1807,-2.1807,-2.1807,-2.1807,-2.1807,-2.1621,-2.128,-2.0622,-2.0245,-1.9948,-1.9316,-1.9108,-1.9108,-1.9108,-1.9108,-1.9108,-1.9108,-1.9108,-1.9108,-1.9108,-1.9108,-1.9108,-1.9108,-1.9108,-1.9108,-1.9108,-1.9108,-1.9108,-1.9108,-1.9108,-1.9108,-1.9108,-1.9108,-1.9108,-1.9108,-1.9108,-1.9005,-1.8704,-1.7999,-1.743,-1.7275,-1.7006,-1.686,-1.686,-1.686,-1.6984,-1.7234,-1.7254,-1.7451,-1.7936,-1.7968,-1.804,-1.8206,-1.8206,-1.8206,-1.8206,-1.8614,-1.8922,-1.9147,-1.9576,-2.0053,-2.0603,-2.0603,-2.0897,-1.1015,-1.1376,-1.1941,-1.2893,-1.3492,-1.4022,-1.4631,-1.4435,-1.4266,-1.4816,-1.4573,-1.4134,0.0,0.0,-1.3756,-1.4017,-1.4084,-1.4649,-1.6175,-1.6107,-1.6139,0.0,0.0,0.0,0.0,0.0,0.0,-1.9076,0.0,-1.8417,-1.9793,-1.9606,-1.9874,-2.0708,-2.1349,-2.1544,-2.1356,-2.1961,-2.217,-2.1888,-2.1702,-2.1594,-2.1531,-2.2176,-2.2203,-2.1807,-2.1807,-2.1807,-2.1807,-2.1807,-2.1807,-2.1807,-2.1807,-2.1807,-2.1694,-2.0757,-2.0405,-2.0296,-1.944,-1.9119,-1.9108,-1.9108,-1.9108,-1.9108,-1.9108,-1.9108,-1.9108,-1.9108,-1.9108,-1.9108,-1.9108,-1.9108,-1.9108,-1.9108,-1.9108,-1.9108,-1.9108,-1.9108,-1.9108,-1.9108,-1.9108,-1.9108,-1.9108,-1.9108,-1.9108,-1.9108,-1.8725,-1.8257,-1.7792,-1.7719,-1.7699,-1.7699,-1.7699,-1.7709,-1.773,-1.774,-1.7957,-1.8414,-1.8445,-1.8642,-1.9088,-1.9108,-1.9108,-1.9108,-1.9407,-1.9572,-1.9572,-1.9879,-2.0237,-2.0539,-2.0593,-2.1068,-1.1795,-1.2529,-1.3249,-1.3599,-1.411,-1.4492,-1.4323,-1.4261,-1.4192,-1.3989,-1.3845,-1.3484,-1.2532,0.0,0.0,-1.3315,-1.3973,0.0,-1.6218,-1.6516,0.0,-1.7624,0.0,-1.7543,-1.8108,-1.8123,0.0,0.0,-1.8917,-1.8859,-1.9338,-1.9322,-1.9496,-1.9991,-2.0639,-2.0862,-2.06,-2.0736,-2.1078,-2.1513,-2.1211,-2.1353,-2.1956,-2.182,-2.1793,-2.1807,-2.1807,-2.1807,-2.1807,-2.1807,-2.1807,-2.1807,-2.1807,-2.1807,-2.1735,-2.1155,-2.0684,-2.0348,-1.9813,-1.9388,-1.9108,-1.9108,-1.9108,-1.9108,-1.9108,-1.9108,-1.9108,-1.9108,-1.9108,-1.9108,-1.9108,-1.9108,-1.9108,-1.9108,-1.9108,-1.9108,-1.9108,-1.9108,-1.9108,-1.9108,-1.9108,-1.9108,-1.9108,-1.9108,-1.9108,-1.9108,-1.9005,-1.8766,-1.8278,-1.7936,-1.7699,-1.7699,-1.7699,-1.7833,-1.8185,-1.8216,-1.8402,-1.8901,-1.8922,-1.8984,-1.9098,-1.9108,-1.9108,-1.9108,-1.9175,-1.9241,-1.9241,-1.9297,-1.9528,-1.9878,-2.0533,-2.1063,-1.2204,-1.3029,-1.3828,-1.403,-1.448,-1.4764,-1.4284,-1.4093,-1.3845,-1.339,-1.3155,0.0,-1.1782,0.0,0.0,0.0,0.0,0.0,-1.6165,-1.6679,-1.7261,0.0,-1.8091,0.0,-1.8827,-1.8656,-1.8816,0.0,-1.9235,-1.9271,-1.9817,-1.9592,-1.9598,-1.9975,-2.0376,-2.0472,-2.0292,-2.0435,-2.0492,-2.0448,-2.0307,-2.0416,-2.0754,-2.1095,-2.129,-2.1415,0.0,-2.1807,-2.1807,-2.1807,-2.1807,-2.1807,-2.1807,-2.1807,-2.1745,-2.128,-2.0788,-2.0358,-1.9948,-1.9492,-1.9108,-1.9108,-1.9108,-1.9108,-1.9108,-1.9108,-1.9108,-1.9108,-1.9108,-1.9108,-1.9108,-1.9108,-1.9108,-1.9108,-1.9108,-1.9108,-1.9108,-1.9108,-1.9108,-1.9108,-1.9108,-1.9108,-1.9108,-1.9108,-1.9108,-1.9108,-1.9108,-1.9005,-1.8745,-1.8464,-1.8319,-1.8319,-1.8319,-1.8413,-1.8694,-1.8714,-1.8828,-1.9088,-1.9108,-1.9108,-1.9108,-1.9108,-1.9108,-1.9108,-1.9108,-1.9108,-1.9108,-1.9108,-1.9274,-1.9615,-2.0296,-2.0936,-1.2274,-1.306,-1.3895,-1.4165,-1.4607,-1.4871,-1.4399,-1.3947,-1.3462,-1.2998,0.0,-1.2062,-1.1257,-1.1766,-1.2312,-1.231,0.0,-1.4547,-1.6009,-1.6602,-1.7278,-1.8451,-1.8588,-1.8785,-1.9316,-1.9281,-1.941,-1.9742,-1.9461,-1.9661,-2.0596,-2.0113,-1.9958,-2.0411,-2.0337,-2.0357,-2.0477,-2.0686,-2.0278,-1.9333,-1.9428,-1.9349,-1.9114,-2.0147,-2.075,-2.0944,0.0,0.0,-2.1807,-2.1807,-2.1807,-2.1807,-2.1807,-2.1807,-2.1756,-2.1352,-2.0917,-2.0416,-2.0006,-1.9585,-1.9181,-1.9119,-1.9108,-1.9108,-1.9108,-1.9108,-1.9108,-1.9108,-1.9108,-1.9108,-1.9108,-1.9108,-1.9108,-1.9108,-1.9108,-1.9108,-1.9108,-1.9108,-1.9108,-1.9108,-1.9108,-1.9108,-1.9108,-1.9108,-1.9108,-1.9108,-1.9108,-1.9108,-1.9108,-1.9108,-1.9108,-1.9108,-1.9108,-1.9108,-1.9108,-1.9108,-1.9108,-1.9108,-1.9108,-1.9108,-1.9108,-1.9108,-1.9108,-1.9108,-1.9108,-1.9108,-1.9108,-1.9108,-1.9241,-1.956,-2.0124,-2.0799,-1.1959,-1.2752,-1.3603,-1.376,-1.4412,-1.4871,-1.4399,-1.3947,0.0,0.0,0.0,-1.197,-1.0905,-1.1578,0.0,-1.1938,0.0,0.0,0.0,0.0,-1.7016,0.0,0.0,0.0,0.0,0.0,0.0,0.0,0.0,0.0,-2.0352,-2.0243,-2.0494,-2.1177,-2.06,-2.0659,-2.1451,-2.0962,-2.0476,-1.992,-1.9635,-1.9484,-1.9403,-1.9377,-1.9893,-2.0905,0.0,0.0,-2.1807,-2.1807,-2.1807,-2.1807,-2.1807,-2.1807,-2.1797,-2.1714,-2.1393,-2.0928,-2.0436,-2.0017,-1.9616,-1.9233,-1.9108,-1.9108,-1.9108,-1.9108,-1.9108,-1.9108,-1.9108,-1.9108,-1.9108,-1.9108,-1.9108,-1.9108,-1.9108,-1.9108,-1.9108,-1.9108,-1.9108,-1.9108,-1.9108,-1.9108,-1.9108,-1.9108,-1.9108,-1.9108,-1.9108,-1.9108,-1.9108,-1.9108,-1.9108,-1.9108,-1.9108,-1.9108,-1.9108,-1.9108,-1.9108,-1.9108,-1.9108,-1.9108,-1.9108,-1.9108,-1.9108,-1.9108,-1.9108,-1.9108,-1.9108,-1.9108,-1.9131,-1.9229,-2.0329,-2.0948,-1.1421,-1.2166,-1.2986,-1.3259,-1.3798,-1.4115,-1.3494,0.0,0.0,0.0,0.0,-1.1348,-1.0625,0.0,0.0,0.0,0.0,0.0,0.0,0.0,0.0,0.0,0.0,0.0,0.0,0.0,0.0,0.0,0.0,0.0,0.0,-1.9821,-1.9877,-2.0228,-2.0263,-2.0297,-2.0411,-2.0576,-2.0374,-1.9808,-1.9719,-1.9527,-1.9223,-1.9384,-1.9608,-1.9932,0.0,0.0,-2.1377,-2.1683,-2.1807,-2.1807,-2.1807,-2.1807,-2.1807,-2.1807,-2.1507,-2.1041,-2.055,-2.0131,-1.972,-1.9253,-1.9108,-1.9108,-1.9108,-1.9108,-1.9108,-1.9108,-1.9108,-1.9108,-1.9108,-1.9108,-1.9108,-1.9108,-1.9108,-1.9108,-1.9108,-1.9108,-1.9108,-1.9108,-1.9108,-1.9108,-1.9108,-1.9108,-1.9108,-1.9108,-1.9108,-1.9108,-1.9108,-1.9108,-1.9108,-1.9108,-1.9108,-1.9108,-1.9108,-1.9108,-1.9108,-1.9108,-1.9108,-1.9108,-1.9108,-1.9108,-1.9108,-1.9108,-1.9108,-1.9108,-1.9108,-1.9108,-1.9108,-1.9129,-2.0205,-2.0705,-1.0965,-1.1575,-1.2379,-1.2761,-1.3113,-1.3221,-1.2691,-1.2371,0.0,0.0,-1.1053,-1.0805,-1.0467,0.0,0.0,0.0,0.0,0.0,0.0,0.0,0.0,0.0,0.0,0.0,0.0,0.0,0.0,0.0,0.0,0.0,0.0,-1.9333,-1.9213,-1.9213,-1.9708,-1.9749,-1.9254,-2.0003,-2.0046,-1.9394,-1.9748,-1.9559,-1.9002,-1.949,-1.952,-1.9222,0.0,0.0,0.0,-2.1415,-2.1683,-2.1807,-2.1807,-2.1807,-2.1807,-2.1807,-2.158,-2.1186,-2.0581,-2.0193,-1.9844,-1.9285,-1.9108,-1.9108,-1.9108,-1.9108,-1.9108,-1.9108,-1.9108,-1.9108,-1.9108,-1.9108,-1.9108,-1.9108,-1.9108,-1.9108,-1.9108,-1.9108,-1.9108,-1.9108,-1.9108,-1.9108,-1.9108,-1.9108,-1.9108,-1.9108,-1.9108,-1.9108,-1.9108,-1.9108,-1.9108,-1.9108,-1.9108,-1.9108,-1.9108,-1.9108,-1.9108,-1.9108,-1.9108,-1.9108,-1.9108,-1.9108,-1.9108,-1.9108,-1.9108,-1.9108,-1.9108,-1.9108,-1.9108,-1.9129,-1.9996,-2.0385,-1.0682,-1.1185,-1.1937,-1.2342,-1.2491,-1.258,-1.2802,0.0,0.0,-1.1583,-1.121,-1.0805,-1.0467,-1.0483,0.0,0.0,0.0,0.0,0.0,0.0,0.0,0.0,0.0,0.0,0.0,0.0,0.0,0.0,0.0,0.0,0.0,-1.9239,-1.9213,-1.9213,-1.9256,-1.9338,-1.946,-1.9579,-1.943,-1.9056,-1.9618,-1.9559,-1.9002,-1.9073,-1.9341,-1.9786,0.0,0.0,0.0,-2.0944,-2.129,-2.1807,-2.1807,-2.1807,-2.1807,-2.1807,-2.1776,-2.1621,-2.0695,-2.0364,-2.0224,-1.9388,-1.9108,-1.9108,-1.9108,-1.9108,-1.9108,-1.9108,-1.9108,-1.9108,-1.9108,-1.9108,-1.9108,-1.9108,-1.9108,-1.9108,-1.9108,-1.9108,-1.9108,-1.9108,-1.9108,-1.9108,-1.9108,-1.9108,-1.9108,-1.9108,-1.9108,-1.9108,-1.9108,-1.9108,-1.9108,-1.9108,-1.9108,-1.9108,-1.9108,-1.9108,-1.9108,-1.9108,-1.9108,-1.9108,-1.9108,-1.9108,-1.9108,-1.9108,-1.9108,-1.9108,-1.9108,-1.9108,-1.9108,-1.9129,-1.9996,-2.0385,-1.0939,-1.1265,-1.1658,-1.2004,-1.2419,-1.2619,-1.2019,0.0,-1.1847,-1.1055,-1.0898,-1.0862,-1.0737,-1.0548,-1.0596,0.0,-1.1104,-1.1617,0.0,0.0,0.0,0.0,0.0,0.0,0.0,0.0,0.0,0.0,0.0,0.0,0.0,0.0,-1.8494,-1.8494,-1.8494,-1.854,-1.8612,-1.8976,-1.9146,-1.9002,-1.9599,-1.9559,-1.9002,-1.9381,-1.949,0.0,0.0,0.0,0.0,-2.0741,-2.1059,-2.127,-2.1347,-2.1393,-2.1393,-2.1393,-2.1217,-2.0881,-2.0519,-2.0245,-1.9958,-1.9316,-1.9108,-1.915,-1.944,-1.9326,-1.916,-1.944,-1.9316,-1.9108,-1.9108,-1.9108,-1.9108,-1.9108,-1.9108,-1.9108,-1.9108,-1.9108,-1.9108,-1.9108,-1.9108,-1.9108,-1.9108,-1.9108,-1.9108,-1.9108,-1.9108,-1.9108,-1.9108,-1.9108,-1.9108,-1.9108,-1.9108,-1.9108,-1.9108,-1.9108,-1.9108,-1.9108,-1.9108,-1.9108,-1.9108,-1.9108,-1.9108,-1.9108,-1.9108,-1.9108,-1.9108,-1.9108,-1.9253,-1.9533,-2.0131,-2.054,-1.1065,-1.1216,-1.1376,-1.195,-1.2303,-1.2295,0.0,0.0,-1.1659,-1.0597,-1.0669,-1.091,-1.091,-1.0631,-1.0547,0.0,-1.0926,-1.1305,-1.278,0.0,0.0,0.0,0.0,0.0,0.0,0.0,0.0,0.0,0.0,0.0,0.0,0.0,-1.8,-1.8,-1.8,-1.8,-1.8,-1.8482,-1.8723,-1.8714,-1.9332,-1.9411,-1.9002,-1.945,-1.949,0.0,0.0,0.0,0.0,-2.0178,-2.0477,-2.0943,-2.0903,-2.0884,-2.0891,-2.0999,-2.0751,-2.0364,-2.0205,-1.9992,-1.972,-1.9253,-1.9108,-1.9191,-1.9658,-1.9471,-1.917,-1.9502,-1.9357,-1.9108,-1.9108,-1.9108,-1.9108,-1.9108,-1.9108,-1.9108,-1.9108,-1.9108,-1.9108,-1.9108,-1.9108,-1.9108,-1.9108,-1.9108,-1.9108,-1.9108,-1.9108,-1.9108,-1.9108,-1.9108,-1.9108,-1.9108,-1.9108,-1.9108,-1.9108,-1.9108,-1.9108,-1.9108,-1.9108,-1.9108,-1.9108,-1.9108,-1.9108,-1.9108,-1.9108,-1.9108,-1.9108,-1.9108,-1.9347,-1.9803,-2.0213,-2.0741,-1.0973,-1.0905,-1.115,-1.2224,-1.1902,-1.1391,0.0,-1.1441,-1.0974,-1.0508,-1.0669,-1.091,-1.091,-1.0631,-1.0547,-1.1013,-1.115,-1.1609,-1.2823,0.0,0.0,0.0,0.0,0.0,0.0,0.0,0.0,0.0,0.0,0.0,0.0,0.0,-1.8,-1.8,-1.8,-1.8,-1.8,-1.8,-1.7991,-1.804,-1.8674,-1.9002,-1.9002,-1.9002,0.0,0.0,0.0,0.0,0.0,-1.9132,-1.9487,-2.105,-2.0531,-2.036,-2.0457,-2.0786,-2.0699,-2.0323,-1.9715,-1.963,-1.972,-1.9253,-1.9108,-1.9191,-1.9658,-1.9471,-1.9108,-1.9108,-1.9108,-1.9108,-1.9108,-1.9108,-1.9108,-1.9108,-1.9108,-1.9108,-1.9108,-1.9108,-1.9108,-1.9108,-1.9108,-1.9108,-1.9108,-1.9108,-1.9108,-1.9108,-1.9108,-1.9108,-1.9108,-1.9108,-1.9108,-1.9108,-1.9108,-1.9108,-1.9108,-1.9108,-1.9108,-1.9108,-1.9108,-1.9108,-1.9108,-1.9108,-1.9108,-1.9108,-1.9108,-1.9108,-1.9108,-1.9108,-1.9347,-1.9803,-2.0213,-2.0881,-1.0816,-1.0876,-1.0782,-1.0848,-1.109,-1.1175,-1.0745,-1.0916,-1.103,-1.0499,-1.0486,-1.0631,-1.0862,-1.0813,-1.0905,-1.1425,-1.1533,0.0,0.0,0.0,0.0,0.0,0.0,0.0,0.0,0.0,0.0,0.0,0.0,0.0,0.0,0.0,0.0,-1.8,-1.8,-1.8,-1.8,-1.8,-1.8,-1.8,-1.8241,-1.8322,-1.8313,0.0,0.0,0.0,0.0,0.0,0.0,-1.9315,-1.9736,-2.0873,-2.0086,-1.9976,-2.0216,-1.9875,-1.9554,-1.9325,-1.9465,-1.9414,-1.9295,-1.915,-1.9108,-1.9129,-1.9285,-1.9222,-1.9108,-1.9108,-1.9108,-1.9108,-1.9108,-1.9108,-1.9108,-1.9108,-1.9108,-1.9108,-1.9108,-1.9108,-1.9108,-1.9108,-1.9108,-1.9108,-1.9108,-1.9108,-1.9108,-1.9108,-1.9108,-1.9108,-1.9108,-1.9108,-1.9108,-1.9108,-1.9108,-1.9108,-1.9108,-1.9108,-1.9108,-1.9108,-1.9108,-1.9108,-1.9108,-1.9108,-1.9108,-1.9108,-1.9108,-1.9108,-1.9108,-1.9108,-1.9468,-2.0234,-2.101,-2.1528,0.0,-1.0456,-1.0329,-1.0334,-1.0584,-1.0708,-1.0257,-1.0474,-1.0669,-1.0321,-1.0322,-1.0457,-1.0669,-1.0718,-1.0895,-1.141,-1.1375,0.0,0.0,0.0,0.0,0.0,0.0,0.0,0.0,0.0,0.0,0.0,0.0,0.0,0.0,0.0,0.0,-1.8,-1.8,-1.8,-1.8,-1.8,-1.8,-1.8,-1.8,-1.8,-1.7991,0.0,0.0,0.0,0.0,0.0,0.0,-1.905,-1.9307,-2.0216,-1.9659,-1.9495,-1.9505,-1.9219,-1.8932,-1.8714,-1.9032,-1.9043,-1.9008,-1.9075,-1.9108,-1.9108,-1.9108,-1.9108,-1.9108,-1.9108,-1.9108,-1.9108,-1.9108,-1.9108,-1.9108,-1.9108,-1.9108,-1.9108,-1.9108,-1.9108,-1.9108,-1.9108,-1.9108,-1.9108,-1.9108,-1.9108,-1.9108,-1.9108,-1.9108,-1.9108,-1.9108,-1.9108,-1.9108,-1.9108,-1.9108,-1.9108,-1.9108,-1.9108,-1.9108,-1.9108,-1.9108,-1.9108,-1.9108,-1.9108,-1.9108,-1.9108,-1.9108,-1.9108,-1.9108,-1.9417,-1.9872,-2.0416,-2.1373,-2.1807,0.0,-0.9709,-0.9762,-1.0361,-1.0263,-1.0024,-1.0062,-1.0068,0.0,-1.0006,-1.0205,-1.039,-1.0419,-1.0468,-1.0645,-1.1145,0.0,0.0,0.0,0.0,0.0,0.0,0.0,0.0,0.0,0.0,0.0,0.0,0.0,0.0,0.0,0.0,0.0,0.0,-1.7957,-1.7965,-1.8,-1.8,-1.8,-1.8,-1.8,-1.8,-1.8,0.0,0.0,0.0,0.0,0.0,0.0,-1.8346,-1.8341,-1.9224,-1.9248,-1.8952,-1.8572,-1.8815,-1.873,-1.8482,-1.8482,-1.8617,-1.8841,-1.9031,-1.9108,-1.9108,-1.9108,-1.9108,-1.9108,-1.9108,-1.9108,-1.9108,-1.9108,-1.9108,-1.9108,-1.9108,-1.9108,-1.9108,-1.9108,-1.9108,-1.9108,-1.9108,-1.9108,-1.9108,-1.9108,-1.9108,-1.9108,-1.9108,-1.9108,-1.9108,-1.9108,-1.9108,-1.9108,-1.9108,-1.9108,-1.9108,-1.9108,-1.9108,-1.9108,-1.9108,-1.9108,-1.9108,-1.9108,-1.9108,-1.9108,-1.9108,-1.9108,-1.9119,-1.915,-1.9996,-2.0405,-2.0457,-2.1393,-2.1807,-0.8706,0.0,-0.8943,-0.8626,-0.8912,-0.9199,0.0,-0.9313,-0.9761,-0.9956,-1.0059,-1.0253,-1.0753,-1.1116,-1.1383,0.0,0.0,0.0,0.0,0.0,0.0,0.0,0.0,0.0,0.0,0.0,0.0,0.0,0.0,0.0,0.0,0.0,0.0,0.0,-1.7603,-1.774,-1.7991,-1.8,-1.8,-1.8,-1.8,-1.8,0.0,0.0,0.0,0.0,0.0,0.0,0.0,-1.7234,-1.7805,-1.9192,-1.8336,-1.837,-1.8815,-1.8414,-1.8266,-1.8347,-1.8347,-1.8549,-1.8841,-1.9031,-1.9108,-1.9108,-1.9108,-1.9108,-1.9108,-1.9108,-1.9108,-1.9108,-1.9108,-1.9108,-1.9108,-1.9108,-1.9108,-1.9108,-1.9108,-1.9108,-1.9108,-1.9108,-1.9108,-1.9108,-1.9108,-1.9108,-1.9108,-1.9108,-1.9108,-1.9108,-1.9108,-1.9108,-1.9108,-1.9108,-1.9108,-1.9108,-1.9108,-1.9108,-1.9108,-1.9108,-1.9108,-1.9108,-1.9108,-1.9108,-1.9108,-1.9108,-1.9108,-1.9285,-1.9637,-2.0151,-2.0571,-2.0969,-2.1538,-2.1807,-0.8057,-0.8521,-0.9003,-0.8667,-0.8932,-0.9238,-0.9044,-0.917,-0.9459,-0.9909,0.0,0.0,0.0,0.0,0.0,0.0,0.0,0.0,0.0,0.0,0.0,0.0,0.0,0.0,0.0,0.0,0.0,0.0,0.0,0.0,0.0,0.0,0.0,0.0,0.0,-1.7398,-1.7775,-1.7914,-1.8,-1.8,-1.782,-1.7775,0.0,0.0,0.0,0.0,0.0,0.0,-1.6859,-1.6472,-1.6842,-1.7664,-1.7306,-1.7535,-1.7989,-1.7621,-1.7794,-1.8178,-1.8269,-1.8506,-1.8808,-1.8942,-1.9008,-1.9108,-1.9108,-1.9108,-1.9108,-1.9108,-1.9108,-1.9108,-1.9108,-1.9108,-1.9108,-1.9108,-1.9108,-1.9108,-1.9108,-1.9108,-1.9108,-1.9108,-1.9108,-1.9108,-1.9108,-1.9108,-1.9108,-1.9108,-1.9108,-1.9108,-1.9108,-1.9108,-1.9108,-1.9108,-1.9108,-1.9108,-1.9108,-1.9108,-1.9108,-1.9108,-1.9108,-1.9108,-1.9108,-1.9108,-1.9108,-1.9108,-1.9108,-1.9233,-1.9482,-1.9903,-2.0348,-2.0803,-2.1269,-2.16,-0.7821,-0.8571,-0.9392,-0.9135,-0.9351,-0.9589,-0.9593,0.0,0.0,0.0,0.0,0.0,0.0,-1.1107,0.0,0.0,0.0,0.0,0.0,0.0,0.0,0.0,0.0,0.0,0.0,0.0,0.0,0.0,0.0,0.0,0.0,0.0,0.0,0.0,0.0,0.0,-1.7325,-1.768,-1.7829,-1.782,-1.7535,-1.7381,-1.7294,-1.6618,0.0,0.0,0.0,0.0,-1.5624,-1.5737,-1.5761,-1.5724,-1.6257,-1.6643,-1.6897,-1.6897,-1.7364,-1.8042,-1.8245,-1.8472,-1.8741,-1.8774,-1.8908,-1.9075,-1.9108,-1.9108,-1.9108,-1.9108,-1.9108,-1.9108,-1.9108,-1.9108,-1.9108,-1.9108,-1.9108,-1.9108,-1.9108,-1.9108,-1.9108,-1.9108,-1.9108,-1.9108,-1.9108,-1.9108,-1.9108,-1.9108,-1.9108,-1.9108,-1.9108,-1.9108,-1.9108,-1.9108,-1.9108,-1.9108,-1.9108,-1.9108,-1.9108,-1.9108,-1.9108,-1.9108,-1.9108,-1.9108,-1.9108,-1.9108,-1.9108,-1.9139,-1.9212,-1.9606,-2.0027,-2.0498,-2.0891,-2.1362,-0.8662,-0.9196,-0.9321,-0.7957,-0.8615,-0.9606,-0.9596,-1.0044,0.0,0.0,0.0,0.0,0.0,0.0,0.0,0.0,0.0,0.0,0.0,0.0,0.0,0.0,0.0,0.0,0.0,0.0,0.0,0.0,0.0,0.0,0.0,0.0,0.0,0.0,0.0,0.0,0.0,-1.6855,-1.7051,-1.7051,-1.703,-1.6805,-1.6483,-1.634,-1.5961,0.0,0.0,0.0,-1.4667,-1.4434,-1.4665,-1.5208,-1.5311,-1.5999,-1.6897,-1.6897,-1.7364,-1.8042,-1.8245,-1.8337,-1.8405,-1.8707,-1.8808,-1.8875,-1.9031,-1.9108,-1.9108,-1.9108,-1.9108,-1.9108,-1.9108,-1.9108,-1.9108,-1.9108,-1.9108,-1.9108,-1.9108,-1.9108,-1.9108,-1.9108,-1.9108,-1.9108,-1.9108,-1.9108,-1.9108,-1.9108,-1.9108,-1.9108,-1.9108,-1.9108,-1.9108,-1.9108,-1.9108,-1.9108,-1.9108,-1.9108,-1.9108,-1.9108,-1.9108,-1.9108,-1.9108,-1.9108,-1.9108,-1.9108,-1.9108,-1.9295,-1.9689,-1.9761,-2.0228,-2.101,-2.1083,-2.1362,-0.8188,-0.8808,-0.9197,-0.8201,-0.9076,-1.0186,-1.0184,-1.0289,0.0,0.0,0.0,0.0,0.0,0.0,0.0,0.0,0.0,0.0,0.0,0.0,0.0,0.0,0.0,0.0,0.0,0.0,0.0,0.0,0.0,0.0,0.0,0.0,0.0,0.0,0.0,0.0,0.0,-1.6225,-1.6524,-1.6918,-1.6667,-1.649,-1.6333,-1.5679,-1.5206,0.0,0.0,-1.3999,-1.3962,-1.3785,-1.3933,-1.4249,-1.4249,-1.4824,-1.5702,-1.6088,-1.6481,-1.6837,-1.7364,-1.7604,-1.774,-1.8327,-1.864,-1.8808,-1.8908,-1.9008,-1.9108,-1.9108,-1.9108,-1.9108,-1.9108,-1.9108,-1.9108,-1.9108,-1.9108,-1.9108,-1.9108,-1.9108,-1.9108,-1.9108,-1.9108,-1.9108,-1.9108,-1.9108,-1.9108,-1.9108,-1.9108,-1.9108,-1.9108,-1.9108,-1.9108,-1.9108,-1.9108,-1.9108,-1.9108,-1.9108,-1.9108,-1.9108,-1.9108,-1.9108,-1.9108,-1.9108,-1.9108,-1.9108,-1.9108,-1.9212,-1.9419,-1.9419,-1.9886,-2.0705,-2.0705,-2.1124,-0.7818,-0.8474,-0.9143,-0.8828,0.0,-1.0634,-1.091,-1.083,0.0,0.0,0.0,0.0,0.0,0.0,0.0,0.0,0.0,0.0,0.0,0.0,0.0,0.0,0.0,0.0,0.0,0.0,0.0,0.0,0.0,0.0,0.0,0.0,0.0,0.0,0.0,0.0,0.0,-1.5805,-1.6088,-1.6653,-1.6317,-1.6171,-1.6099,-1.5157,-1.4641,-1.4461,-1.3891,-1.3601,-1.3492,-1.3492,-1.3492,-1.3528,-1.3702,-1.433,-1.5207,-1.5772,-1.5991,-1.6062,-1.6689,-1.6975,-1.7182,-1.8022,-1.8472,-1.8674,-1.8707,-1.8875,-1.9042,-1.9042,-1.9065,-1.9108,-1.9108,-1.9108,-1.9108,-1.9108,-1.9108,-1.9108,-1.9108,-1.9108,-1.9108,-1.9108,-1.9108,-1.9108,-1.9108,-1.9108,-1.9108,-1.9108,-1.9108,-1.9108,-1.9108,-1.9108,-1.9108,-1.9108,-1.9108,-1.9108,-1.9108,-1.9108,-1.9108,-1.9108,-1.9108,-1.9108,-1.9108,-1.9108,-1.9108,-1.9108,-1.9108,-1.9108,-1.9108,-1.9108,-1.9541,-2.0385,-2.0385,-2.0881,-0.8385,-0.8897,-0.9328,-0.9487,-0.9833,-1.0429,-1.1563,-1.2126,0.0,-1.3815,0.0,0.0,0.0,0.0,0.0,0.0,0.0,0.0,0.0,0.0,0.0,0.0,0.0,0.0,0.0,0.0,0.0,0.0,0.0,0.0,0.0,0.0,0.0,0.0,0.0,0.0,0.0,-1.5805,-1.5831,-1.5882,-1.5857,-1.5645,-1.5273,-1.5213,-1.4776,-1.4129,-1.4093,-1.3848,-1.3492,-1.3492,-1.3492,-1.3564,-1.4258,-1.5419,-1.6724,-1.6793,-1.6828,-1.6828,-1.6862,-1.6906,-1.7079,-1.7988,-1.8303,-1.8371,-1.8472,-1.864,-1.8808,-1.8808,-1.8975,-1.9108,-1.9108,-1.9108,-1.9108,-1.9108,-1.9108,-1.9108,-1.9108,-1.9108,-1.9108,-1.9108,-1.9108,-1.9108,-1.9108,-1.9108,-1.9108,-1.9108,-1.9108,-1.9108,-1.9108,-1.9108,-1.9108,-1.9108,-1.9108,-1.9108,-1.9108,-1.9108,-1.9108,-1.9108,-1.9108,-1.9108,-1.9108,-1.9108,-1.9108,-1.9108,-1.9108,-1.9108,-1.9108,-1.9108,-1.9541,-2.0385,-2.0385,-2.0881,-0.79,-0.8619,-0.9385,-0.9455,-1.0166,0.0,0.0,-1.2259,-1.2821,-1.3782,-1.4201,0.0,0.0,0.0,0.0,0.0,0.0,0.0,0.0,0.0,0.0,0.0,0.0,0.0,0.0,0.0,0.0,0.0,0.0,0.0,0.0,0.0,0.0,0.0,0.0,0.0,0.0,0.0,-1.5805,-1.5805,-1.5805,-1.5726,-1.5576,-1.5311,-1.5062,-1.4776,-1.431,-1.4021,-1.3848,-1.3601,-1.3492,-1.3564,-1.4294,-1.5242,-1.6158,-1.6158,-1.5842,-1.5561,-1.5983,-1.6158,-1.6298,-1.7139,-1.7808,-1.8303,-1.8371,-1.8482,-1.8607,-1.8607,-1.8741,-1.8942,-1.9075,-1.9108,-1.9108,-1.9108,-1.9108,-1.9108,-1.9108,-1.9108,-1.9108,-1.9108,-1.9108,-1.9108,-1.9108,-1.9108,-1.9108,-1.9108,-1.9108,-1.9108,-1.9108,-1.9108,-1.9108,-1.9108,-1.9108,-1.9108,-1.9108,-1.9108,-1.9108,-1.9108,-1.9108,-1.9108,-1.9108,-1.9108,-1.9108,-1.9108,-1.9108,-1.9108,-1.9108,-1.9108,-1.943,-2.0017,-2.0017,-2.0503,-0.8063,-0.8897,-0.9781,-0.9827,0.0,0.0,-1.2374,-1.2741,-1.3188,-1.4194,-1.4505,0.0,0.0,0.0,0.0,0.0,0.0,0.0,0.0,0.0,0.0,0.0,0.0,0.0,0.0,0.0,0.0,0.0,0.0,0.0,0.0,0.0,0.0,0.0,0.0,0.0,0.0,0.0,-1.5691,-1.5805,-1.5691,-1.5611,-1.5611,-1.5319,-1.5062,-1.4804,-1.431,-1.4029,-1.3884,-1.3601,-1.3637,-1.3912,-1.4645,-1.5419,-1.6097,-1.6097,-1.5772,-1.5419,-1.5913,-1.6097,-1.6202,-1.6975,-1.7672,-1.8202,-1.8202,-1.8303,-1.8448,-1.8448,-1.8583,-1.8741,-1.8942,-1.9031,-1.9108,-1.9108,-1.9108,-1.9108,-1.9108,-1.9108,-1.9108,-1.9108,-1.9108,-1.9108,-1.9108,-1.9108,-1.9108,-1.9108,-1.9108,-1.9108,-1.9108,-1.9108,-1.9108,-1.9108,-1.9108,-1.9108,-1.9108,-1.9108,-1.9108,-1.9108,-1.9108,-1.9108,-1.9108,-1.9108,-1.9108,-1.9108,-1.9108,-1.9108,-1.9108,-1.9108,-1.9347,-1.9793,-1.9793,-2.0207,-0.919,-0.9882,-1.0635,0.0,0.0,0.0,-1.3487,-1.3811,-1.4154,-1.5433,0.0,0.0,0.0,0.0,0.0,0.0,0.0,0.0,0.0,0.0,0.0,0.0,0.0,0.0,0.0,0.0,0.0,0.0,0.0,0.0,0.0,0.0,0.0,0.0,0.0,0.0,0.0,0.0,-1.5382,-1.5788,-1.5374,-1.5188,-1.5196,-1.5196,-1.4804,-1.4093,-1.4093,-1.3884,-1.3499,-1.3492,-1.3941,-1.4665,-1.5419,-1.6193,-1.6897,-1.6897,-1.6906,-1.6897,-1.6897,-1.6897,-1.701,-1.7759,-1.7974,-1.8008,-1.8008,-1.8144,-1.8303,-1.8303,-1.8371,-1.8549,-1.8741,-1.8942,-1.9108,-1.9108,-1.9108,-1.9108,-1.9108,-1.9108,-1.9108,-1.9108,-1.9108,-1.9108,-1.9108,-1.9108,-1.9108,-1.9108,-1.9108,-1.9108,-1.9108,-1.9108,-1.9108,-1.9108,-1.9108,-1.9108,-1.9108,-1.9108,-1.9108,-1.9108,-1.9108,-1.9108,-1.9108,-1.9108,-1.9108,-1.9108,-1.9108,-1.9108,-1.9108,-1.9108,-1.9347,-1.9793,-1.9793,-2.0021,-0.8805,-0.9844,0.0,-1.096,0.0,0.0,0.0,-1.4224,0.0,0.0,0.0,0.0,0.0,0.0,0.0,0.0,0.0,0.0,0.0,0.0,0.0,0.0,0.0,0.0,0.0,0.0,0.0,0.0,0.0,0.0,0.0,0.0,0.0,0.0,0.0,0.0,0.0,0.0,-1.4807,-1.4664,-1.4555,-1.4611,-1.4851,-1.4851,-1.4616,-1.4135,-1.3882,-1.38,-1.3884,-1.3637,-1.3676,-1.4078,-1.5261,-1.6069,-1.6646,-1.7396,-1.7364,-1.6897,-1.6897,-1.6897,-1.6932,-1.7148,-1.7579,-1.8008,-1.8008,-1.8042,-1.8076,-1.8076,-1.8212,-1.8371,-1.8438,-1.8573,-1.8741,-1.9031,-1.9108,-1.9108,-1.9108,-1.9108,-1.9108,-1.9108,-1.9108,-1.9108,-1.9108,-1.9108,-1.9108,-1.9108,-1.9108,-1.9108,-1.9108,-1.9108,-1.9108,-1.9108,-1.9108,-1.9108,-1.9108,-1.9108,-1.9108,-1.9108,-1.9108,-1.9108,-1.9108,-1.9108,-1.9108,-1.9108,-1.9108,-1.9108,-1.9108,-1.9108,-1.917,-1.9316,-1.9316,-1.9554,-0.9707,-1.0658,0.0,-1.1982,-1.2685,-1.3508,-1.4195,0.0,0.0,0.0,0.0,0.0,0.0,0.0,0.0,0.0,0.0,0.0,0.0,0.0,0.0,0.0,0.0,0.0,0.0,0.0,0.0,0.0,0.0,0.0,0.0,0.0,0.0,0.0,0.0,0.0,0.0,0.0,0.0,-1.4412,-1.4098,-1.399,-1.4056,-1.4059,-1.3868,-1.3508,-1.326,-1.3262,-1.3449,-1.321,-1.3155,-1.3339,-1.4457,-1.5326,-1.6093,-1.7024,-1.7358,-1.7329,-1.7329,-1.7329,-1.7329,-1.7329,-1.7647,-1.8008,-1.8008,-1.8008,-1.8008,-1.8008,-1.8076,-1.8212,-1.8269,-1.8371,-1.8516,-1.8808,-1.8875,-1.8875,-1.8975,-1.8975,-1.8998,-1.9065,-1.9108,-1.9108,-1.9108,-1.9108,-1.9108,-1.9108,-1.9108,-1.9108,-1.9108,-1.9108,-1.9108,-1.9108,-1.9108,-1.9108,-1.9108,-1.9108,-1.9108,-1.9108,-1.9108,-1.9108,-1.9108,-1.9108,-1.9108,-1.9108,-1.9108,-1.9108,-1.9108,-1.9108,-1.9108,-1.9108,-1.9108,-1.9253,-1.1249,0.0,0.0,-1.3341,-1.3276,0.0,0.0,0.0,0.0,0.0,0.0,0.0,0.0,0.0,0.0,0.0,0.0,0.0,0.0,0.0,0.0,0.0,0.0,0.0,0.0,0.0,0.0,0.0,0.0,0.0,0.0,0.0,0.0,0.0,0.0,0.0,0.0,0.0,0.0,0.0,0.0,-1.3322,-1.302,-1.3041,-1.2837,-1.2441,-1.2477,-1.247,-1.2448,-1.2477,-1.2489,-1.2505,-1.3369,-1.4296,-1.5297,-1.606,-1.7016,-1.7959,-1.7959,-1.7978,-1.8008,-1.8008,-1.8008,-1.8008,-1.8008,-1.8008,-1.8008,-1.8008,-1.8008,-1.8042,-1.8245,-1.8269,-1.8293,-1.8365,-1.8452,-1.8549,-1.8741,-1.8774,-1.8841,-1.9031,-1.9075,-1.9065,-1.9108,-1.9108,-1.9108,-1.9108,-1.9108,-1.9108,-1.9108,-1.9108,-1.9108,-1.9108,-1.9108,-1.9108,-1.9108,-1.9108,-1.9108,-1.9108,-1.9108,-1.9108,-1.9108,-1.9108,-1.9108,-1.9108,-1.9108,-1.9108,-1.9108,-1.9108,-1.9108,-1.9108,-1.9108,-1.9108,0.0,-1.1375,0.0,0.0,0.0,0.0,0.0,0.0,0.0,0.0,0.0,0.0,0.0,0.0,0.0,0.0,0.0,0.0,0.0,0.0,0.0,0.0,0.0,0.0,0.0,0.0,0.0,0.0,0.0,0.0,0.0,0.0,0.0,0.0,0.0,0.0,-1.3759,-1.3658,-1.3543,0.0,-1.293,-1.2578,-1.2328,-1.258,-1.2505,-1.212,-1.2375,-1.2339,-1.2127,-1.2383,-1.2226,-1.1912,-1.3189,-1.3958,-1.4501,-1.5542,-1.6599,-1.7519,-1.7519,-1.7734,-1.8008,-1.8008,-1.8008,-1.8008,-1.8008,-1.8008,-1.8008,-1.8008,-1.8008,-1.8008,-1.8042,-1.8076,-1.7997,-1.7697,-1.8065,-1.8516,-1.8549,-1.8549,-1.8617,-1.8841,-1.8875,-1.8908,-1.9075,-1.9108,-1.9108,-1.9108,-1.9108,-1.9108,-1.9108,-1.9108,-1.9108,-1.9108,-1.9108,-1.9108,-1.9108,-1.9108,-1.9108,-1.9108,-1.9108,-1.9108,-1.9108,-1.9108,-1.9108,-1.9108,-1.9108,-1.9108,-1.9108,-1.9108,-1.9108,-1.9108,-1.9108,-1.9108,0.0,0.0,0.0,0.0,0.0,0.0,0.0,0.0,0.0,0.0,0.0,0.0,0.0,0.0,0.0,0.0,0.0,0.0,0.0,0.0,0.0,0.0,0.0,0.0,0.0,0.0,0.0,0.0,0.0,0.0,0.0,0.0,0.0,0.0,0.0,0.0,-1.3511,-1.3511,-1.342,-1.3216,-1.2728,-1.2266,-1.1879,-1.2052,-1.2007,-1.1816,-1.1984,-1.1963,-1.1855,-1.23,-1.2324,-1.2135,-1.3194,-1.38,-1.4179,-1.4758,-1.56,-1.6461,-1.6793,-1.7159,-1.7545,-1.7906,-1.8008,-1.8008,-1.8008,-1.8008,-1.8008,-1.8008,-1.8008,-1.7969,-1.7764,-1.7861,-1.79,-1.749,-1.7839,-1.822,-1.8102,-1.8265,-1.8448,-1.8617,-1.865,-1.8707,-1.8908,-1.9042,-1.9075,-1.8975,-1.9042,-1.9108,-1.9108,-1.9108,-1.9108,-1.9108,-1.9108,-1.9108,-1.9108,-1.9108,-1.9108,-1.9108,-1.9108,-1.9108,-1.9108,-1.9108,-1.9108,-1.9108,-1.9108,-1.9108,-1.9108,-1.9108,-1.9108,-1.9108,-1.9108,-1.9108,0.0,0.0,-1.2017,0.0,0.0,0.0,0.0,0.0,0.0,0.0,0.0,0.0,0.0,0.0,0.0,0.0,0.0,0.0,0.0,0.0,0.0,0.0,0.0,0.0,0.0,0.0,0.0,0.0,0.0,0.0,0.0,0.0,0.0,0.0,0.0,-1.3329,-1.3329,-1.3329,-1.3329,-1.3329,-1.2728,-1.2143,-1.1591,-1.1591,-1.1591,-1.1591,-1.1591,-1.1591,-1.1654,-1.2128,-1.242,-1.2573,-1.31,-1.366,-1.4183,-1.4183,-1.4626,-1.536,-1.6088,-1.6559,-1.6933,-1.7653,-1.7949,-1.8008,-1.8008,-1.8008,-1.7998,-1.793,-1.7959,-1.791,-1.749,-1.7695,-1.79,-1.749,-1.7705,-1.7924,-1.7616,-1.7929,-1.8283,-1.8348,-1.8432,-1.8549,-1.8707,-1.8875,-1.8942,-1.8808,-1.8942,-1.9075,-1.9108,-1.9108,-1.9108,-1.9108,-1.9108,-1.9108,-1.9108,-1.9108,-1.9108,-1.9108,-1.9108,-1.9108,-1.9108,-1.9108,-1.9108,-1.9108,-1.9108,-1.9108,-1.9108,-1.9108,-1.9108,-1.9108,-1.9108,-1.9108,0.0,0.0,0.0,0.0,0.0,0.0,0.0,0.0,0.0,0.0,0.0,0.0,0.0,0.0,0.0,0.0,0.0,0.0,0.0,0.0,0.0,0.0,0.0,0.0,0.0,0.0,0.0,0.0,0.0,0.0,0.0,0.0,0.0,0.0,-1.2636,0.0,-1.2636,-1.2636,-1.2636,-1.2636,-1.2305,-1.1965,-1.1591,-1.1591,-1.1591,-1.1591,-1.1591,-1.1591,-1.1622,-1.1685,-1.2035,-1.2512,-1.2604,-1.3368,-1.4453,-1.4453,-1.4745,-1.5221,-1.5913,-1.6262,-1.6574,-1.7253,-1.7715,-1.8008,-1.8008,-1.8008,-1.7939,-1.7568,-1.7734,-1.791,-1.749,-1.7695,-1.79,-1.749,-1.7705,-1.7891,-1.7504,-1.7738,-1.7968,-1.7774,-1.8145,-1.8516,-1.8549,-1.8549,-1.864,-1.8774,-1.8808,-1.8908,-1.9065,-1.9108,-1.9108,-1.9108,-1.9108,-1.9108,-1.9108,-1.9108,-1.9108,-1.9108,-1.9108,-1.9108,-1.9108,-1.9108,-1.9108,-1.9108,-1.9108,-1.9108,-1.9108,-1.9108,-1.9108,-1.9108,-1.9108,-1.9108,-0.9953,0.0,0.0,0.0,0.0,0.0,0.0,0.0,0.0,0.0,0.0,0.0,0.0,0.0,0.0,0.0,0.0,0.0,0.0,0.0,0.0,0.0,0.0,0.0,0.0,0.0,0.0,0.0,0.0,0.0,0.0,-1.2097,-1.22,-1.2001,-1.2315,0.0,-1.2288,-1.2418,-1.2428,-1.2274,-1.2151,-1.1903,-1.1591,-1.1591,-1.1591,-1.1591,-1.1591,-1.1591,-1.1622,-1.195,-1.2274,-1.2543,-1.2909,-1.3191,-1.3425,-1.3803,-1.3917,-1.4082,-1.5149,-1.5875,-1.64,-1.7166,-1.751,-1.7656,-1.7656,-1.7656,-1.7627,-1.7432,-1.7686,-1.791,-1.749,-1.7519,-1.7549,-1.7119,-1.7126,-1.7213,-1.7061,-1.7353,-1.7631,-1.7501,-1.7982,-1.8347,-1.8245,-1.8381,-1.8516,-1.8506,-1.8573,-1.864,-1.8741,-1.8875,-1.8942,-1.8942,-1.9031,-1.9108,-1.9108,-1.9108,-1.9108,-1.9108,-1.9108,-1.9108,-1.9108,-1.9108,-1.9108,-1.9108,-1.9108,-1.9108,-1.9108,-1.9108,-1.9108,-1.9108,-1.9108,-1.9108,0.0,0.0,0.0,0.0,0.0,0.0,0.0,0.0,0.0,0.0,0.0,0.0,0.0,0.0,0.0,0.0,0.0,0.0,0.0,0.0,0.0,0.0,0.0,0.0,0.0,0.0,0.0,0.0,0.0,0.0,0.0,-1.1529,-1.16,-1.1341,-1.1776,-1.1916,-1.1725,-1.1994,-1.2097,-1.1965,-1.1881,-1.1713,-1.1467,-1.1467,-1.1467,-1.1474,-1.1555,-1.1591,-1.1622,-1.2097,-1.2358,-1.2543,-1.3039,-1.3039,-1.2848,-1.3502,-1.349,-1.3319,-1.4686,-1.5485,-1.6053,-1.6805,-1.723,-1.7383,-1.7383,-1.7383,-1.7396,-1.7246,-1.7441,-1.7588,-1.7158,-1.7139,-1.7168,-1.6921,-1.6785,-1.6697,-1.6697,-1.6992,-1.7256,-1.7396,-1.776,-1.8049,-1.8022,-1.8212,-1.8347,-1.8303,-1.8381,-1.8448,-1.8516,-1.8674,-1.8808,-1.8808,-1.8975,-1.9108,-1.9108,-1.9108,-1.9108,-1.9108,-1.9108,-1.9108,-1.9108,-1.9108,-1.9108,-1.9108,-1.9108,-1.9108,-1.9108,-1.9108,-1.9108,-1.9108,-1.9108,-1.9108,0.0,0.0,0.0,0.0,0.0,0.0,0.0,0.0,0.0,0.0,0.0,0.0,0.0,0.0,0.0,0.0,0.0,0.0,0.0,0.0,0.0,0.0,0.0,0.0,0.0,0.0,0.0,0.0,0.0,0.0,-1.0181,-1.049,-1.0659,-1.0644,-1.0674,-1.0688,-1.0674,-1.0997,-1.1314,-1.1622,-1.1306,-1.1129,-1.1129,-1.1129,-1.1129,-1.1144,-1.1459,-1.1591,-1.1591,-1.1622,-1.1981,-1.2512,-1.2543,-1.2917,-1.3532,-1.4201,-1.4031,-1.3657,-1.4941,-1.5284,-1.5275,-1.594,-1.6731,-1.7383,-1.7383,-1.7383,-1.7295,-1.6853,-1.6746,-1.6668,-1.6281,-1.6445,-1.6833,-1.7256,-1.7031,-1.6697,-1.6697,-1.6716,-1.6853,-1.7305,-1.7435,-1.7572,-1.7939,-1.8008,-1.8076,-1.8269,-1.8303,-1.8371,-1.8482,-1.8674,-1.8808,-1.8808,-1.8975,-1.9108,-1.9108,-1.9108,-1.9108,-1.9108,-1.9108,-1.9108,-1.9108,-1.9108,-1.9108,-1.9108,-1.9108,-1.9108,-1.9108,-1.9108,-1.9108,-1.9108,-1.9108,-1.9108,0.0,0.0,0.0,0.0,0.0,0.0,0.0,0.0,0.0,0.0,0.0,0.0,0.0,0.0,0.0,0.0,0.0,0.0,0.0,0.0,0.0,0.0,0.0,0.0,0.0,0.0,0.0,0.0,0.0,0.0,-0.979,-1.0097,-1.0177,-0.9972,-1.0368,-1.0587,-1.0587,-1.0733,-1.085,-1.0968,-1.085,-1.0792,-1.0792,-1.0792,-1.0792,-1.0799,-1.0916,-1.1202,-1.1591,-1.1591,-1.174,-1.1919,-1.1919,-1.2073,-1.2351,-1.2978,-1.3061,-1.3039,-1.4371,-1.4937,-1.521,-1.5872,-1.631,-1.6564,-1.6564,-1.6564,-1.6535,-1.6378,-1.6514,-1.6668,-1.6502,-1.6396,-1.6378,-1.6535,-1.6447,-1.6299,-1.6299,-1.6533,-1.6746,-1.6934,-1.7197,-1.7465,-1.7578,-1.7832,-1.8008,-1.811,-1.811,-1.811,-1.8178,-1.8347,-1.8472,-1.8472,-1.8741,-1.8908,-1.8908,-1.9042,-1.9108,-1.9108,-1.9108,-1.9108,-1.9108,-1.9108,-1.9108,-1.9108,-1.9108,-1.9108,-1.9108,-1.9108,-1.9108,-1.9108,-1.9108,-1.9108,-0.8673,0.0,0.0,0.0,0.0,0.0,0.0,0.0,0.0,0.0,0.0,0.0,0.0,0.0,0.0,0.0,0.0,0.0,0.0,0.0,0.0,0.0,0.0,0.0,0.0,0.0,0.0,0.0,0.0,0.0,-0.9847,-0.9898,-0.9833,-0.9595,-1.0038,-1.0309,-1.0419,-1.0426,-1.0477,-1.0587,-1.0477,-1.0426,-1.0426,-1.0426,-1.0426,-1.0426,-1.0536,-1.0924,-1.143,-1.143,-1.1496,-1.1591,-1.1591,-1.1591,-1.1685,-1.2274,-1.2512,-1.2665,-1.3773,-1.4342,-1.4671,-1.5328,-1.5505,-1.5496,-1.5964,-1.5933,-1.5811,-1.6034,-1.6172,-1.6258,-1.6258,-1.6182,-1.6056,-1.5909,-1.6105,-1.625,-1.6124,-1.6299,-1.6514,-1.6514,-1.6865,-1.7217,-1.7363,-1.7734,-1.8008,-1.8008,-1.8008,-1.8008,-1.8008,-1.8178,-1.8303,-1.8303,-1.8539,-1.8717,-1.8717,-1.8875,-1.9008,-1.9008,-1.9065,-1.9108,-1.9108,-1.9108,-1.9108,-1.9108,-1.9108,-1.9108,-1.9108,-1.9108,-1.9108,-1.9108,-1.9108,-1.9108,0.0,0.0,0.0,0.0,0.0,0.0,0.0,0.0,0.0,0.0,0.0,0.0,0.0,0.0,0.0,0.0,0.0,0.0,0.0,0.0,0.0,0.0,0.0,0.0,0.0,0.0,0.0,0.0,0.0,0.0,-1.0352,-0.9873,-0.9588,-0.9588,-0.9588,-0.9768,-1.0082,-1.0082,-1.0243,-1.0586,-1.0236,-1.0082,-1.0082,-1.0082,-1.0082,-1.0104,-1.0419,-1.0777,-1.1078,-1.1092,-1.1298,-1.1591,-1.1591,-1.1591,-1.1685,-1.2274,-1.2473,-1.2573,-1.323,-1.3472,-1.3571,-1.4291,-1.4332,-1.4355,-1.567,-1.563,-1.5223,-1.5883,-1.5732,-1.541,-1.541,-1.5723,-1.5968,-1.5527,-1.6044,-1.6541,-1.6183,-1.6085,-1.6085,-1.6105,-1.6445,-1.6853,-1.7314,-1.7734,-1.8008,-1.8008,-1.8008,-1.8008,-1.8008,-1.8178,-1.8303,-1.8303,-1.8405,-1.8482,-1.8482,-1.8674,-1.8808,-1.8808,-1.8975,-1.9098,-1.9108,-1.9108,-1.9108,-1.9108,-1.9108,-1.9108,-1.9108,-1.9108,-1.9108,-1.9108,-1.9108,-1.9108,-0.7866,0.0,0.0,0.0,0.0,0.0,0.0,0.0,0.0,0.0,0.0,0.0,0.0,0.0,0.0,0.0,0.0,0.0,0.0,0.0,0.0,0.0,0.0,0.0,0.0,0.0,0.0,0.0,0.0,-0.9666,-0.9821,-0.9692,-0.9588,-0.9588,-0.9588,-0.9632,-0.9746,-0.9746,-0.979,-0.9885,-0.979,-0.9746,-0.9746,-0.9746,-0.9746,-0.9753,-0.9848,-1.0068,-1.0404,-1.0909,-1.1298,-1.1591,-1.1591,-1.1591,-1.1622,-1.1802,-1.1856,-1.195,-1.2551,-1.2787,-1.297,-1.4133,-1.4453,-1.4535,-1.535,-1.5468,-1.535,-1.5527,-1.5508,-1.541,-1.541,-1.5498,-1.5644,-1.587,-1.583,-1.583,-1.6046,-1.584,-1.5781,-1.6426,-1.6904,-1.7246,-1.7396,-1.7734,-1.8008,-1.8008,-1.8008,-1.8008,-1.8008,-1.8042,-1.8076,-1.8076,-1.8245,-1.8371,-1.8371,-1.8516,-1.865,-1.8774,-1.8841,-1.8942,-1.9098,-1.9108,-1.9108,-1.9108,-1.9108,-1.9108,-1.9108,-1.9108,-1.9108,-1.9108,-1.9108,-1.9108,-0.8117,-0.8342,0.0,0.0,0.0,0.0,0.0,0.0,0.0,0.0,0.0,0.0,0.0,0.0,0.0,0.0,0.0,0.0,0.0,0.0,0.0,0.0,0.0,0.0,0.0,0.0,0.0,0.0,-0.9829,-0.9588,-0.9588,-0.9588,-0.9588,-0.9588,-0.9588,-0.9588,-0.9588,-0.9588,-0.9588,-0.9588,-0.9588,-0.9588,-0.9588,-0.9588,-0.9588,-0.9588,-0.9588,-0.9797,-1.0141,-1.0653,-1.1092,-1.1386,-1.1386,-1.1474,-1.1622,-1.1888,-1.1981,-1.2073,-1.2704,-1.2917,-1.31,-1.4163,-1.4321,-1.4261,-1.5147,-1.5206,-1.5089,-1.5323,-1.541,-1.541,-1.541,-1.541,-1.5478,-1.5732,-1.5596,-1.5478,-1.5732,-1.5732,-1.583,-1.6348,-1.6816,-1.7168,-1.7353,-1.7734,-1.8008,-1.8008,-1.8008,-1.8008,-1.8008,-1.8008,-1.8008,-1.8008,-1.811,-1.8168,-1.8168,-1.8313,-1.8482,-1.8573,-1.8707,-1.8841,-1.8975,-1.9075,-1.9108,-1.9108,-1.9108,-1.9108,-1.9108,-1.9108,-1.9108,-1.9108,-1.9108,-1.9108,-0.8477,-0.8795,0.0,0.0,0.0,0.0,0.0,-1.0059,0.0,0.0,0.0,0.0,0.0,0.0,0.0,0.0,0.0,0.0,0.0,0.0,0.0,0.0,0.0,0.0,0.0,0.0,0.0,-1.0326,-0.9873,-0.9588,-0.9588,-0.9588,-0.9588,-0.9588,-0.9588,-0.9588,-0.9588,-0.9588,-0.9588,-0.9588,-0.9588,-0.9588,-0.9588,-0.9588,-0.9588,-0.9588,-0.9588,-0.9782,-1.0068,-1.036,-1.074,-1.1107,-1.1144,-1.1335,-1.1685,-1.2274,-1.2512,-1.2604,-1.326,-1.3511,-1.3593,-1.4291,-1.4112,-1.3833,-1.505,-1.503,-1.4706,-1.5264,-1.541,-1.541,-1.541,-1.5352,-1.5294,-1.5294,-1.5294,-1.5294,-1.5294,-1.5683,-1.6046,-1.6153,-1.6504,-1.6911,-1.7383,-1.7764,-1.8008,-1.8008,-1.8008,-1.8008,-1.8008,-1.8008,-1.8008,-1.8008,-1.8008,-1.8008,-1.8008,-1.8168,-1.8269,-1.8303,-1.8573,-1.8741,-1.8774,-1.8942,-1.9042,-1.9075,-1.9108,-1.9108,-1.9108,-1.9108,-1.9108,-1.9108,-1.9108,-1.9108,-0.8949,-0.9458,-0.999,-0.9786,0.0,0.0,0.0,-0.9004,0.0,0.0,0.0,0.0,0.0,0.0,0.0,0.0,0.0,0.0,0.0,0.0,0.0,0.0,0.0,0.0,0.0,0.0,0.0,-1.0102,-0.9777,-0.9588,-0.9588,-0.9588,-0.9588,-0.9588,-0.9588,-0.9588,-0.9588,-0.9588,-0.9588,-0.9588,-0.9588,-0.9588,-0.9588,-0.9588,-0.9588,-0.9588,-0.9588,-0.9624,-0.9716,-0.9775,-1.0309,-1.1129,-1.1393,-1.1533,-1.1685,-1.2274,-1.2512,-1.2604,-1.326,-1.3511,-1.3593,-1.4291,-1.441,-1.444,-1.5177,-1.5323,-1.5264,-1.5381,-1.541,-1.541,-1.541,-1.503,-1.4677,-1.4677,-1.4677,-1.4677,-1.4677,-1.5126,-1.5752,-1.6465,-1.6953,-1.7393,-1.7812,-1.7959,-1.8008,-1.8008,-1.8008,-1.8008,-1.8008,-1.8008,-1.8008,-1.8008,-1.8008,-1.8008,-1.8008,-1.8042,-1.8144,-1.8303,-1.8371,-1.8448,-1.8549,-1.8617,-1.8674,-1.8875,-1.9008,-1.9108,-1.9108,-1.9108,-1.9108,-1.9108,-1.9108,-1.9108,0.0,0.0,-1.0297,-1.0264,0.0,0.0,0.0,0.0,0.0,0.0,0.0,0.0,0.0,0.0,0.0,0.0,0.0,0.0,0.0,0.0,0.0,0.0,0.0,0.0,0.0,0.0,-1.0423,-1.0208,-0.9829,-0.9588,-0.9588,-0.9588,-0.9588,-0.9588,-0.9588,-0.9588,-0.9588,-0.9588,-0.9588,-0.9588,-0.9588,-0.9588,-0.9588,-0.9588,-0.9588,-0.9588,-0.9588,-0.9588,-0.9629,-0.979,-1.0148,-1.0616,-1.0975,-1.1202,-1.1425,-1.2212,-1.2696,-1.31,-1.3773,-1.4192,-1.449,-1.4854,-1.4942,-1.5001,-1.5323,-1.541,-1.541,-1.541,-1.541,-1.541,-1.541,-1.5177,-1.4942,-1.4942,-1.4942,-1.4942,-1.4942,-1.5177,-1.5605,-1.6269,-1.6758,-1.7256,-1.79,-1.8008,-1.8008,-1.8008,-1.8008,-1.8008,-1.8008,-1.8008,-1.8008,-1.8008,-1.8008,-1.8008,-1.8008,-1.8008,-1.8042,-1.8134,-1.8236,-1.8337,-1.8414,-1.8448,-1.8549,-1.865,-1.8741,-1.8808,-1.8808,-1.8808,-1.8908,-1.9108,-1.9108,-1.9108,0.0,0.0,0.0,0.0,0.0,-1.0654,0.0,0.0,0.0,-1.041,0.0,0.0,0.0,0.0,0.0,0.0,0.0,0.0,0.0,0.0,0.0,0.0,0.0,0.0,0.0,0.0,0.0,-1.0389,-0.9786,-0.949,-0.9607,-0.9588,-0.9588,-0.9588,-0.9588,-0.9588,-0.9588,-0.9588,-0.9588,-0.9588,-0.9588,-0.9588,-0.9588,-0.9588,-0.9588,-0.9588,-0.9588,-0.9588,-0.9636,-0.9899,-1.0009,-1.0046,-1.0433,-1.0777,-1.11,-1.2008,-1.2693,-1.3339,-1.4114,-1.4758,-1.5235,-1.5352,-1.541,-1.541,-1.541,-1.541,-1.541,-1.541,-1.541,-1.541,-1.541,-1.5323,-1.5235,-1.5235,-1.5235,-1.5235,-1.5235,-1.5323,-1.5537,-1.6007,-1.6357,-1.6843,-1.7734,-1.7959,-1.8008,-1.8008,-1.8008,-1.8008,-1.8008,-1.8008,-1.8008,-1.8008,-1.8008,-1.8008,-1.8008,-1.8008,-1.8008,-1.8008,-1.8144,-1.8236,-1.8236,-1.8371,-1.8448,-1.8448,-1.8482,-1.8516,-1.8516,-1.8516,-1.8684,-1.8975,-1.8975,-1.8975,0.0,0.0,0.0,0.0,-1.1748,0.0,0.0,0.0,-1.0038,-0.9355,0.0,0.0,0.0,0.0,0.0,0.0,0.0,0.0,0.0,0.0,0.0,0.0,0.0,0.0,0.0,0.0,0.0,0.0,-0.9403,-0.9036,-0.9559,-0.9588,-0.9588,-0.9588,-0.9588,-0.9588,-0.9588,-0.9588,-0.9588,-0.9588,-0.9588,-0.9588,-0.9588,-0.9588,-0.9588,-0.9588,-0.9588,-0.9588,-0.9588,-0.9624,-0.9646,-0.9731,-1.0346,-1.0609,-1.0732,-1.1428,-1.19,-1.2341,-1.3613,-1.4283,-1.4706,-1.5235,-1.541,-1.541,-1.541,-1.541,-1.541,-1.541,-1.541,-1.541,-1.541,-1.5001,-1.4588,-1.4588,-1.4588,-1.4588,-1.4588,-1.503,-1.5537,-1.6007,-1.6134,-1.6447,-1.7337,-1.7764,-1.8008,-1.8008,-1.8008,-1.8008,-1.8008,-1.8008,-1.8008,-1.8008,-1.8008,-1.8008,-1.8008,-1.8008,-1.8008,-1.8008,-1.8008,-1.8042,-1.8042,-1.8212,-1.8303,-1.8303,-1.8448,-1.8516,-1.8516,-1.8516,-1.8516,-1.8583,-1.8583,-1.8583,0.0,0.0,0.0,0.0,0.0,0.0,0.0,0.0,-0.9943,0.0,0.0,0.0,0.0,0.0,0.0,0.0,0.0,0.0,0.0,0.0,0.0,0.0,0.0,0.0,0.0,0.0,0.0,0.0,0.0,-0.9107,-0.9361,-0.9519,-0.9588,-0.9588,-0.9588,-0.9588,-0.9588,-0.9588,-0.9588,-0.9588,-0.9588,-0.9588,-0.9588,-0.9588,-0.9588,-0.9588,-0.9588,-0.9588,-0.9588,-0.9588,-0.9588,-0.9617,-0.9914,-1.0141,-1.0359,-1.0833,-1.1334,-1.1922,-1.3041,-1.3773,-1.4331,-1.5129,-1.541,-1.541,-1.541,-1.541,-1.541,-1.541,-1.541,-1.541,-1.541,-1.5206,-1.503,-1.503,-1.503,-1.503,-1.503,-1.5206,-1.5469,-1.5654,-1.5919,-1.629,-1.6894,-1.7363,-1.7734,-1.7978,-1.8008,-1.8008,-1.8008,-1.8008,-1.8008,-1.8008,-1.8008,-1.8008,-1.8008,-1.8008,-1.8008,-1.8008,-1.8008,-1.8008,-1.8008,-1.8076,-1.8144,-1.8144,-1.8178,-1.8212,-1.8212,-1.8212,-1.8212,-1.8212,-1.8414,-1.8516,-0.9089,0.0,0.0,0.0,0.0,0.0,0.0,0.0,0.0,0.0,0.0,0.0,0.0,0.0,0.0,0.0,0.0,0.0,0.0,0.0,0.0,0.0,0.0,0.0,0.0,0.0,0.0,0.0,0.0,0.0,-0.9352,-0.9542,-0.9647,-0.9614,-0.9588,-0.9588,-0.9588,-0.9588,-0.9588,-0.9588,-0.9588,-0.9588,-0.9588,-0.9588,-0.9588,-0.9588,-0.9588,-0.9588,-0.9588,-0.9588,-0.9588,-0.9588,-0.9588,-0.976,-0.9994,-1.0236,-1.069,-1.1308,-1.2177,-1.3136,-1.4156,-1.51,-1.541,-1.541,-1.541,-1.541,-1.541,-1.541,-1.541,-1.541,-1.541,-1.541,-1.541,-1.541,-1.541,-1.541,-1.541,-1.541,-1.541,-1.541,-1.5762,-1.6242,-1.6619,-1.709,-1.7529,-1.7949,-1.8008,-1.8008,-1.8008,-1.8008,-1.8008,-1.8008,-1.8008,-1.8008,-1.8008,-1.8008,-1.8008,-1.8008,-1.8008,-1.8008,-1.8008,-1.8008,-1.8008,-1.8008,-1.8008,-1.8008,-1.8008,-1.8008,-1.8008,-1.8008,-1.8245,-1.8347,0.0,0.0,0.0,0.0,0.0,0.0,0.0,0.0,-1.0761,0.0,0.0,0.0,0.0,0.0,0.0,-0.8795,0.0,0.0,0.0,0.0,0.0,0.0,0.0,0.0,0.0,0.0,0.0,0.0,0.0,0.0,-0.9738,-0.98,-0.9734,-0.9607,-0.9588,-0.9588,-0.9588,-0.9588,-0.9588,-0.9588,-0.9588,-0.9588,-0.9588,-0.9588,-0.9588,-0.9588,-0.9588,-0.9588,-0.9588,-0.9588,-0.9588,-0.9588,-0.9588,-0.9595,-0.9629,-0.9617,-0.9841,-1.0255,-1.0922,-1.242,-1.4156,-1.51,-1.541,-1.541,-1.541,-1.541,-1.541,-1.541,-1.541,-1.541,-1.541,-1.541,-1.541,-1.541,-1.541,-1.541,-1.541,-1.541,-1.541,-1.541,-1.5762,-1.6242,-1.6619,-1.709,-1.7529,-1.7949,-1.8008,-1.8008,-1.8008,-1.8008,-1.8008,-1.8008,-1.8008,-1.8008,-1.8008,-1.8008,-1.8008,-1.8008,-1.8008,-1.8008,-1.8008,-1.8008,-1.8008,-1.8008,-1.8008,-1.8008,-1.8008,-1.8008,-1.8008,-1.8008,-1.8008,-1.8008,0.0,0.0,-0.9826,-0.9567,0.0,0.0,0.0,0.0,0.0,0.0,0.0,0.0,0.0,0.0,0.0,-0.9208,0.0,0.0,0.0,0.0,0.0,0.0,0.0,0.0,0.0,0.0,0.0,0.0,0.0,0.0,0.0,-0.9883,-0.99,-1.0123,-0.9795,-0.9588,-0.9588,-0.9588,-0.9588,-0.9588,-0.9588,-0.9588,-0.9588,-0.9588,-0.9588,-0.9588,-0.9588,-0.9588,-0.9588,-0.9588,-0.9588,-0.9588,-0.9588,-0.9588,-0.9588,-0.9588,-0.968,-0.9944,-1.1202,-1.2887,-1.458,-1.4895,-1.5186,-1.541,-1.541,-1.541,-1.541,-1.541,-1.541,-1.541,-1.541,-1.541,-1.541,-1.541,-1.541,-1.541,-1.541,-1.541,-1.541,-1.541,-1.5762,-1.6242,-1.6619,-1.709,-1.7529,-1.7949,-1.8008,-1.8008,-1.8008,-1.8008,-1.8008,-1.8008,-1.8008,-1.8008,-1.8008,-1.8008,-1.8008,-1.8008,-1.8008,-1.8008,-1.8008,-1.8008,-1.8008,-1.8008,-1.8008,-1.8008,-1.8008,-1.8008,-1.8008,-1.8008,-1.8008,-1.8008,-0.9329,-0.9468,0.0,0.0,-0.9152,0.0,0.0,0.0,0.0,0.0,0.0,0.0,0.0,0.0,0.0,-0.9474,-0.9151,0.0,0.0,0.0,0.0,0.0,0.0,0.0,0.0,0.0,-0.9251,-0.9451,0.0,0.0,0.0,0.0,-1.0019,-1.0387,-0.988,-0.9588,-0.9588,-0.9588,-0.9588,-0.9588,-0.9588,-0.9588,-0.9588,-0.9588,-0.9588,-0.9588,-0.9588,-0.9588,-0.9588,-0.9588,-0.9588,-0.9588,-0.9588,-0.9588,-0.9588,-0.9588,-0.9718,-1.0096,-1.1594,-1.3077,-1.4351,-1.4846,-1.5186,-1.541,-1.541,-1.541,-1.541,-1.541,-1.541,-1.541,-1.541,-1.541,-1.541,-1.541,-1.541,-1.541,-1.541,-1.541,-1.541,-1.541,-1.5889,-1.6396,-1.6648,-1.7217,-1.7695,-1.7969,-1.8008,-1.8008,-1.8008,-1.8008,-1.8008,-1.8008,-1.8008,-1.8008,-1.8008,-1.8008,-1.8008,-1.8008,-1.8008,-1.8008,-1.8008,-1.8008,-1.8008,-1.8008,-1.8008,-1.8008,-1.8008,-1.8008,-1.8008,-1.8008,-1.8008,-1.8008]}]]